[[{"header":{"parameterUnit":"m.s-1","parameterCategory":1,"la1":30.6,"la2":29.2853,"lo1":-89.7004,"lo2":-87.6739,"dy":0.0162,"dx":0.0183,"nx":112,"ny":82,"refTime":"2026-05-15T00:00:00:Z","depth":0,"parameterNumber":2,"parameterNumberName":"U-component_of_WINDS"},"data":[0.0,0.0,0.0,0.0,0.0,0.0,0.0,0.0,0.0,0.0,0.0,0.0,0.0,0.0,0.0,0.0,0.0,0.0,0.0,0.0,0.0,0.0,0.0,0.0,0.0,0.0,0.0,0.0,0.0,0.0,0.0,0.0,0.0,0.0,0.0,0.0,0.0,0.0,0.0,0.0,0.0,0.0,0.0,0.0,0.0,0.0,0.0,0.0,0.0,0.0,0.0,0.0,0.0,0.0,0.0,0.0,0.0,0.0,0.0,0.0,0.0,0.0,0.0,0.0,0.0,0.0,0.0,0.0,0.0,0.0,0.0,0.0,0.0,0.0,0.0,0.0,0.0,0.0,0.0,0.0,0.0,0.0,0.0,0.0,0.0,0.0,0.0,0.0,0.0,0.0,0.0,-1.6857,-1.9156,-2.0541,-2.0418,-1.9515,-1.7835,-1.5167,0.0,0.0,0.0,0.0,0.0,0.0,0.0,0.0,0.0,0.0,0.0,0.0,0.0,0.0,0.0,0.0,0.0,0.0,0.0,0.0,0.0,0.0,0.0,0.0,0.0,0.0,0.0,0.0,0.0,0.0,0.0,0.0,0.0,0.0,0.0,0.0,0.0,0.0,0.0,0.0,0.0,0.0,0.0,0.0,0.0,0.0,0.0,0.0,0.0,0.0,0.0,0.0,0.0,0.0,0.0,0.0,0.0,0.0,0.0,0.0,0.0,0.0,0.0,0.0,0.0,0.0,0.0,0.0,0.0,0.0,0.0,0.0,0.0,0.0,0.0,0.0,0.0,0.0,0.0,0.0,0.0,0.0,0.0,0.0,0.0,0.0,0.0,0.0,0.0,0.0,0.0,0.0,0.0,0.0,0.0,0.0,0.0,0.0,0.0,0.0,0.0,0.0,0.0,0.0,-1.5362,-1.8478,-1.988,-2.0541,-2.0418,-1.8871,-1.7081,-1.5122,0.0,0.0,0.0,0.0,0.0,0.0,0.0,0.0,0.0,0.0,0.0,0.0,0.0,0.0,0.0,0.0,0.0,0.0,0.0,0.0,0.0,0.0,0.0,0.0,0.0,0.0,0.0,0.0,0.0,0.0,0.0,0.0,0.0,0.0,0.0,0.0,0.0,0.0,0.0,0.0,0.0,0.0,0.0,0.0,0.0,0.0,0.0,0.0,0.0,0.0,0.0,0.0,0.0,0.0,0.0,0.0,0.0,0.0,0.0,0.0,0.0,0.0,0.0,0.0,0.0,0.0,0.0,0.0,0.0,0.0,0.0,0.0,0.0,0.0,0.0,0.0,0.0,0.0,0.0,0.0,0.0,0.0,0.0,0.0,0.0,0.0,0.0,0.0,0.0,0.0,0.0,0.0,0.0,0.0,0.0,0.0,0.0,0.0,0.0,0.0,0.0,0.0,0.0,-1.4731,-1.6616,-1.9645,-2.0332,-2.0541,-2.0418,-1.8811,-1.6992,-1.5125,-1.2563,0.0,0.0,0.0,0.0,0.0,0.0,0.0,0.0,0.0,0.0,0.0,0.0,0.0,0.0,0.0,0.0,0.0,0.0,0.0,0.0,0.0,0.0,0.0,0.0,0.0,0.0,0.0,0.0,0.0,0.0,0.0,0.0,0.0,0.0,0.0,0.0,0.0,0.0,0.0,0.0,0.0,0.0,0.0,0.0,0.0,0.0,0.0,0.0,0.0,0.0,0.0,0.0,0.0,0.0,0.0,0.0,0.0,0.0,0.0,0.0,0.0,0.0,0.0,0.0,0.0,0.0,0.0,0.0,0.0,0.0,0.0,0.0,0.0,0.0,0.0,0.0,0.0,0.0,0.0,0.0,0.0,0.0,0.0,0.0,0.0,0.0,0.0,0.0,0.0,0.0,0.0,0.0,0.0,0.0,0.0,0.0,0.0,0.0,0.0,0.0,0.0,0.0,-1.6748,-1.7925,-2.0332,-2.0585,-2.0537,-2.0416,-1.8663,-1.6829,-1.5106,-1.1675,0.0,0.0,0.0,0.0,0.0,0.0,0.0,0.0,0.0,0.0,0.0,0.0,0.0,0.0,0.0,0.0,0.0,0.0,0.0,0.0,0.0,0.0,0.0,0.0,0.0,0.0,0.0,0.0,0.0,0.0,0.0,0.0,0.0,0.0,0.0,0.0,0.0,0.0,0.0,0.0,0.0,0.0,0.0,0.0,0.0,0.0,0.0,0.0,0.0,0.0,0.0,0.0,0.0,0.0,0.0,0.0,0.0,0.0,0.0,0.0,0.0,0.0,0.0,0.0,0.0,0.0,0.0,0.0,0.0,0.0,0.0,0.0,0.0,0.0,0.0,0.0,0.0,0.0,0.0,0.0,0.0,0.0,0.0,0.0,0.0,0.0,0.0,0.0,0.0,0.0,0.0,0.0,0.0,0.0,0.0,0.0,0.0,0.0,0.0,0.0,0.0,0.0,-1.6913,-1.8594,-2.041,-2.0541,-2.0478,-2.0414,-1.8065,-1.6132,-1.5065,-1.1155,0.0,0.0,0.0,0.0,0.0,0.0,0.0,0.0,0.0,0.0,0.0,0.0,0.0,0.0,0.0,0.0,0.0,0.0,0.0,0.0,0.0,0.0,0.0,0.0,0.0,0.0,0.0,0.0,0.0,0.0,0.0,0.0,0.0,0.0,0.0,0.0,0.0,0.0,0.0,0.0,0.0,0.0,0.0,0.0,0.0,0.0,0.0,0.0,0.0,0.0,0.0,0.0,0.0,0.0,0.0,0.0,0.0,0.0,0.0,0.0,0.0,0.0,0.0,0.0,0.0,0.0,0.0,0.0,0.0,0.0,0.0,0.0,0.0,0.0,0.0,0.0,0.0,0.0,0.0,0.0,0.0,0.0,0.0,0.0,0.0,0.0,0.0,0.0,0.0,0.0,0.0,0.0,0.0,0.0,0.0,0.0,0.0,0.0,0.0,0.0,0.0,0.0,-1.6445,-1.8046,0.0,-2.0513,-2.0254,-1.9648,-1.8191,-1.6414,-1.4326,0.0,0.0,0.0,0.0,0.0,0.0,0.0,0.0,0.0,0.0,0.0,0.0,0.0,0.0,0.0,0.0,0.0,0.0,0.0,0.0,0.0,0.0,0.0,0.0,0.0,0.0,0.0,0.0,0.0,0.0,0.0,0.0,0.0,0.0,0.0,0.0,0.0,0.0,0.0,0.0,0.0,0.0,0.0,0.0,0.0,0.0,0.0,0.0,0.0,0.0,0.0,0.0,0.0,0.0,0.0,0.0,0.0,0.0,0.0,0.0,0.0,0.0,0.0,0.0,0.0,0.0,0.0,0.0,0.0,0.0,0.0,0.0,0.0,0.0,0.0,0.0,0.0,0.0,0.0,0.0,0.0,0.0,0.0,0.0,0.0,0.0,0.0,0.0,0.0,0.0,0.0,0.0,0.0,0.0,0.0,0.0,0.0,0.0,0.0,0.0,0.0,0.0,-1.4998,-1.6384,-1.7942,0.0,-2.0443,-2.006,-1.9181,-1.8056,-1.6331,-1.3887,0.0,0.0,0.0,0.0,0.0,0.0,0.0,0.0,0.0,0.0,0.0,0.0,0.0,0.0,0.0,0.0,0.0,0.0,0.0,0.0,0.0,0.0,0.0,0.0,0.0,0.0,0.0,0.0,0.0,0.0,0.0,0.0,0.0,0.0,0.0,0.0,0.0,0.0,0.0,0.0,0.0,0.0,0.0,0.0,0.0,0.0,0.0,0.0,0.0,0.0,0.0,0.0,0.0,0.0,0.0,0.0,0.0,0.0,0.0,0.0,0.0,0.0,0.0,0.0,0.0,0.0,0.0,0.0,0.0,0.0,0.0,0.0,0.0,0.0,0.0,0.0,0.0,0.0,0.0,0.0,0.0,0.0,0.0,0.0,0.0,0.0,0.0,0.0,0.0,0.0,0.0,0.0,0.0,0.0,0.0,0.0,0.0,0.0,0.0,0.0,0.0,0.0,-1.5075,-1.6851,-1.854,-2.0218,-2.0335,-1.9962,-1.9151,-1.75,-1.5731,0.0,0.0,0.0,0.0,0.0,0.0,0.0,0.0,0.0,0.0,0.0,0.0,0.0,0.0,0.0,0.0,0.0,0.0,0.0,0.0,0.0,0.0,0.0,0.0,0.0,0.0,0.0,0.0,0.0,0.0,0.0,0.0,0.0,0.0,0.0,0.0,0.0,0.0,0.0,0.0,0.0,0.0,0.0,0.0,0.0,0.0,0.0,0.0,0.0,0.0,0.0,0.0,0.0,0.0,0.0,0.0,0.0,0.0,0.0,0.0,0.0,0.0,0.0,0.0,0.0,0.0,0.0,0.0,0.0,0.0,0.0,0.0,0.0,0.0,0.0,0.0,0.0,0.0,0.0,0.0,0.0,0.0,0.0,0.0,0.0,0.0,0.0,0.0,0.0,0.0,0.0,0.0,0.0,0.0,0.0,0.0,0.0,0.0,0.0,0.0,0.0,0.0,0.0,0.0,-1.6851,-1.8529,-2.016,-2.0305,-1.9709,-1.8246,-1.7639,-1.6077,-1.3067,0.0,0.0,0.0,0.0,0.0,0.0,0.0,0.0,0.0,0.0,0.0,0.0,0.0,0.0,0.0,0.0,0.0,0.0,0.0,0.0,0.0,0.0,0.0,0.0,0.0,0.0,0.0,0.0,0.0,0.0,0.0,0.0,0.0,0.0,0.0,0.0,0.0,0.0,0.0,0.0,0.0,0.0,0.0,0.0,0.0,0.0,0.0,0.0,0.0,0.0,0.0,0.0,0.0,0.0,0.0,0.0,0.0,0.0,0.0,0.0,0.0,0.0,0.0,0.0,0.0,0.0,0.0,0.0,0.0,0.0,0.0,0.0,0.0,0.0,0.0,0.0,0.0,0.0,0.0,0.0,0.0,0.0,0.0,0.0,0.0,0.0,0.0,0.0,0.0,0.0,0.0,0.0,0.0,0.0,0.0,0.0,0.0,0.0,0.0,0.0,0.0,0.0,-1.4915,-1.6815,-1.8494,-2.0138,-2.0299,-1.9583,-1.7856,-1.7699,-1.624,-1.2799,0.0,0.0,0.0,0.0,0.0,0.0,0.0,0.0,0.0,0.0,0.0,0.0,0.0,0.0,0.0,0.0,0.0,0.0,0.0,0.0,0.0,0.0,0.0,0.0,0.0,0.0,0.0,0.0,0.0,0.0,0.0,0.0,0.0,0.0,0.0,0.0,0.0,0.0,0.0,0.0,0.0,0.0,0.0,0.0,0.0,0.0,0.0,0.0,0.0,0.0,0.0,0.0,0.0,0.0,0.0,0.0,0.0,0.0,0.0,0.0,0.0,0.0,0.0,0.0,0.0,0.0,0.0,0.0,0.0,0.0,0.0,0.0,0.0,0.0,0.0,0.0,0.0,0.0,0.0,0.0,0.0,0.0,0.0,0.0,0.0,0.0,0.0,0.0,0.0,0.0,0.0,0.0,0.0,0.0,0.0,0.0,0.0,0.0,0.0,0.0,0.0,0.0,-1.4857,-1.6767,-1.8444,-2.0123,-2.0308,-1.96,-1.7853,-1.7699,-1.6295,-1.3027,0.0,0.0,0.0,0.0,0.0,0.0,0.0,0.0,0.0,0.0,0.0,0.0,0.0,0.0,0.0,0.0,0.0,0.0,0.0,0.0,0.0,0.0,0.0,0.0,0.0,0.0,0.0,0.0,0.0,0.0,0.0,0.0,0.0,0.0,0.0,0.0,0.0,0.0,0.0,0.0,0.0,0.0,0.0,0.0,0.0,0.0,0.0,0.0,0.0,0.0,0.0,0.0,0.0,0.0,0.0,0.0,0.0,0.0,0.0,0.0,-2.1832,0.0,0.0,0.0,0.0,0.0,0.0,0.0,0.0,0.0,0.0,0.0,0.0,0.0,0.0,0.0,0.0,0.0,0.0,0.0,0.0,0.0,0.0,0.0,0.0,0.0,0.0,0.0,0.0,0.0,0.0,0.0,0.0,0.0,0.0,0.0,0.0,0.0,0.0,0.0,0.0,0.0,-1.4882,-1.6733,-1.8444,-2.0123,-2.0308,-1.96,-1.7853,-1.7699,-1.6542,-1.3824,0.0,0.0,0.0,0.0,0.0,0.0,0.0,0.0,0.0,0.0,0.0,0.0,0.0,0.0,0.0,0.0,0.0,0.0,0.0,0.0,0.0,0.0,0.0,0.0,0.0,0.0,0.0,0.0,0.0,0.0,0.0,0.0,0.0,0.0,0.0,0.0,0.0,0.0,0.0,0.0,0.0,0.0,0.0,0.0,0.0,0.0,0.0,0.0,0.0,0.0,0.0,0.0,0.0,0.0,0.0,0.0,0.0,0.0,0.0,0.0,0.0,-2.3648,0.0,0.0,0.0,0.0,0.0,0.0,0.0,0.0,0.0,0.0,0.0,0.0,0.0,0.0,0.0,0.0,0.0,0.0,0.0,0.0,0.0,0.0,0.0,0.0,0.0,0.0,0.0,0.0,0.0,0.0,0.0,0.0,0.0,0.0,0.0,0.0,0.0,0.0,0.0,0.0,-1.5497,-1.7313,-1.8869,-2.0158,-2.0308,-1.9754,-1.8434,-1.793,-1.6792,-1.4651,-1.2945,0.0,0.0,0.0,0.0,0.0,0.0,0.0,0.0,0.0,0.0,0.0,0.0,0.0,0.0,0.0,0.0,0.0,0.0,0.0,0.0,0.0,0.0,0.0,0.0,0.0,0.0,0.0,0.0,0.0,0.0,0.0,0.0,0.0,0.0,0.0,0.0,0.0,0.0,0.0,0.0,0.0,0.0,0.0,0.0,0.0,0.0,0.0,0.0,0.0,0.0,0.0,0.0,0.0,-3.1693,-3.2553,-3.2524,-3.3246,-3.3543,-3.329,-2.9807,-2.8338,-2.8191,0.0,0.0,0.0,0.0,0.0,0.0,0.0,0.0,0.0,0.0,0.0,0.0,0.0,0.0,0.0,0.0,0.0,0.0,0.0,0.0,0.0,0.0,0.0,0.0,0.0,-2.1235,-2.0523,0.0,0.0,0.0,0.0,0.0,0.0,0.0,0.0,0.0,0.0,0.0,0.0,-1.6207,-1.7966,-1.9327,-2.0212,-2.0308,-1.9888,-1.8857,-1.8103,-1.6984,-1.5308,-1.3755,-1.2255,0.0,0.0,0.0,0.0,0.0,0.0,0.0,0.0,0.0,0.0,0.0,0.0,0.0,0.0,0.0,0.0,0.0,0.0,0.0,0.0,0.0,0.0,0.0,0.0,0.0,0.0,0.0,0.0,0.0,0.0,0.0,0.0,-2.0724,-2.3107,0.0,0.0,0.0,0.0,0.0,0.0,0.0,0.0,0.0,0.0,0.0,0.0,0.0,-2.9347,-3.0754,-3.2265,-3.3054,-3.3183,-3.4894,-3.5698,-3.5698,-3.5809,-3.5864,-3.5827,-3.5252,0.0,-3.0791,-2.895,0.0,0.0,0.0,0.0,0.0,0.0,0.0,0.0,0.0,0.0,0.0,0.0,0.0,0.0,0.0,0.0,0.0,0.0,0.0,0.0,0.0,0.0,-2.3263,-2.2624,-2.2547,-2.2235,0.0,-1.885,-1.7026,-1.5888,0.0,0.0,0.0,0.0,0.0,0.0,0.0,0.0,-1.6359,-1.7953,-1.9334,-2.0212,-2.0308,-1.9638,-1.8007,-1.7776,-1.6984,-1.5308,-1.4286,-1.3629,-1.3418,-1.1167,0.0,0.0,0.0,0.0,0.0,0.0,0.0,0.0,0.0,0.0,0.0,0.0,0.0,0.0,0.0,0.0,0.0,0.0,0.0,0.0,0.0,0.0,0.0,0.0,0.0,0.0,0.0,0.0,0.0,-2.1042,-2.3657,-2.475,-2.4961,-2.4557,0.0,0.0,0.0,0.0,0.0,0.0,0.0,0.0,0.0,-3.2307,-3.2839,-3.388,-3.5495,-3.6652,-3.7221,-3.7239,-3.8432,-3.9001,-3.8982,-3.8524,-3.8322,-3.8285,-3.7845,-3.6578,-3.4628,-3.2082,-2.9879,-2.7945,0.0,0.0,0.0,0.0,-2.5364,-2.5302,-2.6827,-2.6865,0.0,0.0,0.0,0.0,0.0,0.0,0.0,0.0,0.0,0.0,0.0,0.0,0.0,-2.4909,-2.4562,-2.3985,-2.3144,-2.2085,-2.0469,0.0,-1.6676,-1.5635,-1.3712,0.0,0.0,0.0,0.0,0.0,-1.7795,-1.8969,-1.9888,-2.025,-2.0308,-1.9981,-1.9234,-1.8257,-1.7391,-1.6657,-1.5365,-1.442,-1.3918,-1.2822,-1.1555,0.0,0.0,0.0,0.0,0.0,0.0,0.0,0.0,0.0,0.0,0.0,0.0,0.0,0.0,0.0,0.0,0.0,0.0,0.0,0.0,0.0,0.0,0.0,0.0,0.0,0.0,0.0,0.0,-2.3992,-2.6164,-2.6586,-2.753,-2.7658,0.0,0.0,0.0,0.0,0.0,0.0,-3.084,-3.2766,-3.4596,-3.6197,-3.689,-3.7881,-3.9297,-3.9918,-4.0212,-4.0212,-4.0802,-4.1095,-4.1077,-4.0487,-4.0212,-4.0157,-3.9368,-3.867,-3.7878,-3.4816,-3.2711,-3.128,-2.9879,-2.8723,-2.7949,-2.8981,-2.9143,-2.9082,-3.0734,-3.0744,-2.9827,-2.8652,0.0,-2.5838,-2.3781,0.0,0.0,0.0,0.0,-2.4994,-2.6533,-2.6447,-2.6135,-2.6774,-2.6269,-2.5462,-2.4875,-2.4567,-2.3336,0.0,-1.9346,-1.8766,-1.6016,0.0,0.0,0.0,0.0,-1.828,-1.8915,-1.9754,-2.0308,-2.0308,-2.0308,-2.0212,-1.9985,-1.8565,-1.7603,-1.7411,-1.6003,-1.4901,-1.4264,-1.4014,-1.3014,-1.1113,0.0,0.0,0.0,0.0,0.0,0.0,0.0,0.0,0.0,0.0,0.0,0.0,0.0,0.0,0.0,0.0,0.0,0.0,0.0,0.0,0.0,0.0,0.0,0.0,0.0,0.0,0.0,0.0,0.0,-2.9787,-3.1335,0.0,0.0,0.0,0.0,-3.1103,-3.2632,-3.4247,-3.5844,-3.6776,-3.7988,-3.9588,-3.9698,-4.012,-4.0967,-4.1022,-4.104,-4.104,-4.1077,-4.1095,-4.1095,-4.1058,-4.104,-4.0985,-4.0194,-3.9808,-3.9588,-3.7129,-3.5587,-3.4674,-3.3844,-3.254,-3.1287,-3.2356,-3.1946,-3.0995,-3.2064,-3.2262,-3.2043,-3.1968,-3.0094,-2.771,-2.6822,-2.56,0.0,0.0,-2.6053,-2.6352,-2.7525,-2.7799,-2.778,-2.7818,-2.7178,-2.6524,-2.6486,-2.5827,-2.4712,0.0,-2.1908,-2.1077,-2.0135,0.0,-1.853,-1.7699,-1.8357,-1.8953,-1.8992,-1.9754,-2.0308,-2.0308,-2.0308,-1.9965,-1.9146,-1.8222,-1.7372,-1.6603,-1.5692,-1.5173,-1.5135,-1.4343,-1.3841,-1.3706,-1.1325,0.0,0.0,0.0,0.0,0.0,0.0,0.0,0.0,0.0,0.0,0.0,0.0,0.0,0.0,0.0,0.0,0.0,0.0,0.0,0.0,0.0,0.0,0.0,0.0,0.0,0.0,0.0,0.0,-3.3151,-3.4743,0.0,0.0,-3.4702,-3.5326,-3.5326,-3.6831,-3.7991,-3.8579,-3.9386,-4.0322,-4.1405,-4.1442,-4.1827,-4.2635,-4.2635,-4.2635,-4.2635,-4.2635,-4.2635,-4.2635,-4.2121,-4.1882,-4.1827,-4.102,-4.0377,-3.9827,-3.8964,-3.7808,-3.6523,-3.5716,-3.5055,-3.4518,-3.4336,-3.3974,-3.3543,-3.339,-3.2939,-3.2368,-3.186,-3.1016,-2.9929,-2.8622,-2.8322,-2.8325,-2.7619,-2.7924,-2.8555,-2.8962,-2.8774,-2.8485,-2.8485,-2.7952,-2.7274,-2.6717,-2.637,-2.5788,-2.4635,-2.3735,-2.274,-2.1312,-2.1273,-2.097,-1.9581,-2.0081,-2.0427,-1.9908,-2.0119,-2.0308,-2.0308,-2.0308,-2.0173,-1.985,-1.8526,-1.7584,-1.7295,-1.5965,-1.5192,-1.5192,-1.4901,-1.4231,-1.3159,-1.2235,-1.0771,0.0,0.0,0.0,0.0,0.0,0.0,0.0,0.0,0.0,0.0,0.0,0.0,0.0,0.0,0.0,0.0,0.0,0.0,0.0,0.0,0.0,0.0,0.0,0.0,0.0,0.0,-3.4945,-3.5752,-3.7533,-3.8285,-3.7202,-3.8083,-3.8707,-3.8707,-3.9955,-4.0708,-4.0708,-4.1479,-4.2158,-4.269,-4.269,-4.2947,-4.3496,-4.3515,-4.3515,-4.3515,-4.3515,-4.3515,-4.3478,-4.2947,-4.269,-4.2653,-4.1864,-4.1203,-4.0671,-4.012,-3.9273,-3.8227,-3.7422,-3.6927,-3.6615,-3.6064,-3.5565,-3.5053,-3.4218,-3.3591,-3.2988,-3.2101,-3.1806,-3.1549,-3.0228,-3.013,-3.0242,-2.9225,-2.926,-2.9598,-2.9678,-2.9399,-2.9103,-2.9103,-2.8576,-2.7918,-2.7338,-2.6784,-2.6247,-2.5713,-2.5004,-2.4048,-2.262,-2.2855,-2.2759,-2.135,-2.1317,-2.1233,-2.0715,-2.0389,-2.0197,-2.0197,-2.0269,-2.0308,-2.0308,-1.8696,-1.7699,-1.7699,-1.6138,-1.5192,-1.5192,-1.5192,-1.4538,-1.314,-1.2546,-1.1427,-0.9729,0.0,0.0,0.0,0.0,0.0,0.0,0.0,0.0,0.0,0.0,0.0,0.0,0.0,0.0,0.0,0.0,0.0,0.0,0.0,0.0,0.0,0.0,0.0,-3.2711,-3.4871,-3.6743,-3.7547,-3.9735,-4.0563,-3.9001,-4.0251,-4.1168,-4.1168,-4.1901,-4.2341,-4.2341,-4.3075,-4.3515,-4.3515,-4.3515,-4.3515,-4.3515,-4.3515,-4.3515,-4.3515,-4.3515,-4.3515,-4.3515,-4.3515,-4.3515,-4.346,-4.2671,-4.2323,-4.2176,-4.0579,-3.9918,-3.9808,-3.9019,-3.8212,-3.7529,-3.7511,-3.6639,-3.5361,-3.4511,-3.4213,-3.4017,-3.2974,-3.2638,-3.2491,-3.1678,-3.0889,-3.0324,-3.0535,-3.0025,-2.9471,-2.9625,-2.9687,-2.9696,-2.9696,-2.9046,-2.8424,-2.8406,-2.7161,-2.6076,-2.6179,-2.5704,-2.5029,-2.4279,-2.4149,-2.3836,-2.2966,-2.1981,0.0,-2.1299,-2.0536,-1.9984,-1.9984,-2.0165,-2.0285,-2.0285,-1.8696,-1.7699,-1.7699,-1.6138,-1.5192,-1.5192,-1.5192,-1.4786,-1.3918,-1.2288,-1.1427,-1.1408,0.0,0.0,0.0,0.0,0.0,0.0,0.0,0.0,0.0,0.0,0.0,0.0,0.0,0.0,0.0,0.0,0.0,0.0,0.0,0.0,0.0,0.0,-3.5275,-3.5275,-3.7881,-4.0084,-4.0873,-4.2066,-4.2671,-4.2213,-4.258,-4.2837,-4.2837,-4.3039,-4.3167,-4.3167,-4.3386,-4.3515,-4.3515,-4.3515,-4.3515,-4.3515,-4.3515,-4.3515,-4.3515,-4.3515,-4.3515,-4.3515,-4.3515,-4.3515,-4.3496,-4.3276,-4.2837,-4.2213,-4.1203,-4.0432,-3.9808,-3.9019,-3.856,-3.8303,-3.7731,-3.6503,-3.51,-3.486,-3.44,-3.3865,-3.3558,-3.3476,-3.333,-3.2522,-3.2118,-3.1709,-3.0617,-3.0143,-2.9853,-2.934,-2.9343,-2.9474,-2.9474,-2.9401,-2.9168,-2.8537,-2.7584,-2.6714,-2.6167,-2.5444,-2.4949,-2.497,-2.4962,-2.4644,-2.3659,-2.2781,0.0,-2.1183,-2.0358,-1.9852,-1.9852,-1.9983,-2.0078,-2.0078,-1.8617,-1.7699,0.0,-1.6138,-1.5192,-1.5192,-1.5192,-1.4786,-1.3918,-1.2868,-1.2026,0.0,0.0,0.0,0.0,0.0,0.0,0.0,0.0,0.0,0.0,0.0,0.0,0.0,0.0,0.0,0.0,0.0,0.0,0.0,0.0,0.0,0.0,-3.6193,-3.8432,-3.8762,-4.0432,-4.1901,-4.2708,-4.3516,-4.3993,-4.3993,-4.4305,-4.4507,-4.4507,-4.4507,-4.4507,-4.4507,-4.4176,-4.3993,-4.3993,-4.368,-4.3515,-4.3515,-4.3515,-4.3515,-4.3515,-4.3515,-4.3515,-4.3515,-4.3515,-4.3515,0.0,-4.3515,-4.3222,-4.2708,-4.1572,-4.082,0.0,0.0,0.0,0.0,0.0,-3.6886,-3.5954,-3.5243,-3.4692,-3.4252,-3.3917,-3.3807,-3.3715,-3.3238,-3.2858,-3.2399,-3.1463,-3.0723,-3.0099,-2.961,-2.9381,-2.9225,-2.9225,-2.9314,-2.9276,-2.8762,-2.8026,-2.7232,-2.6526,0.0,0.0,-2.5107,-2.5091,-2.489,-2.4316,-2.3455,-2.2545,-2.1548,-2.0721,-2.0095,-1.9745,-1.9836,-1.9948,-2.0007,-1.8863,0.0,0.0,0.0,-1.5577,-1.5212,-1.4843,0.0,0.0,0.0,0.0,0.0,0.0,0.0,0.0,-1.0886,-1.1347,0.0,0.0,0.0,0.0,0.0,0.0,0.0,0.0,0.0,0.0,0.0,0.0,0.0,0.0,0.0,0.0,-3.9258,-4.1517,-4.2323,-4.2433,-4.2727,-4.3551,-4.4268,-4.4745,-4.4837,-4.548,-4.5902,-4.5902,-4.5902,-4.5902,-4.5902,0.0,0.0,0.0,0.0,-4.3515,-4.3515,-4.3515,-4.3515,-4.3515,-4.3515,-4.3515,-4.3515,-4.3515,-4.3515,-4.3515,-4.3515,-4.3515,-4.3386,-4.1772,-4.0985,-4.0691,-3.9258,-3.8707,-3.8615,-3.7915,-3.7584,-3.7272,-3.5683,0.0,0.0,-3.4064,-3.3807,-3.3807,-3.3807,-3.3311,-3.2711,-3.2619,-3.15,-3.032,-3.0228,-2.9592,-2.9005,-2.9005,-2.9005,-2.9005,-2.9005,-2.8374,-2.7624,-2.6988,-2.6219,-2.5472,-2.4851,-2.4768,-2.479,-2.4768,-2.3922,-2.3013,-2.2222,-2.1317,-2.0484,-1.9778,0.0,0.0,-1.9934,-1.9259,-1.8846,-1.897,-1.75,-1.6253,-1.5385,-1.4593,-1.4516,-1.5192,-1.444,-1.444,-1.5192,-1.5192,-1.4805,-1.4014,-1.2522,-1.2182,0.0,0.0,0.0,0.0,0.0,0.0,0.0,0.0,0.0,0.0,0.0,0.0,0.0,0.0,0.0,-3.8799,-4.0818,-4.2359,-4.3149,-4.3276,-4.3571,-4.4378,-4.4617,-4.4947,-4.5608,-4.581,-4.5902,-4.5902,-4.5902,-4.5902,-4.5902,-4.5149,0.0,-4.4691,-4.392,-4.3515,-4.3515,-4.3515,-4.3515,-4.3515,0.0,0.0,-4.3515,-4.3515,-4.3515,-4.3515,-4.3515,-4.3515,-4.3386,-4.1772,-4.0325,-3.9129,-3.8836,-3.8707,-3.8689,-3.8524,-3.8046,-3.7364,-3.6376,-3.5591,-3.4876,-3.4064,-3.3807,-3.3807,-3.3807,-3.3697,0.0,-3.2784,-3.1916,-3.1029,-3.0375,-2.9592,-2.9005,-2.9005,-2.9005,-2.9005,-2.9005,-2.8374,-2.757,-2.6804,-2.6005,-2.5206,-2.4441,-2.4594,-2.4746,-2.4575,-2.3846,-2.3172,-2.2847,-2.1496,-2.0494,-2.0347,-1.9917,-1.9656,-1.9676,-1.9144,-1.8806,-1.8833,-1.798,-1.7103,-1.6272,-1.6099,-1.5753,-1.5212,-1.5038,-1.5038,-1.5192,-1.5192,-1.5115,-1.4942,-1.4624,-1.4205,0.0,0.0,0.0,0.0,0.0,0.0,0.0,0.0,0.0,0.0,0.0,-3.3353,0.0,0.0,-3.9239,-4.0836,-4.2103,-4.3039,-4.3441,-4.3515,-4.3662,-4.4048,-4.4819,-4.5461,-4.5865,-4.6636,-4.7095,-4.7095,-4.7095,-4.7095,-4.7095,-4.6324,-4.5718,-4.5314,-4.4525,-4.3901,-4.3515,-4.3515,-4.3515,-4.3515,-4.3515,-4.3515,-4.3515,-4.3515,-4.3515,-4.3515,-4.3515,-4.3276,-4.2763,-4.1167,-3.979,-3.8707,-3.8707,-3.8707,-3.8707,-3.8707,-3.845,-3.7918,-3.6707,-3.6009,-3.5459,-3.4192,-3.3807,-3.3807,-3.3807,-3.3807,-3.3715,-3.3311,-3.232,-3.1323,-3.0889,-2.9898,-2.9005,-2.9005,-2.9005,-2.9005,-2.9005,-2.8675,-2.8044,-2.6822,-2.6282,-2.5621,-2.441,-2.4366,-2.4461,-2.4366,-2.4006,-2.3574,-2.3061,-2.1932,-2.0978,-2.0548,-1.987,-1.9492,-1.9582,-1.9422,-1.9162,-1.883,-1.8448,-1.7892,-1.7138,-1.7103,-1.691,-1.6465,-1.6445,-1.6445,-1.6445,-1.6445,-1.6445,-1.6445,-1.6445,-1.5793,0.0,0.0,0.0,0.0,0.0,0.0,0.0,0.0,-3.1005,-3.4244,-3.5575,-3.6839,-3.9001,-4.0469,-4.159,-4.2396,-4.3075,-4.3515,-4.3515,-4.3515,-4.3515,-4.3515,-4.4782,-4.5736,-4.5883,-4.7076,-4.7902,-4.8067,-4.8086,-4.8141,-4.8306,-4.7388,-4.6562,-4.592,-4.4966,-4.4158,-4.3515,-4.3515,-4.3515,-4.3515,-4.3515,-4.3515,-4.3515,-4.3515,-4.3515,-4.3496,-4.3331,-4.28,-4.1956,-4.0487,-3.9423,-3.8707,-3.8707,-3.8707,-3.8707,-3.8707,-3.8707,-3.8469,-3.6853,-3.6303,-3.6009,-3.4339,-3.3807,-3.3807,-3.3807,-3.3807,-3.3807,-3.3807,-3.2632,-3.1397,-3.1397,-3.021,-2.9005,-2.9005,-2.9005,-2.9005,-2.9005,-2.9005,-2.8565,-2.7126,-2.6722,-2.6135,-2.4685,-2.43,-2.419,-2.419,-2.419,-2.3969,-2.3318,-2.2391,-2.1537,-2.0823,-1.9877,-1.9372,-1.9576,-1.9701,-1.9543,-1.9035,-1.9012,-1.8708,-1.7933,-1.7917,-1.7851,-1.7699,-1.7678,-1.7678,-1.7699,-1.7699,-1.7699,-1.7699,-1.7699,-1.6987,-2.4983,-2.516,-2.6353,-2.9487,-2.9339,-3.0171,0.0,0.0,-3.6347,-3.9577,-4.0327,-4.071,-4.1717,-4.2047,-4.2433,-4.3222,-4.3441,-4.3515,-4.3515,-4.3515,-4.3515,-4.3515,-4.4287,-4.5112,-4.5828,-4.6067,-4.6471,-4.7168,-4.7223,-4.7553,-4.8269,-4.6856,-4.5993,-4.5902,-4.4415,-4.3589,-4.3515,-4.3515,-4.3515,-4.3515,-4.3515,-4.3515,-4.3515,-4.3515,-4.3515,-4.346,-4.2745,-4.1992,-4.115,-4.0267,-3.9423,-3.8707,-3.8707,-3.8707,-3.8707,-3.8707,-3.8707,-3.8469,-3.6853,-3.6303,-3.6009,-3.4339,-3.3807,-3.3807,-3.3807,-3.3807,-3.3807,-3.3807,-3.2632,-3.1397,-3.1397,-3.021,-2.9005,-2.9005,-2.9005,-2.9005,-2.9005,-2.9005,-2.873,-2.7842,-2.709,-2.6319,-2.5411,-2.4677,-2.419,-2.419,-2.419,-2.4171,-2.408,-2.2749,-2.1757,-2.1666,-2.0233,-1.9372,-1.9576,-1.9609,-1.9638,-1.9694,-1.9805,-1.9516,-1.8719,-1.8681,-1.8365,-1.7715,-1.7581,-1.7577,-1.7699,-1.7699,-1.7699,-1.7699,-1.7699,-1.7603,-2.8916,-2.9681,0.0,0.0,-3.3908,-3.5308,-3.849,-3.8781,-3.9038,-4.1332,-4.1809,-4.2047,-4.2837,-4.3002,-4.3112,0.0,-4.3515,-4.3515,-4.3515,-4.3515,-4.3331,-4.2855,-4.3516,-4.4323,-4.5131,-4.5626,-4.6049,-4.6379,-4.6416,-4.6562,-4.6893,-4.6269,-4.5681,-4.5223,-4.4544,-4.3975,-4.3515,-4.3515,-4.3515,-4.3515,-4.3515,-4.3515,-4.3515,-4.3515,-4.3515,-4.3441,-4.2158,-4.1407,-4.1003,-3.9735,-3.9001,-3.8707,-3.8707,-3.8707,-3.8707,-3.8707,-3.8707,-3.8469,-3.6853,-3.6303,-3.6009,-3.4339,-3.3807,-3.3807,-3.3807,-3.3807,-3.3807,-3.3807,-3.2632,-3.1397,-3.1397,-3.021,-2.9005,-2.9005,-2.9005,-2.9005,-2.9005,-2.9005,-2.8767,-2.7952,-2.7145,-2.6337,-2.554,-2.4732,-2.419,-2.419,-2.419,-2.419,-2.419,-2.3199,-2.2116,-2.1161,-2.0013,-1.9327,-1.9427,-1.9435,-1.9495,-1.9676,-1.9732,-1.9658,-1.9382,-1.9387,-1.9242,-1.8931,-1.8877,-1.8897,-1.9048,-1.9048,-1.91,-1.9215,-1.9215,-1.9215,-3.1422,0.0,0.0,-3.5296,-3.7221,-3.8872,-3.9551,-4.0139,-4.0891,-4.2066,-4.2304,-4.2415,-4.2763,-4.302,0.0,-4.3167,-4.3368,-4.3515,-4.3515,-4.3296,-4.3039,-4.2671,-4.2947,-4.3479,-4.4287,-4.4892,-4.5333,-4.5553,-4.5571,-4.5663,-4.5883,-4.5681,-4.5296,-4.4709,-4.4488,-4.4085,-4.3515,-4.3515,-4.3515,-4.3515,-4.3515,-4.3515,-4.3515,-4.3515,-4.3515,-4.3423,-4.1809,-4.1095,-4.0967,-3.9368,-3.8707,-3.8707,-3.8707,-3.8707,-3.8707,-3.8707,-3.8707,-3.8469,-3.6853,-3.6303,-3.6009,-3.4339,-3.3807,-3.3807,-3.3807,-3.3807,-3.3807,-3.3807,-3.2797,-3.1678,-3.147,-3.0375,-2.928,-2.906,-2.9005,-2.9005,-2.9005,-2.9005,-2.8822,-2.8246,-2.7475,-2.6686,-2.587,-2.5062,-2.4456,-2.4226,-2.419,-2.419,-2.419,-2.3309,-2.2107,-2.0658,-1.9785,-1.9297,-1.9297,-1.9297,-1.9357,-1.9513,-1.9562,-1.9649,-1.9738,-1.9744,-1.9762,-1.979,-1.9768,-1.9802,-1.9934,-1.9974,-2.0073,-2.0229,-2.0277,-2.0308,0.0,0.0,-3.4362,-3.6813,-3.8065,-3.9313,-4.1662,-4.2213,-4.2249,-4.2286,-4.2304,-4.2066,-4.1297,-4.1809,-4.2341,-4.2341,-4.2983,-4.3515,-4.3515,-4.2818,-4.2616,-4.3369,-4.28,-4.2653,0.0,-4.357,-4.3901,-4.4673,-4.4745,-4.5094,-4.5865,-4.5168,-4.4728,-4.4691,-4.3938,-4.3533,-4.3515,-4.3515,-4.3515,-4.3515,-4.3515,-4.3515,-4.3515,-4.3515,-4.3515,-4.3423,-4.1809,-4.1095,-4.0967,-3.9368,-3.8707,-3.8707,-3.8707,-3.8707,-3.8707,-3.8707,-3.8707,-3.8469,-3.6853,-3.6303,-3.6009,-3.4339,-3.3807,-3.3807,-3.3807,-3.3807,-3.3807,-3.3807,-3.3201,-3.2381,-3.1599,-3.0779,-2.9971,-2.9189,-2.9005,-2.9005,-2.9005,-2.9005,-2.8987,-2.8968,-2.8319,-2.7512,-2.6704,-2.5907,-2.5099,-2.4318,-2.419,-2.419,-2.419,-2.2822,-2.1492,-2.0603,-1.9785,-1.9297,-1.9297,-1.9297,-1.9297,-1.9305,-1.9492,-1.9589,-1.9614,-1.9614,-1.9663,-1.9809,-1.9669,-1.9669,-1.9821,-1.9943,-1.9993,-2.0017,-2.0205,-2.0308,0.0,0.0,-3.6721,-3.8631,-4.0102,-4.1295,-4.2103,-4.2304,-4.2158,-4.1625,-4.1075,-4.0616,-4.0341,-4.0524,-4.0873,-4.1423,-4.2176,-4.2892,-4.3423,-4.3276,-4.3002,-4.2745,-4.2928,0.0,0.0,0.0,0.0,-4.3883,-4.3901,-4.4011,-4.4287,-4.4048,-4.3901,-4.3901,-4.3626,-4.3515,-4.3515,-4.3515,-4.3515,-4.3515,-4.3515,-4.3515,-4.3515,-4.3515,-4.3515,-4.3423,-4.1809,-4.1095,-4.0967,-3.9368,-3.8707,-3.8707,-3.8707,-3.8707,-3.8707,-3.8707,-3.8707,-3.8469,-3.6853,-3.6303,-3.6009,-3.4339,-3.3807,-3.3807,-3.3807,-3.3807,-3.3807,-3.3807,-3.322,-3.2528,-3.2284,-3.1201,-3.0136,-2.9849,-2.939,-2.9005,-2.9005,-2.9005,-2.9005,-2.9005,-2.8356,-2.753,-2.6741,-2.5933,-2.5136,-2.4318,-2.419,-2.419,-2.419,-2.3254,-2.2281,-2.1455,-2.0611,-1.9877,-1.9352,-1.9297,-1.9297,-1.9297,-1.9357,-1.9394,-1.9394,-1.9394,-1.9423,-1.9476,-1.9431,-1.9488,-1.9663,-1.9701,-1.9824,-1.9993,-2.0069,-2.0165,-3.4802,-3.6248,-3.7529,-3.9423,-4.0671,-4.1482,-4.1568,-4.1387,-4.0823,-3.9578,-3.8689,-3.8118,-3.799,-3.8222,-3.8894,-4.0435,-4.135,-4.2249,-4.3349,-4.324,-4.2983,-4.2763,-4.2928,0.0,0.0,0.0,0.0,-4.3497,-4.3515,-4.3515,-4.3515,-4.3515,-4.3515,-4.3515,-4.3515,-4.3515,-4.3515,-4.3515,-4.3515,-4.3515,-4.3515,-4.3515,-4.3515,-4.3515,-4.3515,-4.3423,-4.1809,-4.1095,-4.0967,-3.9368,-3.8707,-3.8707,-3.8707,-3.8707,-3.8707,-3.8707,-3.8707,-3.8469,-3.6853,-3.6303,-3.6009,-3.4339,-3.3807,-3.3807,-3.3807,-3.3807,-3.3807,-3.3807,-3.344,-3.2949,-3.2674,-3.183,-3.0913,-3.0338,-2.9812,-2.9354,-2.906,-2.9005,-2.9005,-2.9005,-2.8583,-2.7879,-2.6796,-2.5695,-2.4805,-2.4281,-2.419,-2.419,-2.419,-2.3511,-2.2804,-2.2281,-2.119,-2.0291,-1.9767,-1.9481,-1.9297,-1.9297,-1.9297,-1.9297,-1.9297,-1.9297,-1.9297,-1.9297,-1.9297,-1.9357,-1.9499,-1.9562,-1.9688,-1.9858,-1.9963,-2.0046,-3.5697,-3.6413,-3.7019,-3.9328,-3.9918,-4.0006,-4.0148,-3.9607,-3.8489,-3.6364,-3.5296,-3.4666,0.0,0.0,-3.6472,-3.9232,-4.0471,-4.1645,-4.3276,-4.2837,-4.2653,0.0,0.0,0.0,0.0,0.0,0.0,-4.3535,0.0,-4.3462,-4.3515,-4.3515,-4.3515,-4.3515,-4.3515,-4.3515,-4.3515,-4.3515,-4.3515,-4.3515,-4.3515,-4.3515,-4.3515,-4.3515,-4.3478,-4.3349,-4.1791,-4.1077,-4.0879,-3.9334,-3.8673,-3.8658,-3.8692,-3.8707,-3.8707,-3.8707,-3.8707,-3.8469,-3.6853,-3.6303,-3.6009,-3.4339,-3.3807,-3.3807,-3.3807,-3.3807,-3.3807,-3.3807,-3.3807,-3.3623,-3.2858,-3.2619,-3.2197,-3.0632,-3.0228,-2.9989,-2.917,-2.9005,-2.9005,-2.9005,-2.8968,-2.8436,-2.6859,-2.5309,-2.4245,-2.4208,-2.419,-2.419,-2.419,-2.3529,-2.3043,-2.3006,-2.1575,-2.0594,-2.0511,-1.9803,-1.9334,-1.9297,-1.9297,-1.9297,-1.9297,-1.9297,-1.9297,-1.9297,-1.9297,-1.9297,-1.9297,-1.9492,-1.9582,-1.9614,-1.9863,-1.9927,-3.667,-3.808,-3.9129,-3.9751,-4.0359,-4.0408,-3.8932,-3.8013,-3.6737,-3.4099,-3.2501,-3.1388,0.0,0.0,0.0,-3.6534,-3.9241,0.0,-4.3276,-4.3331,0.0,0.0,0.0,-4.4415,-4.5204,-4.462,0.0,0.0,-4.347,-4.3069,-4.3479,-4.3515,-4.3515,-4.3515,-4.3515,-4.3515,-4.3515,-4.3515,-4.3515,-4.3515,-4.3515,-4.3515,-4.3515,-4.3515,-4.3167,-4.2543,-4.1535,-4.0527,-3.9564,-3.8949,-3.8465,-3.8132,-3.8546,-3.8707,-3.8707,-3.8707,-3.8707,-3.8469,-3.6853,-3.6303,-3.6009,-3.4339,-3.3807,-3.3807,-3.3807,-3.3807,-3.3807,-3.3807,-3.3807,-3.3752,-3.355,-3.3041,-3.2344,-3.1329,-3.0632,-2.9989,-2.917,-2.9005,-2.9005,-2.9005,-2.851,-2.7787,-2.6767,-2.575,-2.4897,-2.4281,-2.419,-2.419,-2.419,-2.4025,-2.3657,-2.3061,-2.2621,-2.1868,-2.0621,-2.0309,-1.995,-1.9334,-1.9297,-1.9297,-1.9297,-1.9297,-1.9297,-1.9297,-1.9297,-1.9297,-1.9297,-1.935,-1.9438,-1.9589,-1.9669,-1.9797,-3.7569,-3.8689,-3.9368,-3.9368,-3.9441,-3.893,-3.6669,-3.5312,-3.3604,-3.0282,-2.8896,0.0,0.0,0.0,0.0,0.0,0.0,0.0,-4.269,-4.3277,-4.3791,0.0,-4.4691,0.0,-4.581,-4.4706,-4.4063,0.0,-4.3336,-4.2826,-4.3124,-4.2903,-4.2884,-4.3142,-4.316,-4.325,-4.3497,-4.3515,-4.3515,-4.3515,-4.3515,-4.3515,-4.3515,-4.3515,-4.3057,-4.2268,0.0,-4.0332,-3.9065,-3.856,-3.8048,-3.7614,-3.7912,-3.8168,-3.8316,-3.8118,-3.8318,-3.8438,-3.659,-3.6102,-3.6009,-3.4339,-3.3807,-3.3807,-3.3807,-3.3807,-3.3807,-3.3807,-3.3807,-3.3807,-3.3807,-3.3476,-3.2926,-3.2118,-3.1311,-3.0503,-2.9702,-2.9244,-2.9005,-2.9005,-2.8205,-2.7447,-2.7178,-2.6019,-2.5046,-2.4767,-2.4438,-2.419,-2.419,-2.419,-2.4025,-2.3566,-2.3208,-2.2621,-2.1685,-2.1263,-2.0721,-1.9877,-1.9822,-1.9675,-1.9315,-1.9297,-1.9297,-1.9297,-1.9297,-1.9297,-1.9297,-1.9297,-1.935,-1.9478,-1.9555,-1.9625,-3.8303,-3.8707,-3.867,-3.8579,-3.7888,-3.6608,-3.4057,-3.2188,-2.99,-2.6088,0.0,0.0,-2.3887,0.0,-2.9848,-3.2792,0.0,-3.9423,-4.1956,-4.2892,-4.3718,-4.4745,-4.4874,-4.5223,-4.6122,-4.4437,-4.3507,-4.401,-4.3062,-4.25,-4.2577,-4.2062,-4.2041,-4.2559,-4.2655,-4.2865,-4.3267,-4.3339,-4.3339,-4.3267,-4.3267,-4.3267,-4.3267,-4.3267,-4.2774,-4.1896,0.0,0.0,-3.869,-3.8078,-3.7524,-3.7097,-3.7154,-3.7451,-3.7755,-3.7341,-3.7756,-3.8232,-3.6315,-3.5895,-3.5919,-3.4325,-3.3807,-3.3807,-3.3807,-3.3807,-3.3807,-3.3807,-3.3807,-3.3807,-3.3807,-3.3807,-3.3605,-3.2784,-3.199,-3.1182,-3.0375,-2.9574,-2.8975,-2.8929,-2.8082,-2.7417,-2.7629,-2.621,-2.5113,-2.528,-2.4736,-2.4241,-2.416,-2.417,-2.419,-2.419,-2.3584,-2.3116,-2.3006,-2.2354,-2.1584,-2.0731,-2.0566,-2.0236,-1.9664,-1.9517,-1.9462,-1.9462,-1.9462,-1.9462,-1.9462,-1.9462,-1.9462,-1.9462,-1.9756,-1.9689,-3.845,-3.8707,-3.8542,-3.7878,-3.6857,-3.5297,-3.2543,-2.998,0.0,0.0,0.0,-2.1912,-2.1735,-2.4778,0.0,-3.1497,0.0,0.0,0.0,0.0,-4.3296,0.0,0.0,0.0,0.0,0.0,0.0,0.0,0.0,0.0,-4.1937,-4.1853,-4.1853,-4.1958,-4.244,-4.2519,-4.2103,-4.2598,-4.2598,-4.2085,-4.2085,-4.2085,-4.2085,-4.2085,-4.1319,-3.9964,-3.9839,0.0,-3.6878,-3.7188,-3.7001,-3.6583,-3.7038,-3.7248,-3.7304,-3.7229,-3.7304,-3.7381,-3.6712,-3.6123,-3.5437,-3.4192,-3.3807,-3.3807,-3.3807,-3.3807,-3.3807,-3.3807,-3.3807,-3.3807,-3.3807,-3.3807,-3.3605,-3.2784,-3.199,-3.1182,-3.0375,-2.9574,-2.8905,-2.8565,-2.8337,-2.7916,-2.7041,-2.6597,-2.6045,-2.5048,-2.4786,-2.4472,-2.3875,-2.4026,-2.419,-2.419,-2.408,-2.3731,-2.3061,-2.2859,-2.2446,-2.1629,-2.0896,-2.0749,-2.1335,-2.0666,-2.0291,-2.0291,-2.0291,-2.0291,-2.0291,-2.0291,-2.0291,-2.0309,-2.1074,-2.0757,-3.8487,-3.8707,-3.8505,-3.7694,-3.6282,-3.4135,-3.0588,0.0,0.0,0.0,0.0,-2.0348,-1.957,0.0,0.0,0.0,0.0,0.0,0.0,0.0,0.0,0.0,0.0,0.0,0.0,0.0,0.0,0.0,0.0,0.0,-4.1331,-4.1335,-4.1335,-4.1335,-4.1916,-4.2101,-4.1793,-4.2101,-4.2101,-4.181,-4.181,-4.181,-4.181,-4.181,-4.0961,-3.9492,-3.9492,0.0,-3.6416,-3.6684,-3.6478,-3.6028,-3.627,-3.6542,-3.6744,-3.646,-3.6706,-3.7066,-3.6214,-3.574,-3.5349,-3.4359,-3.3939,-3.3807,-3.3807,-3.3807,-3.3807,-3.3807,-3.3807,-3.3807,-3.3807,-3.3807,-3.3697,-3.333,-3.2284,-3.1054,-2.9831,-2.9262,-2.8875,-2.8471,-2.8264,-2.7968,-2.7416,-2.6802,-2.6317,-2.6081,-2.5189,-2.4492,-2.4338,-2.3945,-2.3682,-2.3682,-2.3996,-2.3967,-2.3409,-2.3517,-2.329,-2.2483,-2.2034,-2.1804,-2.1794,-2.14,-2.118,-2.118,-2.118,-2.118,-2.118,-2.118,-2.118,-2.1198,-2.161,-2.1422,-3.8267,-3.8579,-3.8469,-3.7492,-3.566,-3.3033,-2.8859,-2.6182,0.0,0.0,0.0,-1.9208,-1.8222,0.0,0.0,0.0,0.0,0.0,0.0,0.0,0.0,0.0,0.0,0.0,0.0,0.0,0.0,0.0,0.0,0.0,-4.0737,-4.0726,-4.0726,-4.0726,-4.1291,-4.1556,-4.1442,-4.1556,-4.1534,-4.1442,-4.1442,-4.1442,-4.1424,-4.1266,-4.0442,-3.9143,-3.9006,0.0,0.0,-3.6224,-3.5985,-3.56,-3.56,-3.5854,-3.6182,-3.5761,-3.6122,-3.6718,-3.5784,-3.5337,-3.5126,-3.4697,-3.4218,-3.3807,-3.3807,-3.3807,-3.3775,-3.3694,-3.368,-3.368,-3.368,-3.3592,-3.3445,-3.3113,-3.218,-3.0907,-2.915,-2.8815,-2.8737,-2.8259,-2.7946,-2.7736,-2.7648,-2.6864,-2.6395,-2.6885,-2.5533,-2.4507,-2.467,-2.3821,-2.3159,-2.3014,-2.3595,-2.3907,-2.3714,-2.3937,-2.3857,-2.3299,-2.3098,-2.2795,-2.2326,-2.2143,-2.2069,-2.2069,-2.2069,-2.2069,-2.2069,-2.2069,-2.2069,-2.2069,-2.2235,-2.2125,-3.7584,-3.8138,-3.834,-3.678,-3.4624,-3.1836,-2.7915,0.0,0.0,0.0,-1.842,-1.8172,-1.8691,-1.9975,0.0,0.0,0.0,0.0,0.0,0.0,0.0,0.0,0.0,0.0,0.0,0.0,0.0,0.0,0.0,0.0,0.0,-4.0154,-4.0154,-4.0154,-4.0703,-4.075,-4.0254,-4.075,-4.075,-4.0254,-4.0254,-4.0254,-4.0237,-3.9557,-3.8802,-3.8003,-3.7347,0.0,0.0,-3.5672,-3.5627,-3.56,-3.56,-3.5644,-3.5672,-3.5622,-3.565,-3.581,-3.6159,-3.5379,-3.4359,-3.5144,-3.4673,-3.3807,-3.3807,-3.3807,-3.3721,-3.3361,-3.3258,-3.3258,-3.3258,-3.2952,-3.2277,-3.0856,-3.098,-3.0775,-2.85,-2.8237,-2.8246,-2.7527,-2.7378,-2.7241,-2.6873,-2.6707,-2.655,-2.6251,-2.5481,-2.4715,-2.4062,-2.353,-2.2989,-2.2443,-2.292,-2.3403,-2.3682,-2.3724,-2.384,-2.4088,-2.3391,-2.3281,-2.3951,-2.329,-2.2896,-2.2896,-2.2896,-2.2896,-2.2896,-2.2896,-2.2896,-2.2914,-2.3639,-2.3208,-3.696,-3.7382,-3.7092,-3.645,-3.412,-3.097,-2.7111,0.0,-2.1519,-1.8797,-1.8003,-1.7884,-1.8172,-1.9138,-2.0725,-2.3339,-2.5135,-2.7907,0.0,0.0,0.0,0.0,0.0,0.0,0.0,0.0,0.0,0.0,0.0,0.0,0.0,-4.0096,-4.0096,-4.0096,-4.0311,-4.0311,-4.0096,-4.0311,-4.0311,-4.0096,-4.0096,-4.0096,-4.0079,-3.9351,-3.8599,-3.7872,-3.7134,0.0,0.0,-3.56,-3.56,-3.56,-3.56,-3.56,-3.56,-3.56,-3.56,-3.5644,-3.5832,-3.5118,-3.4146,-3.4528,-3.3911,-3.3072,-3.3346,-3.324,-3.2981,-3.2825,-3.2777,-3.2777,-3.2777,-3.2632,-3.2218,-3.1122,-3.0764,-3.0281,-2.8876,-2.833,-2.795,-2.7394,-2.7303,-2.7178,-2.6775,-2.6691,-2.6739,-2.6813,-2.5622,-2.4687,-2.4635,-2.3473,-2.2575,-2.2338,-2.2849,-2.3165,-2.3105,-2.3271,-2.3544,-2.3886,-2.3606,-2.3658,-2.419,-2.3896,-2.3731,-2.3731,-2.3731,-2.3731,-2.3731,-2.3731,-2.3731,-2.3731,-2.4043,-2.3859,-3.5656,-3.6156,-3.5862,-3.5624,-3.336,-3.0184,0.0,0.0,-2.1177,-1.8374,-1.78,-1.78,-1.78,-1.842,-1.9537,-2.1388,-2.3003,-2.5646,-3.0283,0.0,0.0,0.0,0.0,0.0,0.0,0.0,0.0,0.0,0.0,0.0,0.0,-4.0096,-4.0096,-4.0096,-4.0096,-4.0096,-4.0096,-4.0096,-4.0096,-4.0096,-4.0096,-3.9994,-3.9757,-3.9005,-3.8261,-3.7533,0.0,0.0,0.0,-3.56,-3.56,-3.56,-3.56,-3.56,-3.56,-3.56,-3.56,-3.56,-3.56,-3.484,-3.3925,-3.4047,-3.32,-3.2196,-3.2648,-3.2648,-3.2467,-3.2333,-3.2281,-3.2265,-3.2162,-3.2299,-3.224,-3.1182,-3.0558,-2.9909,-2.8872,-2.8163,-2.7604,-2.721,-2.7131,-2.7035,-2.6758,-2.6691,-2.6808,-2.7083,-2.5799,-2.4853,-2.491,-2.3579,-2.2533,-2.2313,-2.2686,-2.2865,-2.2708,-2.2923,-2.3189,-2.3533,-2.3555,-2.366,-2.3896,-2.3907,-2.3947,-2.4054,-2.4046,-2.4094,-2.419,-2.419,-2.419,-2.419,-2.419,-2.419,-3.3403,-3.4399,-3.4821,-3.4027,-3.2093,-2.9397,0.0,-2.2857,-2.0564,-1.8268,-1.78,-1.78,-1.78,-1.78,-1.866,-2.1282,-2.3324,-2.6086,-3.0396,0.0,0.0,0.0,0.0,0.0,0.0,0.0,0.0,0.0,0.0,0.0,0.0,-4.0096,-4.0096,-4.0096,-4.0096,-4.0096,-4.0096,-4.0096,-4.0096,-4.0096,-4.0096,-3.9723,-3.8988,-3.8261,-3.7499,0.0,0.0,0.0,0.0,-3.56,-3.56,-3.56,-3.56,-3.56,-3.56,-3.56,-3.56,-3.56,-3.56,-3.4641,-3.3473,-3.3948,-3.2777,-3.1291,-3.1696,-3.2144,-3.2401,-3.1933,-3.1807,-3.1715,-3.1329,-3.186,-3.2106,-3.0488,-3.0162,-2.9753,-2.8169,-2.7551,-2.7194,-2.6774,-2.6708,-2.6708,-2.6691,-2.6691,-2.6691,-2.6708,-2.6065,-2.5321,-2.4592,-2.3848,-2.3105,-2.2381,-2.231,-2.2429,-2.2669,-2.2708,-2.286,-2.3177,-2.32,-2.32,-2.32,-2.32,-2.3369,-2.3692,-2.3703,-2.3876,-2.419,-2.419,-2.419,-2.419,-2.419,-2.419,-2.9886,-3.0173,-2.9733,-2.949,-2.8134,-2.611,-2.3316,-2.1917,-2.0547,-1.8268,-1.78,-1.78,-1.78,-1.78,-1.8743,-2.1638,-2.2782,0.0,0.0,0.0,0.0,0.0,0.0,0.0,0.0,0.0,0.0,0.0,0.0,0.0,0.0,-4.0096,-4.0096,-4.0096,-4.0096,-4.0096,-4.0096,-4.0096,-4.0096,-4.0096,-3.9605,-3.9249,-3.8954,-3.7702,0.0,0.0,0.0,0.0,0.0,-3.56,-3.56,-3.56,-3.56,-3.56,-3.56,-3.56,-3.56,-3.56,-3.56,-3.4957,-3.4087,-3.3747,-3.2873,-3.1873,-3.1504,-3.1487,-3.1581,-3.143,-3.1389,-3.1351,-3.123,-3.1408,-3.1475,-3.0963,-3.0096,-2.923,-2.8725,-2.7708,-2.6841,-2.6725,-2.6691,-2.6691,-2.6691,-2.6691,-2.6691,-2.6691,-2.6065,-2.5524,-2.5287,-2.4171,-2.3308,-2.3071,-2.2598,-2.2335,-2.2426,-2.2426,-2.2554,-2.2835,-2.286,-2.296,-2.3189,-2.32,-2.3247,-2.3357,-2.3357,-2.3533,-2.3865,-2.3865,-2.3986,-2.419,-2.419,-2.419,0.0,-2.6926,-2.6469,-2.6369,-2.5344,-2.3816,-2.1802,-2.0818,-1.9853,-1.8149,-1.78,-1.78,-1.78,-1.78,-1.8594,-2.1045,-2.2172,0.0,0.0,0.0,0.0,0.0,0.0,0.0,0.0,0.0,0.0,0.0,0.0,0.0,0.0,0.0,-4.0096,-4.0096,-4.0096,-4.0096,-4.0096,-4.0096,-3.996,-3.969,-3.9208,-3.87,-3.8149,-3.7218,0.0,0.0,0.0,0.0,0.0,-3.56,-3.56,-3.56,-3.56,-3.56,-3.56,-3.56,-3.56,-3.56,-3.56,-3.5131,-3.437,-3.3643,-3.2713,-3.1802,-3.1326,-3.119,-3.119,-3.119,-3.119,-3.119,-3.119,-3.119,-3.119,-3.119,-3.0277,-2.933,-2.9061,-2.8011,-2.7029,-2.6742,-2.6691,-2.6691,-2.6691,-2.6691,-2.6691,-2.6691,-2.6302,-2.5913,-2.5642,-2.4797,-2.4019,-2.346,-2.2987,-2.2598,-2.2313,-2.2296,-2.2374,-2.2537,-2.255,-2.2643,-2.2845,-2.2857,-2.292,-2.3009,-2.3009,-2.3177,-2.3511,-2.3511,-2.3682,-2.4006,-2.4006,-2.4084,0.0,-2.434,-2.4529,-2.4212,-2.3364,-2.222,-2.0738,-1.9619,0.0,-1.7952,-1.78,-1.7834,-1.7935,-1.7918,-1.8425,-2.012,-2.1902,0.0,0.0,0.0,0.0,0.0,0.0,0.0,0.0,0.0,0.0,0.0,0.0,0.0,0.0,0.0,-4.0096,-4.0096,-4.0096,-4.0096,-4.0096,-4.0045,-3.969,-3.8988,-3.8886,-3.8132,-3.6795,-3.6745,0.0,0.0,0.0,0.0,0.0,-3.56,-3.56,-3.56,-3.56,-3.56,-3.56,-3.56,-3.56,-3.56,-3.56,-3.5165,-3.4438,-3.366,-3.2442,-3.1258,-3.1207,-3.119,-3.119,-3.119,-3.119,-3.119,-3.119,-3.119,-3.119,-3.119,-3.0632,-2.9905,-2.9162,-2.8366,-2.757,-2.6843,-2.6691,-2.6691,-2.6691,-2.6691,-2.6691,-2.6691,-2.6691,-2.6454,-2.5778,-2.5626,-2.5084,-2.3697,-2.3511,-2.3173,-2.2431,-2.233,-2.2296,-2.2296,-2.2296,-2.2296,-2.2296,-2.2296,-2.2412,-2.2673,-2.2682,-2.286,-2.3165,-2.3189,-2.3357,-2.3671,-2.3671,-2.3827,-1.924,0.0,-2.0554,-1.986,-1.9763,-1.9599,0.0,-1.8693,-1.8691,-1.7952,-1.78,-1.8138,-1.9258,-1.9017,-1.9875,-2.3665,-2.4967,0.0,0.0,0.0,0.0,0.0,0.0,0.0,0.0,0.0,0.0,0.0,0.0,0.0,0.0,0.0,-4.0096,-4.0096,-4.0096,-4.0096,-4.0096,-3.9554,-3.9157,-3.8988,-3.7862,-3.7151,-3.6778,-3.6163,0.0,0.0,0.0,0.0,-3.56,-3.56,-3.56,-3.56,-3.56,-3.56,-3.56,-3.56,-3.56,-3.56,-3.56,-3.5481,-3.5126,-3.3829,-3.278,-3.1938,-3.136,-3.119,-3.119,-3.119,-3.119,-3.119,-3.119,-3.119,-3.119,-3.119,-3.0632,-2.9905,-2.9162,-2.8366,-2.757,-2.6843,-2.6691,-2.6691,-2.6691,-2.6691,-2.6691,-2.6691,-2.6691,-2.664,-2.6454,-2.5947,-2.5473,-2.5135,-2.4592,-2.3949,-2.319,-2.2617,-2.2296,-2.2296,-2.2296,-2.2296,-2.2296,-2.2296,-2.2321,-2.2385,-2.2599,-2.2746,-2.2822,-2.3081,-2.3236,-2.3323,-2.3323,-2.3357,-1.7845,-1.8802,-1.9716,-1.9178,-1.9221,-1.9287,-1.8899,-1.8594,-1.8285,0.0,0.0,-1.8155,-1.9287,-1.9439,-2.0538,-2.4036,0.0,0.0,0.0,0.0,0.0,0.0,0.0,0.0,0.0,0.0,0.0,0.0,0.0,0.0,0.0,0.0,-3.9943,-3.9622,-3.9605,-3.9757,-4.0096,-3.9385,-3.8819,-3.8481,-3.7354,-3.6609,-3.6231,-3.5785,-3.56,0.0,0.0,0.0,-3.56,-3.56,-3.56,-3.56,-3.56,-3.56,-3.56,-3.56,-3.56,-3.56,-3.56,-3.538,-3.4912,-3.3778,-3.2899,-3.2158,-3.141,-3.119,-3.119,-3.119,-3.119,-3.119,-3.119,-3.119,-3.119,-3.119,-3.0903,-3.0395,-2.9651,-2.9161,-2.8517,-2.7435,-2.7199,-2.7097,-2.6759,-2.6691,-2.6691,-2.6691,-2.6691,-2.6691,-2.6691,-2.6353,-2.5981,-2.5642,-2.5236,-2.4695,-2.3966,-2.3224,-2.2651,-2.2313,-2.2296,-2.2296,-2.2296,-2.2296,-2.2296,-2.2296,-2.2436,-2.2527,-2.2527,-2.2695,-2.2857,-2.2972,-2.3345,-2.3596,-1.7946,-1.9297,-2.0563,-2.0037,-2.0073,-2.0208,-2.0107,0.0,0.0,0.0,0.0,0.0,0.0,-2.0099,0.0,0.0,0.0,0.0,0.0,0.0,0.0,0.0,0.0,0.0,0.0,0.0,0.0,0.0,0.0,0.0,0.0,0.0,0.0,-3.9005,-3.8988,-3.9266,-3.9757,-3.9022,-3.8345,-3.7719,-3.6958,-3.6265,-3.56,-3.56,-3.56,0.0,0.0,0.0,-3.56,-3.56,-3.56,-3.56,-3.56,-3.56,-3.56,-3.56,-3.56,-3.56,-3.56,-3.5199,-3.4523,-3.3677,-3.2983,-3.231,-3.1464,-3.119,-3.119,-3.119,-3.119,-3.119,-3.119,-3.119,-3.119,-3.119,-3.119,-3.1004,-3.026,-3.0108,-2.9632,-2.8094,-2.7807,-2.757,-2.6826,-2.6691,-2.6691,-2.6691,-2.6691,-2.6691,-2.6691,-2.6691,-2.6454,-2.5845,-2.5778,-2.5473,-2.4728,-2.4101,-2.3376,-2.2516,-2.2347,-2.2296,-2.2296,-2.2296,-2.2296,-2.2296,-2.2296,-2.2296,-2.2296,-2.2296,-2.2463,-2.2824,-2.3519,-2.4014,-1.8555,-2.034,-2.1602,-1.9912,-2.0425,-2.1179,-2.0569,-2.0241,0.0,0.0,0.0,0.0,0.0,0.0,0.0,0.0,0.0,0.0,0.0,0.0,0.0,0.0,0.0,0.0,0.0,0.0,0.0,0.0,0.0,0.0,0.0,0.0,0.0,-3.9005,-3.8988,-3.8751,-3.8244,-3.7499,-3.7083,-3.6965,-3.6163,-3.5718,-3.56,-3.56,-3.56,0.0,0.0,-3.56,-3.56,-3.56,-3.56,-3.56,-3.56,-3.56,-3.56,-3.56,-3.56,-3.56,-3.56,-3.5515,-3.5194,-3.3846,-3.3322,-3.2983,-3.1613,-3.119,-3.119,-3.119,-3.119,-3.119,-3.119,-3.119,-3.119,-3.119,-3.119,-3.1004,-3.026,-3.0108,-2.9632,-2.8094,-2.7807,-2.757,-2.6826,-2.6691,-2.6691,-2.6691,-2.6691,-2.6691,-2.6691,-2.6691,-2.6657,-2.6539,-2.6522,-2.6234,-2.549,-2.5338,-2.4678,-2.3325,-2.2649,-2.2296,-2.2296,-2.2296,-2.2296,-2.2296,-2.2296,-2.2296,-2.2296,-2.2296,-2.2643,-2.3294,-2.3413,-2.3833,-1.7619,-1.9058,-2.0488,-2.0569,-2.2052,-2.3458,-2.329,-2.2473,0.0,0.0,0.0,0.0,0.0,0.0,0.0,0.0,0.0,0.0,0.0,0.0,0.0,0.0,0.0,0.0,0.0,0.0,0.0,0.0,0.0,0.0,0.0,0.0,0.0,0.0,-3.7828,-3.7432,-3.6648,-3.6332,-3.6366,-3.6795,-3.5994,-3.56,-3.56,-3.56,-3.56,-3.56,0.0,-3.56,-3.56,-3.56,-3.56,-3.56,-3.56,-3.56,-3.56,-3.56,-3.56,-3.56,-3.56,-3.56,-3.5414,-3.4353,-3.3728,-3.3203,-3.2124,-3.1532,-3.119,-3.119,-3.119,-3.119,-3.119,-3.119,-3.119,-3.119,-3.119,-3.1106,-3.0768,-3.0683,-3.026,-2.8738,-2.845,-2.8078,-2.6894,-2.6691,-2.6691,-2.6691,-2.6691,-2.6691,-2.6691,-2.6691,-2.6691,-2.6691,-2.6691,-2.6556,-2.6218,-2.5828,-2.5135,-2.4068,-2.3291,-2.3071,-2.346,-2.3477,-2.3477,-2.3477,-2.3477,-2.3477,-2.3477,-2.3477,-2.3661,-2.4,-2.4391,-2.4763,-1.7111,-1.8042,-1.9437,-2.1687,-2.3458,-2.4878,-2.5698,-2.4742,-2.3733,0.0,0.0,0.0,0.0,0.0,0.0,0.0,0.0,0.0,0.0,0.0,0.0,0.0,0.0,0.0,0.0,0.0,0.0,0.0,0.0,0.0,0.0,0.0,0.0,0.0,-3.6795,-3.64,-3.56,-3.56,-3.591,-3.6502,-3.5887,-3.56,-3.56,-3.56,-3.56,-3.56,-3.56,-3.56,-3.56,-3.56,-3.56,-3.56,-3.56,-3.56,-3.56,-3.56,-3.56,-3.56,-3.56,-3.56,-3.5481,-3.4742,-3.3998,-3.3271,-3.253,-3.1785,-3.119,-3.119,-3.119,-3.119,-3.119,-3.119,-3.119,-3.119,-3.119,-3.119,-3.119,-3.119,-3.0801,-2.9517,-2.9128,-2.857,-2.7199,-2.681,-2.6691,-2.6691,-2.6691,-2.6691,-2.6691,-2.6691,-2.6691,-2.6691,-2.6691,-2.6691,-2.6691,-2.6031,-2.5439,-2.5032,-2.4169,-2.3915,-2.4474,-2.4491,-2.4491,-2.4491,-2.4491,-2.4491,-2.4491,-2.4491,-2.4592,-2.4778,-2.5338,-2.5693,-1.8381,-1.8821,-1.9747,-2.3309,-2.3761,-2.3938,-2.6189,-2.6519,0.0,-2.6969,0.0,0.0,0.0,0.0,0.0,0.0,0.0,0.0,0.0,0.0,0.0,0.0,0.0,0.0,0.0,0.0,0.0,0.0,0.0,0.0,0.0,0.0,0.0,0.0,0.0,-3.64,-3.56,-3.56,-3.5616,-3.5684,-3.5616,-3.56,-3.56,-3.56,-3.56,-3.56,-3.56,-3.56,-3.56,-3.56,-3.56,-3.56,-3.56,-3.56,-3.56,-3.56,-3.56,-3.56,-3.56,-3.56,-3.5481,-3.4742,-3.3998,-3.3271,-3.253,-3.1785,-3.119,-3.119,-3.119,-3.119,-3.119,-3.119,-3.119,-3.119,-3.119,-3.119,-3.119,-3.119,-3.097,-3.0176,-2.9465,-2.8739,-2.7858,-2.7165,-2.6691,-2.6691,-2.6691,-2.6691,-2.6691,-2.6691,-2.6691,-2.6691,-2.6691,-2.6691,-2.6691,-2.6031,-2.5879,-2.6505,-2.5218,-2.444,-2.4491,-2.4491,-2.4491,-2.4491,-2.4491,-2.4491,-2.4491,-2.4491,-2.4846,-2.5524,-2.5592,-2.5981,-1.6705,-1.7845,-1.9512,-2.2087,-2.3877,0.0,0.0,-2.885,-2.9125,-3.0311,-3.0213,0.0,0.0,0.0,0.0,0.0,0.0,0.0,0.0,0.0,0.0,0.0,0.0,0.0,0.0,0.0,0.0,0.0,0.0,0.0,0.0,0.0,0.0,0.0,-3.6062,-3.591,-3.56,-3.56,-3.56,-3.56,-3.56,-3.56,-3.56,-3.56,-3.56,-3.56,-3.56,-3.56,-3.56,-3.56,-3.56,-3.56,-3.56,-3.56,-3.56,-3.56,-3.56,-3.56,-3.56,-3.56,-3.5549,-3.5261,-3.4366,-3.3355,-3.3068,-3.2138,-3.119,-3.119,-3.119,-3.119,-3.119,-3.119,-3.119,-3.119,-3.119,-3.119,-3.119,-3.119,-3.097,-3.0243,-2.9871,-2.9431,-2.867,-2.7909,-2.7384,-2.7384,-2.6996,-2.6691,-2.6691,-2.6691,-2.6691,-2.6691,-2.6691,-2.6691,-2.6691,-2.6437,-2.6404,-2.6674,-2.5744,-2.5389,-2.5862,-2.5879,-2.5879,-2.5879,-2.5879,-2.5879,-2.5879,-2.5879,-2.5998,-2.6285,-2.6285,-2.642,-1.6289,-1.7574,-1.9459,-2.1816,0.0,0.0,-3.0358,-3.0871,-3.1058,-3.2669,-3.2229,0.0,0.0,0.0,0.0,0.0,0.0,0.0,0.0,0.0,0.0,0.0,0.0,0.0,0.0,0.0,0.0,0.0,0.0,0.0,0.0,0.0,0.0,0.0,-3.56,-3.56,-3.56,-3.56,-3.56,-3.56,-3.56,-3.56,-3.56,-3.5385,-3.5385,-3.56,-3.5385,-3.5407,-3.56,-3.56,-3.56,-3.56,-3.56,-3.56,-3.56,-3.56,-3.56,-3.56,-3.56,-3.56,-3.56,-3.56,-3.4585,-3.3406,-3.3406,-3.2374,-3.119,-3.119,-3.119,-3.119,-3.119,-3.119,-3.119,-3.119,-3.119,-3.119,-3.119,-3.119,-3.1055,-3.0548,-3.026,-2.9939,-2.9431,-2.8704,-2.8094,-2.7841,-2.7367,-2.6962,-2.6725,-2.6691,-2.6691,-2.6691,-2.6691,-2.6691,-2.6691,-2.6691,-2.6691,-2.6691,-2.6234,-2.6167,-2.6674,-2.6691,-2.6691,-2.6691,-2.6691,-2.6691,-2.6691,-2.6691,-2.6691,-2.6691,-2.6691,-2.6691,-1.7783,-1.8352,-1.9736,-2.307,0.0,0.0,-3.2057,-3.2436,-3.2178,-3.3773,0.0,-3.2547,0.0,0.0,0.0,0.0,0.0,0.0,0.0,0.0,0.0,0.0,0.0,0.0,0.0,0.0,0.0,0.0,0.0,0.0,0.0,0.0,0.0,0.0,-3.56,-3.56,-3.56,-3.56,-3.56,-3.56,-3.5577,-3.56,-3.5577,-3.4918,-3.4965,-3.5538,-3.4894,-3.4965,-3.56,-3.56,-3.56,-3.56,-3.56,-3.56,-3.56,-3.56,-3.56,-3.56,-3.56,-3.56,-3.56,-3.56,-3.4585,-3.3406,-3.3406,-3.2374,-3.119,-3.119,-3.119,-3.119,-3.119,-3.119,-3.119,-3.119,-3.119,-3.119,-3.119,-3.119,-3.119,-3.119,-3.0615,-3.0106,-3.0106,-2.9499,-2.8756,-2.7942,-2.7824,-2.7536,-2.6793,-2.6691,-2.6691,-2.6691,-2.6691,-2.6691,-2.6691,-2.6691,-2.6691,-2.6691,-2.6691,-2.6691,-2.6691,-2.6691,-2.6691,-2.6691,-2.6691,-2.6691,-2.6691,-2.6691,-2.6691,-2.6691,-2.6691,-2.6691,-1.7179,-1.9113,0.0,-2.3521,0.0,0.0,0.0,-3.2984,0.0,0.0,0.0,0.0,0.0,0.0,0.0,0.0,0.0,0.0,0.0,0.0,0.0,0.0,0.0,0.0,0.0,0.0,0.0,0.0,0.0,0.0,0.0,0.0,0.0,0.0,-3.56,-3.56,-3.56,-3.5121,-3.4894,-3.4894,-3.4423,-3.4681,-3.5577,-3.4918,-3.4712,-3.4894,-3.4688,-3.4712,-3.4894,-3.4894,-3.5184,-3.5509,-3.456,-3.4776,-3.5538,-3.5075,-3.5207,-3.56,-3.56,-3.56,-3.56,-3.56,-3.4585,-3.3406,-3.3406,-3.2374,-3.119,-3.119,-3.119,-3.1095,-3.0679,-3.0559,-3.0679,-3.1112,-3.119,-3.119,-3.119,-3.119,-3.119,-3.119,-3.1021,-3.0869,-3.0869,-3.026,-2.9702,-2.9447,-2.8483,-2.7536,-2.6793,-2.6691,-2.6691,-2.6691,-2.6691,-2.6691,-2.6691,-2.6691,-2.6573,-2.6227,-2.6521,-2.6691,-2.6691,-2.6691,-2.6691,-2.6691,-2.6691,-2.6691,-2.6691,-2.6691,-2.6691,-2.6691,-2.6691,-2.6691,-1.8448,-2.0784,0.0,-2.5527,-2.8511,-3.1507,-3.3369,0.0,0.0,0.0,0.0,0.0,0.0,0.0,0.0,0.0,0.0,0.0,0.0,0.0,0.0,0.0,0.0,0.0,0.0,0.0,0.0,0.0,0.0,0.0,0.0,0.0,0.0,0.0,-3.56,-3.56,-3.56,-3.4941,-3.46,-3.4576,-3.3912,-3.4012,-3.4776,-3.4112,-3.3962,-3.4211,-3.4479,-3.4455,-3.4235,-3.4479,-3.4688,-3.4728,-3.3912,-3.4276,-3.5144,-3.4759,-3.5028,-3.56,-3.56,-3.56,-3.56,-3.56,-3.4437,-3.3053,-3.3053,-3.1829,-3.0477,-3.0477,-3.0477,-3.0414,-3.0038,-2.9935,-3.0102,-3.0699,-3.0838,-3.0838,-3.0838,-3.1035,-3.1131,-3.0878,-3.1035,-3.119,-3.119,-3.0835,-3.0446,-3.0142,-2.9059,-2.801,-2.7249,-2.7148,-2.7029,-2.6725,-2.6691,-2.6691,-2.6691,-2.6539,-2.6297,-2.6031,-2.6068,-2.6105,-2.6105,-2.6487,-2.6691,-2.6691,-2.6691,-2.6691,-2.6691,-2.6691,-2.6691,-2.6691,-2.6691,-2.6691,-2.0699,0.0,0.0,-2.8248,-3.0035,0.0,-3.4616,0.0,0.0,0.0,0.0,0.0,0.0,0.0,0.0,0.0,0.0,0.0,0.0,0.0,0.0,0.0,0.0,0.0,0.0,0.0,0.0,0.0,0.0,0.0,0.0,0.0,0.0,0.0,-3.56,-3.56,-3.56,-3.4871,-3.4503,0.0,-3.3761,-3.3401,-3.3375,-3.2841,-3.2933,-3.3531,-3.4161,-3.4112,-3.3633,-3.4186,-3.4087,-3.3582,-3.3453,-3.3862,-3.4503,-3.4503,-3.4918,-3.5515,-3.5577,-3.5577,-3.5515,-3.5515,-3.414,-3.2488,-3.2422,-3.104,-2.9486,-2.9422,-2.9406,-2.9384,-2.9339,-2.9316,-2.9451,-3.0016,-3.0187,-3.0208,-3.0208,-3.0658,-3.0878,-3.0314,-3.0658,-3.1035,-3.1035,-3.1035,-3.0799,-3.0039,-2.9406,-2.8734,-2.7922,-2.7873,-2.7621,-2.6877,-2.6793,-2.6776,-2.6725,-2.6262,-2.5995,-2.5924,-2.5468,-2.5182,-2.5125,-2.6052,-2.659,-2.6641,-2.659,-2.659,-2.6641,-2.6641,-2.6641,-2.6641,-2.6674,-2.6691,-2.0014,-2.2327,0.0,0.0,-3.1356,-3.3998,0.0,0.0,0.0,0.0,0.0,0.0,0.0,0.0,0.0,0.0,0.0,0.0,0.0,0.0,0.0,0.0,0.0,0.0,0.0,0.0,0.0,0.0,0.0,0.0,0.0,0.0,0.0,-3.56,-3.56,-3.56,-3.56,-3.4423,-3.3811,0.0,-3.2555,-3.1936,-3.1979,-3.2394,-3.2668,-3.2815,-3.2975,-3.3235,-3.3556,-3.3198,-3.3277,-3.3479,-3.2379,-3.2718,-3.3811,-3.3811,-3.4235,-3.4894,-3.5424,-3.5253,-3.4823,-3.4823,-3.3761,-3.2393,-3.1862,-3.1012,-3.0064,-2.9544,-2.9406,-2.9293,-2.8826,-2.8685,-2.8732,-2.885,-2.9248,-2.9585,-2.9585,-2.9695,-2.9739,-2.9629,-2.9695,-2.9783,-2.9783,-2.9783,-2.954,-2.8806,-2.8972,-2.8887,-2.8139,-2.8448,-2.8433,-2.7638,-2.7553,-2.7317,-2.6742,-2.6262,-2.5815,-2.5392,-2.5259,-2.5012,-2.4592,-2.5186,-2.5709,-2.6139,-2.5744,-2.5728,-2.6156,-2.6156,-2.6156,-2.6156,-2.6539,-2.6691,-2.0504,0.0,0.0,-3.0091,0.0,0.0,0.0,0.0,0.0,0.0,0.0,0.0,0.0,0.0,0.0,0.0,0.0,0.0,0.0,0.0,0.0,0.0,0.0,0.0,0.0,0.0,0.0,0.0,0.0,0.0,0.0,-3.56,-3.56,-3.56,-3.56,-3.56,-3.56,-3.4276,-3.3582,-3.3582,-3.2173,-3.1511,-3.1496,-3.191,-3.2064,-3.2092,-3.2465,-3.2614,-3.2583,-3.2614,-3.2598,-3.2501,-3.1796,-3.216,-3.3119,-3.3119,-3.3547,-3.4161,-3.452,-3.4423,-3.4112,-3.4112,-3.3194,-3.1943,-3.1268,-3.0353,-2.9403,-2.8729,-2.8543,-2.8549,-2.8553,-2.8326,-2.8158,-2.8469,-2.8768,-2.8966,-2.8966,-2.9203,-2.9316,-2.9035,-2.9203,-2.9406,-2.9406,-2.9406,-2.9256,-2.8888,-2.9087,-2.9036,-2.8281,-2.8485,-2.8366,-2.7602,-2.752,-2.7224,-2.6519,-2.6309,-2.5799,-2.4863,-2.4864,-2.4642,-2.4048,-2.4302,-2.4812,-2.5596,-2.5335,-2.5335,-2.5615,-2.5615,-2.5615,-2.5633,-2.6122,-2.6367,-2.0619,0.0,-2.6945,-3.1816,-3.3761,0.0,0.0,0.0,0.0,0.0,0.0,0.0,0.0,0.0,0.0,0.0,0.0,0.0,0.0,0.0,0.0,0.0,0.0,0.0,0.0,0.0,0.0,0.0,0.0,0.0,-3.56,-3.56,-3.56,-3.56,-3.56,-3.56,-3.56,-3.4276,-3.3582,-3.3582,-3.2173,-3.1451,-3.1331,-3.1451,-3.1511,-3.1524,-3.2148,-3.2064,-3.1568,-3.2176,-3.2064,-3.1511,-3.1511,-3.1881,-3.2437,-3.2559,-3.2933,-3.3427,-3.3556,-3.3505,-3.3443,-3.3443,-3.261,-3.1466,-3.0783,-2.9798,-2.8771,-2.8004,-2.7779,-2.7884,-2.8308,-2.8019,-2.775,-2.8293,-2.8394,-2.8343,-2.8343,-2.8732,-2.895,-2.8439,-2.8756,-2.9088,-2.9088,-2.9088,-2.9088,-2.9088,-2.918,-2.9003,-2.8408,-2.8439,-2.8211,-2.7461,-2.7381,-2.711,-2.6429,-2.6401,-2.5942,-2.4823,-2.4758,-2.447,-2.3804,-2.3774,-2.4133,-2.491,-2.4914,-2.4969,-2.5067,-2.5067,-2.5067,-2.507,-2.5615,-2.587,-1.7918,0.0,-2.7351,0.0,-3.3,0.0,0.0,0.0,0.0,0.0,0.0,0.0,0.0,0.0,0.0,0.0,0.0,0.0,0.0,0.0,0.0,0.0,0.0,0.0,0.0,0.0,0.0,0.0,0.0,0.0,-3.56,-3.56,-3.56,-3.56,-3.56,-3.56,-3.56,-3.4276,-3.3582,-3.3582,-3.2173,-3.1197,-3.0657,-3.1241,-3.1511,-3.1511,-3.1611,-3.1582,-3.1511,-3.1611,-3.1582,-3.1511,-3.1511,-3.1553,-3.171,-3.2355,-3.2641,-3.2815,-3.3391,-3.3209,-3.2749,-3.2749,-3.2182,-3.1369,-3.0706,-3.0396,-2.9998,-2.8801,-2.8472,-2.8353,-2.7869,-2.766,-2.7615,-2.7705,-2.7735,-2.771,-2.771,-2.7785,-2.7835,-2.7735,-2.7785,-2.7845,-2.7845,-2.7845,-2.7845,-2.7845,-2.8295,-2.8583,-2.8482,-2.8923,-2.8968,-2.8243,-2.8163,-2.787,-2.7142,-2.6667,-2.6322,-2.6136,-2.5705,-2.5158,-2.4485,-2.447,-2.4274,-2.3831,-2.3815,-2.4032,-2.4511,-2.4511,-2.4511,-2.4532,-2.5067,-2.5316,-1.9314,-2.2835,-2.6403,0.0,0.0,0.0,0.0,0.0,0.0,0.0,0.0,0.0,0.0,0.0,0.0,0.0,0.0,0.0,0.0,0.0,0.0,0.0,0.0,0.0,0.0,0.0,0.0,0.0,0.0,-3.56,-3.56,-3.56,-3.56,-3.56,-3.56,-3.5397,-3.4996,-3.3696,-3.2485,-3.1361,-3.1069,-3.0612,-2.9998,-3.0298,-3.0808,-3.1511,-3.1511,-3.1511,-3.1511,-3.1511,-3.1511,-3.1511,-3.1511,-3.1511,-3.1539,-3.1866,-3.1979,-3.2035,-3.2324,-3.2228,-3.1979,-3.1979,-3.1768,-3.1376,-3.0717,-3.0507,-3.0313,-2.94,-2.9146,-2.916,-2.9205,-2.8708,-2.8274,-2.8633,-2.8139,-2.76,-2.76,-2.76,-2.76,-2.76,-2.76,-2.76,-2.76,-2.76,-2.76,-2.76,-2.7835,-2.7993,-2.7993,-2.8222,-2.8268,-2.7936,-2.7905,-2.7627,-2.6919,-2.6977,-2.6745,-2.6001,-2.6086,-2.5869,-2.5187,-2.4799,-2.447,-2.4156,-2.3789,-2.3724,-2.3948,-2.3948,-2.3948,-2.3948,-2.4511,-2.4752,-1.9829,-2.2226,-2.4389,-2.8704,0.0,0.0,0.0,0.0,0.0,0.0,0.0,0.0,0.0,0.0,0.0,0.0,0.0,0.0,0.0,0.0,0.0,0.0,0.0,0.0,0.0,0.0,0.0,0.0,0.0,-3.56,-3.56,-3.56,-3.5515,-3.5329,-3.5312,-3.4896,-3.4006,-3.2731,-3.1175,-2.9367,-3.0133,-3.0088,-2.934,-2.9669,-3.0253,-3.1017,-3.1017,-3.1092,-3.1227,-3.1077,-3.1212,-3.1481,-3.1316,-3.1346,-3.1511,-3.1511,-3.1511,-3.1511,-3.1511,-3.1511,-3.1511,-3.1511,-3.1511,-3.1406,-3.0898,-3.0761,-3.0627,-2.9998,-2.9846,-2.9906,-3.0193,-2.9564,-2.8966,-2.9487,-2.8723,-2.7809,-2.763,-2.76,-2.76,-2.76,-2.76,-2.76,-2.76,-2.76,-2.76,-2.76,-2.76,-2.76,-2.76,-2.76,-2.76,-2.76,-2.76,-2.7405,-2.6911,-2.7315,-2.718,-2.6168,-2.6572,-2.6542,-2.5884,-2.5367,-2.5023,-2.4859,-2.4373,-2.3939,-2.3595,-2.3595,-2.3595,-2.3595,-2.4012,-2.4199,-1.7137,-1.9118,0.0,-2.4933,0.0,0.0,0.0,0.0,0.0,0.0,0.0,0.0,0.0,0.0,0.0,0.0,0.0,0.0,0.0,0.0,0.0,0.0,0.0,0.0,0.0,0.0,0.0,0.0,0.0,-3.56,-3.56,-3.56,-3.5278,-3.4573,-3.4556,-3.3928,-3.2607,-3.134,-3.0007,-2.8667,-2.9909,-2.9849,-2.8697,-2.9894,-3.0178,-2.9711,-2.9711,-3.0013,-3.0507,-2.9924,-3.0417,-3.1436,-3.0806,-3.0928,-3.1511,-3.1511,-3.1511,-3.1511,-3.1511,-3.1511,-3.1511,-3.1511,-3.1511,-3.1496,-3.1466,-3.1451,-3.1316,-3.0657,-3.0447,-3.0328,-2.9774,-2.9606,-2.9577,-2.9592,-2.9056,-2.8368,-2.7735,-2.76,-2.76,-2.76,-2.76,-2.76,-2.76,-2.76,-2.76,-2.76,-2.76,-2.76,-2.76,-2.76,-2.76,-2.76,-2.76,-2.7585,-2.754,-2.757,-2.757,-2.7495,-2.7525,-2.7255,-2.6572,-2.6497,-2.6198,-2.557,-2.5501,-2.4881,-2.3595,-2.3595,-2.3595,-2.3595,-2.3638,-2.3638,-1.5999,-1.7593,0.0,0.0,0.0,0.0,0.0,0.0,0.0,0.0,0.0,0.0,0.0,0.0,0.0,0.0,0.0,0.0,0.0,0.0,0.0,0.0,0.0,0.0,0.0,0.0,0.0,0.0,0.0,0.0,-3.56,-3.5165,-3.4605,-3.3951,-3.3456,-3.2377,-3.0648,-3.0132,-2.924,-2.7974,-2.9307,-2.922,-2.8004,-2.8876,-2.916,-2.8951,-2.8951,-2.931,-2.9924,-3.0103,-3.0447,-3.0896,-3.1062,-3.1286,-3.1511,-3.1511,-3.1511,-3.1511,-3.1511,-3.1511,-3.1511,-3.1511,-3.1511,-3.1511,-3.1511,-3.1511,-3.1451,-3.1212,-3.1137,-3.1077,-3.0896,-3.0507,-2.9968,-2.9146,-2.8771,-2.8412,-2.775,-2.76,-2.76,-2.76,-2.76,-2.76,-2.76,-2.76,-2.76,-2.76,-2.76,-2.76,-2.76,-2.76,-2.76,-2.76,-2.76,-2.76,-2.76,-2.76,-2.76,-2.76,-2.76,-2.748,-2.7255,-2.6836,-2.6482,-2.6243,-2.5824,-2.5143,-2.4231,-2.4231,-2.4007,-2.361,-2.4036,-2.4231,-1.4857,-1.6157,0.0,0.0,0.0,0.0,0.0,0.0,0.0,0.0,0.0,0.0,0.0,0.0,0.0,0.0,0.0,0.0,0.0,0.0,0.0,0.0,0.0,0.0,0.0,0.0,0.0,0.0,0.0,0.0,-3.525,-3.4566,-3.3695,-3.2597,-3.1642,-3.0535,-2.9235,-2.8996,-2.8434,-2.76,-2.8738,-2.8693,-2.7615,-2.8278,-2.8607,-2.8607,-2.8607,-2.9101,-2.9909,-3.0118,-3.0447,-3.0866,-3.1077,-3.1301,-3.1511,-3.1511,-3.1511,-3.1511,-3.1511,-3.1511,-3.1511,-3.1511,-3.1511,-3.1511,-3.1511,-3.1511,-3.1511,-3.1511,-3.1511,-3.1511,-3.1511,-3.1167,-3.0582,-2.949,-2.9086,-2.8742,-2.8094,-2.7764,-2.76,-2.76,-2.76,-2.76,-2.76,-2.76,-2.76,-2.76,-2.76,-2.76,-2.76,-2.76,-2.76,-2.76,-2.76,-2.76,-2.76,-2.76,-2.76,-2.76,-2.76,-2.76,-2.76,-2.718,-2.6941,-2.6941,-2.6497,-2.5944,-2.5262,-2.5053,-2.4694,-2.4283,-2.4724,-2.4933,0.0,0.0,0.0,0.0,0.0,0.0,0.0,0.0,0.0,0.0,0.0,0.0,0.0,0.0,0.0,0.0,0.0,0.0,0.0,0.0,0.0,0.0,0.0,0.0,0.0,0.0,0.0,0.0,0.0,-3.5183,-3.4445,-3.3816,-3.255,-3.0516,-2.9171,-2.8463,-2.8463,-2.7894,-2.76,-2.76,-2.8263,-2.8233,-2.7615,-2.8278,-2.8607,-2.8622,-2.8622,-2.9355,-3.0477,-2.9864,-3.0357,-3.1406,-3.0791,-3.0941,-3.1511,-3.1511,-3.1511,-3.1511,-3.1511,-3.1511,-3.1511,-3.1511,-3.1511,-3.1511,-3.1511,-3.1511,-3.1511,-3.1511,-3.1511,-3.1511,-3.1511,-3.1511,-3.1331,-3.0642,-3.0028,-2.9427,-2.8712,-2.8064,-2.76,-2.76,-2.76,-2.76,-2.76,-2.76,-2.76,-2.76,-2.76,-2.76,-2.76,-2.76,-2.76,-2.76,-2.76,-2.76,-2.76,-2.76,-2.76,-2.76,-2.76,-2.76,-2.76,-2.76,-2.76,-2.76,-2.76,-2.7285,-2.6641,-2.5959,-2.563,-2.5615,-2.563,-2.5644,-1.3168,0.0,0.0,0.0,0.0,0.0,0.0,0.0,0.0,0.0,0.0,0.0,0.0,0.0,0.0,0.0,0.0,0.0,0.0,0.0,0.0,0.0,0.0,0.0,0.0,0.0,0.0,0.0,-3.3421,-3.3135,-3.2441,-3.1326,-3.0203,-2.9092,-2.8281,-2.786,-2.786,-2.7685,-2.76,-2.76,-2.8263,-2.8233,-2.7615,-2.8278,-2.8861,-2.931,-2.931,-3.0043,-3.1167,-3.0522,-3.0462,-3.0821,-3.1107,-3.1331,-3.1511,-3.1511,-3.1511,-3.1511,-3.1511,-3.1511,-3.1511,-3.1511,-3.1511,-3.1511,-3.1511,-3.1511,-3.1511,-3.1511,-3.1511,-3.1511,-3.1511,-3.1511,-3.1212,-3.0103,-2.9726,-2.9292,-2.8139,-2.7735,-2.76,-2.76,-2.76,-2.76,-2.76,-2.76,-2.76,-2.76,-2.76,-2.76,-2.76,-2.76,-2.76,-2.76,-2.76,-2.76,-2.76,-2.76,-2.76,-2.76,-2.76,-2.76,-2.76,-2.76,-2.76,-2.76,-2.76,-2.751,-2.733,-2.6632,-2.6078,-2.5615,-2.6093,-2.6572,-1.3882,0.0,0.0,0.0,0.0,0.0,0.0,0.0,0.0,0.0,0.0,0.0,0.0,0.0,0.0,0.0,0.0,0.0,0.0,0.0,0.0,0.0,0.0,0.0,0.0,0.0,0.0,-3.2199,-3.2183,-3.1766,-3.0839,-2.9734,-2.8817,-2.8155,-2.7785,-2.76,-2.76,-2.76,-2.76,-2.76,-2.8004,-2.7989,-2.7615,-2.8278,-2.8801,-2.9205,-2.9729,-3.0402,-3.1062,-3.0957,-3.0913,-3.0943,-3.1346,-3.1511,-3.1511,-3.1511,-3.1511,-3.1511,-3.1511,-3.1511,-3.1511,-3.1511,-3.1511,-3.1511,-3.1511,-3.1511,-3.1511,-3.1511,-3.1511,-3.1511,-3.1511,-3.1511,-3.1241,-3.0223,-2.9786,-2.9322,-2.8259,-2.7809,-2.76,-2.76,-2.76,-2.76,-2.76,-2.76,-2.76,-2.76,-2.76,-2.76,-2.76,-2.76,-2.76,-2.76,-2.76,-2.76,-2.76,-2.76,-2.76,-2.76,-2.76,-2.76,-2.76,-2.76,-2.76,-2.76,-2.76,-2.76,-2.76,-2.721,-2.6821,-2.6437,-2.6851,-2.7225,-1.5351,-1.55,0.0,0.0,0.0,0.0,0.0,-1.9981,0.0,0.0,0.0,0.0,0.0,0.0,0.0,0.0,0.0,0.0,0.0,0.0,0.0,0.0,0.0,0.0,0.0,0.0,-3.1349,-3.127,-3.1214,-3.0631,-2.945,-2.8764,-2.8165,-2.7625,-2.76,-2.76,-2.76,-2.76,-2.76,-2.76,-2.76,-2.76,-2.7615,-2.8203,-2.8532,-2.8667,-2.9879,-3.0432,-3.0552,-3.1137,-3.1436,-3.1511,-3.1511,-3.1511,-3.1511,-3.1511,-3.1511,-3.1511,-3.1511,-3.1511,-3.1511,-3.1511,-3.1511,-3.1511,-3.1511,-3.1511,-3.1511,-3.1511,-3.1511,-3.1511,-3.1511,-3.1511,-3.1331,-3.0672,-3.0088,-2.9532,-2.8846,-2.8173,-2.7735,-2.7809,-2.7705,-2.76,-2.76,-2.76,-2.76,-2.76,-2.76,-2.76,-2.76,-2.76,-2.76,-2.76,-2.76,-2.76,-2.76,-2.76,-2.76,-2.76,-2.76,-2.76,-2.76,-2.76,-2.76,-2.76,-2.76,-2.76,-2.76,-2.76,-2.76,-2.76,-2.76,-2.76,-1.6547,-1.6832,-1.713,0.0,0.0,0.0,0.0,-1.6713,0.0,0.0,0.0,0.0,0.0,0.0,0.0,0.0,0.0,0.0,0.0,0.0,0.0,0.0,0.0,0.0,0.0,0.0,-2.9776,-2.9229,-2.8693,-2.8278,-2.8006,-2.7846,-2.771,-2.76,-2.76,-2.76,-2.76,-2.76,-2.76,-2.76,-2.76,-2.76,-2.76,-2.7735,-2.8094,-2.8637,-2.943,-3.0043,-3.0507,-3.0657,-3.1002,-3.1511,-3.1511,-3.1511,-3.1511,-3.1511,-3.1511,-3.1511,-3.1511,-3.1511,-3.1511,-3.1511,-3.1511,-3.1511,-3.1511,-3.1511,-3.1511,-3.1511,-3.1511,-3.1511,-3.1511,-3.1511,-3.1331,-3.0672,-3.0417,-3.0163,-2.952,-2.8861,-2.8547,-2.9112,-2.8349,-2.76,-2.76,-2.76,-2.76,-2.76,-2.76,-2.76,-2.76,-2.76,-2.76,-2.76,-2.76,-2.76,-2.76,-2.76,-2.76,-2.76,-2.76,-2.76,-2.76,-2.76,-2.76,-2.76,-2.76,-2.76,-2.76,-2.76,-2.76,-2.76,-2.76,-2.76,-1.8072,-1.7938,-1.8117,-1.7821,0.0,0.0,0.0,0.0,0.0,0.0,0.0,0.0,0.0,0.0,0.0,0.0,0.0,0.0,0.0,0.0,0.0,0.0,0.0,0.0,0.0,0.0,-2.8468,-2.8139,-2.7794,-2.76,-2.76,-2.76,-2.76,-2.76,-2.76,-2.76,-2.76,-2.76,-2.76,-2.76,-2.76,-2.76,-2.76,-2.7959,-2.8109,-2.8169,-2.9172,-2.9564,-2.9579,-2.9909,-3.0253,-3.0552,-3.0552,-3.0552,-3.0597,-3.0883,-3.0987,-3.1032,-3.1391,-3.1511,-3.1511,-3.1511,-3.1511,-3.1511,-3.1511,-3.1511,-3.1511,-3.1511,-3.1511,-3.1511,-3.1511,-3.1511,-3.1331,-3.0672,-3.0507,-3.0328,-2.9714,-2.9352,-2.919,-2.9547,-2.8798,-2.8109,-2.8109,-2.7824,-2.76,-2.76,-2.76,-2.76,-2.76,-2.76,-2.76,-2.76,-2.76,-2.76,-2.76,-2.76,-2.76,-2.76,-2.76,-2.76,-2.76,-2.76,-2.76,-2.76,-2.76,-2.76,-2.76,-2.76,-2.76,-2.76,-2.76,-2.76,0.0,0.0,0.0,0.0,0.0,-1.7297,0.0,0.0,0.0,-1.8702,0.0,0.0,0.0,0.0,0.0,0.0,0.0,0.0,0.0,0.0,0.0,0.0,0.0,0.0,0.0,0.0,-2.6986,-2.7375,-2.7165,-2.7195,-2.757,-2.76,-2.76,-2.76,-2.76,-2.76,-2.76,-2.76,-2.76,-2.76,-2.76,-2.76,-2.7615,-2.8169,-2.8124,-2.766,-2.8888,-2.9086,-2.8637,-2.9175,-2.9427,-2.94,-2.9562,-2.9606,-2.9681,-3.0283,-3.0507,-3.0612,-3.1271,-3.1511,-3.1511,-3.1511,-3.1511,-3.1511,-3.1511,-3.1511,-3.1511,-3.1511,-3.1511,-3.1511,-3.1511,-3.1511,-3.1361,-3.0808,-3.0702,-3.0567,-3.0058,-2.9849,-2.9804,-2.9924,-2.9325,-2.8742,-2.8622,-2.8049,-2.76,-2.76,-2.76,-2.76,-2.76,-2.76,-2.76,-2.76,-2.76,-2.76,-2.76,-2.76,-2.76,-2.76,-2.76,-2.76,-2.76,-2.76,-2.76,-2.76,-2.76,-2.76,-2.76,-2.76,-2.76,-2.76,-2.76,-2.76,0.0,0.0,0.0,0.0,-2.0382,0.0,0.0,0.0,-1.74,-1.71,0.0,0.0,0.0,0.0,0.0,0.0,0.0,0.0,0.0,0.0,0.0,0.0,0.0,0.0,0.0,0.0,-2.4792,-2.6572,-2.5615,-2.5734,-2.7495,-2.76,-2.76,-2.76,-2.76,-2.76,-2.76,-2.76,-2.76,-2.76,-2.76,-2.76,-2.76,-2.7675,-2.766,-2.7645,-2.8382,-2.8667,-2.8607,-2.8682,-2.8712,-2.8771,-2.9382,-2.9606,-2.9681,-3.0283,-3.0507,-3.0612,-3.1271,-3.1511,-3.1511,-3.1511,-3.1511,-3.1511,-3.1511,-3.1511,-3.1511,-3.1511,-3.1511,-3.1511,-3.1511,-3.1511,-3.1481,-3.1406,-3.1391,-3.1376,-3.1301,-3.0808,-3.0582,-3.1167,-3.0313,-2.928,-2.8697,-2.8049,-2.76,-2.76,-2.76,-2.76,-2.76,-2.76,-2.76,-2.76,-2.76,-2.76,-2.76,-2.76,-2.76,-2.76,-2.76,-2.76,-2.76,-2.76,-2.76,-2.76,-2.76,-2.76,-2.76,-2.76,-2.76,-2.76,-2.76,-2.76,0.0,0.0,0.0,0.0,0.0,0.0,0.0,0.0,-1.7264,0.0,0.0,0.0,0.0,0.0,0.0,0.0,0.0,0.0,0.0,0.0,0.0,0.0,0.0,0.0,0.0,0.0,0.0,0.0,0.0,-2.4896,-2.6926,-2.7031,-2.721,-2.7585,-2.76,-2.76,-2.76,-2.76,-2.76,-2.76,-2.76,-2.76,-2.76,-2.76,-2.76,-2.7615,-2.7899,-2.8034,-2.8034,-2.8034,-2.8034,-2.8094,-2.8742,-2.9011,-2.9086,-2.9729,-3.0193,-3.0612,-3.1271,-3.1511,-3.1511,-3.1511,-3.1511,-3.1511,-3.1511,-3.1511,-3.1511,-3.1511,-3.1511,-3.1511,-3.1511,-3.1511,-3.1511,-3.1511,-3.1511,-3.1511,-3.1511,-3.1271,-3.1152,-3.1451,-3.0761,-3.0028,-2.9759,-2.8846,-2.8064,-2.766,-2.76,-2.76,-2.76,-2.76,-2.76,-2.76,-2.76,-2.76,-2.76,-2.76,-2.76,-2.76,-2.76,-2.76,-2.76,-2.76,-2.76,-2.76,-2.76,-2.76,-2.76,-2.76,-2.76,-2.76,-2.76,-2.76,-2.2847,0.0,0.0,0.0,0.0,0.0,0.0,0.0,0.0,0.0,0.0,0.0,0.0,0.0,0.0,0.0,0.0,0.0,0.0,0.0,0.0,0.0,0.0,0.0,0.0,0.0,0.0,0.0,0.0,0.0,-2.6198,-2.6497,-2.6811,-2.7315,-2.7495,-2.76,-2.76,-2.76,-2.76,-2.76,-2.76,-2.76,-2.76,-2.76,-2.76,-2.76,-2.76,-2.76,-2.76,-2.76,-2.76,-2.766,-2.8323,-2.8712,-2.8951,-2.9594,-3.0118,-3.0612,-3.1271,-3.1511,-3.1511,-3.1511,-3.1511,-3.1511,-3.1511,-3.1511,-3.1511,-3.1511,-3.1511,-3.1511,-3.1511,-3.1511,-3.1511,-3.1511,-3.1511,-3.1511,-3.1511,-3.1511,-3.1511,-3.1511,-3.1107,-3.0731,-3.0537,-2.9594,-2.8637,-2.7989,-2.7884,-2.7809,-2.7615,-2.7408,-2.7306,-2.7306,-2.7111,-2.7086,-2.728,-2.7306,-2.7382,-2.76,-2.7408,-2.7306,-2.7306,-2.7306,-2.7306,-2.7306,-2.7306,-2.7306,-2.7306,-2.7111,-2.7111,-2.7306,-2.7524,-2.76,0.0,0.0,0.0,-2.0711,0.0,0.0,0.0,0.0,-1.8657,0.0,0.0,0.0,0.0,0.0,0.0,0.0,0.0,0.0,0.0,0.0,0.0,0.0,0.0,0.0,0.0,0.0,0.0,0.0,0.0,0.0,-2.5465,-2.6243,-2.6602,-2.6617,-2.727,-2.76,-2.76,-2.76,-2.76,-2.76,-2.76,-2.76,-2.76,-2.76,-2.76,-2.76,-2.76,-2.76,-2.76,-2.76,-2.76,-2.766,-2.8323,-2.8996,-2.9651,-3.0253,-3.0492,-3.0612,-3.1271,-3.1511,-3.1511,-3.1511,-3.1511,-3.1511,-3.1511,-3.1511,-3.1511,-3.1511,-3.1511,-3.1511,-3.1511,-3.1511,-3.1511,-3.1511,-3.1511,-3.1511,-3.1511,-3.1511,-3.1511,-3.1511,-3.1481,-3.1256,-3.0612,-2.9968,-2.9352,-2.8667,-2.8562,-2.8323,-2.769,-2.6982,-2.6537,-2.6537,-2.5906,-2.5755,-2.6469,-2.6537,-2.6826,-2.7534,-2.693,-2.6537,-2.6537,-2.6537,-2.6537,-2.6537,-2.6537,-2.6537,-2.6537,-2.581,-2.5837,-2.6563,-2.728,-2.76,0.0,0.0,-2.5615,-2.2936,0.0,0.0,0.0,0.0,0.0,0.0,0.0,0.0,0.0,0.0,0.0,0.0,0.0,0.0,0.0,0.0,0.0,0.0,0.0,0.0,0.0,0.0,0.0,0.0,0.0,0.0,0.0,-2.533,-2.6138,-2.6572,-2.7255,-2.76,-2.76,-2.76,-2.76,-2.76,-2.76,-2.76,-2.76,-2.76,-2.76,-2.76,-2.76,-2.7854,-2.8244,-2.7779,-2.8124,-2.8903,-2.8682,-2.925,-3.0223,-3.0417,-3.0791,-3.1182,-3.1421,-3.1511,-3.1511,-3.1511,-3.1511,-3.1511,-3.1511,-3.1511,-3.1511,-3.1511,-3.1511,-3.1511,-3.1511,-3.1511,-3.1511,-3.1511,-3.1511,-3.1511,-3.1511,-3.1087,-3.0703,-3.0703,-3.0238,-2.994,-3.0308,-2.9735,-2.9026,-2.8491,-2.8387,-2.7974,-2.6817,-2.6469,-2.619,-2.5811,-2.5536,-2.5508,-2.5755,-2.6229,-2.639,-2.6162,-2.6363,-2.6283,-2.5783,-2.5755,-2.5755,-2.5755,-2.5755,-2.5755,-2.5755,-2.5508,-2.5536,-2.5783,-2.6027,-2.6416,-2.6019,-2.6273,0.0,-2.4103,-2.3295,0.0,-2.0498,0.0,0.0,0.0,0.0,0.0,0.0,0.0,0.0,0.0,0.0,0.0,0.0,0.0,0.0,0.0,0.0,0.0,0.0,0.0,-1.7326,-1.9859,0.0,0.0,0.0,0.0,-2.5555,-2.6213,-2.7136,-2.76,-2.76,-2.76,-2.76,-2.76,-2.76,-2.76,-2.76,-2.76,-2.76,-2.76,-2.76,-2.7854,-2.8218,-2.8049,-2.8468,-2.9235,-2.9265,-2.9774,-3.0507,-3.0507,-3.0913,-3.1511,-3.1511,-3.1511,-3.1511,-3.1511,-3.1511,-3.1511,-3.1511,-3.1511,-3.1511,-3.1511,-3.1511,-3.1511,-3.1511,-3.1511,-3.1511,-3.1511,-3.1278,-3.1058,-3.1058,-3.0419,-2.9858,-2.9858,-2.938,-2.9192,-2.9735,-2.938,-2.8906,-2.8698,-2.8396,-2.7776,-2.6624,-2.6085,-2.5668,-2.5332,-2.4874,-2.4696,-2.4979,-2.5673,-2.5906,-2.5425,-2.5591,-2.5508,-2.5035,-2.5007,-2.5007,-2.5007,-2.5007,-2.5007,-2.5007,-2.4724,-2.4724,-2.5007,-2.5007,-2.5259]},{"header":{"parameterUnit":"m.s-1","parameterCategory":1,"la1":30.6,"la2":29.2853,"lo1":-89.7004,"lo2":-87.6739,"dy":0.0162,"dx":0.0183,"nx":112,"ny":82,"refTime":"2026-05-15T00:00:00:Z","depth":0,"parameterNumber":3,"parameterNumberName":"V-component_of_WINDS"},"data":[0.0,0.0,0.0,0.0,0.0,0.0,0.0,0.0,0.0,0.0,0.0,0.0,0.0,0.0,0.0,0.0,0.0,0.0,0.0,0.0,0.0,0.0,0.0,0.0,0.0,0.0,0.0,0.0,0.0,0.0,0.0,0.0,0.0,0.0,0.0,0.0,0.0,0.0,0.0,0.0,0.0,0.0,0.0,0.0,0.0,0.0,0.0,0.0,0.0,0.0,0.0,0.0,0.0,0.0,0.0,0.0,0.0,0.0,0.0,0.0,0.0,0.0,0.0,0.0,0.0,0.0,0.0,0.0,0.0,0.0,0.0,0.0,0.0,0.0,0.0,0.0,0.0,0.0,0.0,0.0,0.0,0.0,0.0,0.0,0.0,0.0,0.0,0.0,0.0,0.0,0.0,-0.1123,-0.0418,0.0493,0.1697,0.1707,0.219,0.3415,0.0,0.0,0.0,0.0,0.0,0.0,0.0,0.0,0.0,0.0,0.0,0.0,0.0,0.0,0.0,0.0,0.0,0.0,0.0,0.0,0.0,0.0,0.0,0.0,0.0,0.0,0.0,0.0,0.0,0.0,0.0,0.0,0.0,0.0,0.0,0.0,0.0,0.0,0.0,0.0,0.0,0.0,0.0,0.0,0.0,0.0,0.0,0.0,0.0,0.0,0.0,0.0,0.0,0.0,0.0,0.0,0.0,0.0,0.0,0.0,0.0,0.0,0.0,0.0,0.0,0.0,0.0,0.0,0.0,0.0,0.0,0.0,0.0,0.0,0.0,0.0,0.0,0.0,0.0,0.0,0.0,0.0,0.0,0.0,0.0,0.0,0.0,0.0,0.0,0.0,0.0,0.0,0.0,0.0,0.0,0.0,0.0,0.0,0.0,0.0,0.0,0.0,0.0,0.0,-0.1445,-0.0827,-0.0304,0.0493,0.1697,0.1879,0.2382,0.3439,0.0,0.0,0.0,0.0,0.0,0.0,0.0,0.0,0.0,0.0,0.0,0.0,0.0,0.0,0.0,0.0,0.0,0.0,0.0,0.0,0.0,0.0,0.0,0.0,0.0,0.0,0.0,0.0,0.0,0.0,0.0,0.0,0.0,0.0,0.0,0.0,0.0,0.0,0.0,0.0,0.0,0.0,0.0,0.0,0.0,0.0,0.0,0.0,0.0,0.0,0.0,0.0,0.0,0.0,0.0,0.0,0.0,0.0,0.0,0.0,0.0,0.0,0.0,0.0,0.0,0.0,0.0,0.0,0.0,0.0,0.0,0.0,0.0,0.0,0.0,0.0,0.0,0.0,0.0,0.0,0.0,0.0,0.0,0.0,0.0,0.0,0.0,0.0,0.0,0.0,0.0,0.0,0.0,0.0,0.0,0.0,0.0,0.0,0.0,0.0,0.0,0.0,0.0,-0.1014,-0.0907,-0.0386,-0.0133,0.0493,0.1697,0.1687,0.2162,0.3423,0.2886,0.0,0.0,0.0,0.0,0.0,0.0,0.0,0.0,0.0,0.0,0.0,0.0,0.0,0.0,0.0,0.0,0.0,0.0,0.0,0.0,0.0,0.0,0.0,0.0,0.0,0.0,0.0,0.0,0.0,0.0,0.0,0.0,0.0,0.0,0.0,0.0,0.0,0.0,0.0,0.0,0.0,0.0,0.0,0.0,0.0,0.0,0.0,0.0,0.0,0.0,0.0,0.0,0.0,0.0,0.0,0.0,0.0,0.0,0.0,0.0,0.0,0.0,0.0,0.0,0.0,0.0,0.0,0.0,0.0,0.0,0.0,0.0,0.0,0.0,0.0,0.0,0.0,0.0,0.0,0.0,0.0,0.0,0.0,0.0,0.0,0.0,0.0,0.0,0.0,0.0,0.0,0.0,0.0,0.0,0.0,0.0,0.0,0.0,0.0,0.0,0.0,0.0,-0.0567,-0.0391,-0.0044,0.0135,0.065,0.1719,0.1592,0.2048,0.3418,0.2655,0.0,0.0,0.0,0.0,0.0,0.0,0.0,0.0,0.0,0.0,0.0,0.0,0.0,0.0,0.0,0.0,0.0,0.0,0.0,0.0,0.0,0.0,0.0,0.0,0.0,0.0,0.0,0.0,0.0,0.0,0.0,0.0,0.0,0.0,0.0,0.0,0.0,0.0,0.0,0.0,0.0,0.0,0.0,0.0,0.0,0.0,0.0,0.0,0.0,0.0,0.0,0.0,0.0,0.0,0.0,0.0,0.0,0.0,0.0,0.0,0.0,0.0,0.0,0.0,0.0,0.0,0.0,0.0,0.0,0.0,0.0,0.0,0.0,0.0,0.0,0.0,0.0,0.0,0.0,0.0,0.0,0.0,0.0,0.0,0.0,0.0,0.0,0.0,0.0,0.0,0.0,0.0,0.0,0.0,0.0,0.0,0.0,0.0,0.0,0.0,0.0,0.0,-0.0203,-0.0041,0.0,0.0493,0.1096,0.1741,0.1899,0.2393,0.3426,0.2562,0.0,0.0,0.0,0.0,0.0,0.0,0.0,0.0,0.0,0.0,0.0,0.0,0.0,0.0,0.0,0.0,0.0,0.0,0.0,0.0,0.0,0.0,0.0,0.0,0.0,0.0,0.0,0.0,0.0,0.0,0.0,0.0,0.0,0.0,0.0,0.0,0.0,0.0,0.0,0.0,0.0,0.0,0.0,0.0,0.0,0.0,0.0,0.0,0.0,0.0,0.0,0.0,0.0,0.0,0.0,0.0,0.0,0.0,0.0,0.0,0.0,0.0,0.0,0.0,0.0,0.0,0.0,0.0,0.0,0.0,0.0,0.0,0.0,0.0,0.0,0.0,0.0,0.0,0.0,0.0,0.0,0.0,0.0,0.0,0.0,0.0,0.0,0.0,0.0,0.0,0.0,0.0,0.0,0.0,0.0,0.0,0.0,0.0,0.0,0.0,0.0,0.0,-0.0054,0.0138,0.0,0.0761,0.1261,0.2152,0.2173,0.249,0.3324,0.0,0.0,0.0,0.0,0.0,0.0,0.0,0.0,0.0,0.0,0.0,0.0,0.0,0.0,0.0,0.0,0.0,0.0,0.0,0.0,0.0,0.0,0.0,0.0,0.0,0.0,0.0,0.0,0.0,0.0,0.0,0.0,0.0,0.0,0.0,0.0,0.0,0.0,0.0,0.0,0.0,0.0,0.0,0.0,0.0,0.0,0.0,0.0,0.0,0.0,0.0,0.0,0.0,0.0,0.0,0.0,0.0,0.0,0.0,0.0,0.0,0.0,0.0,0.0,0.0,0.0,0.0,0.0,0.0,0.0,0.0,0.0,0.0,0.0,0.0,0.0,0.0,0.0,0.0,0.0,0.0,0.0,0.0,0.0,0.0,0.0,0.0,0.0,0.0,0.0,0.0,0.0,0.0,0.0,0.0,0.0,0.0,0.0,0.0,0.0,0.0,0.0,0.0245,0.0286,0.0509,0.0,0.1362,0.1755,0.244,0.2457,0.2641,0.3142,0.0,0.0,0.0,0.0,0.0,0.0,0.0,0.0,0.0,0.0,0.0,0.0,0.0,0.0,0.0,0.0,0.0,0.0,0.0,0.0,0.0,0.0,0.0,0.0,0.0,0.0,0.0,0.0,0.0,0.0,0.0,0.0,0.0,0.0,0.0,0.0,0.0,0.0,0.0,0.0,0.0,0.0,0.0,0.0,0.0,0.0,0.0,0.0,0.0,0.0,0.0,0.0,0.0,0.0,0.0,0.0,0.0,0.0,0.0,0.0,0.0,0.0,0.0,0.0,0.0,0.0,0.0,0.0,0.0,0.0,0.0,0.0,0.0,0.0,0.0,0.0,0.0,0.0,0.0,0.0,0.0,0.0,0.0,0.0,0.0,0.0,0.0,0.0,0.0,0.0,0.0,0.0,0.0,0.0,0.0,0.0,0.0,0.0,0.0,0.0,0.0,0.0,0.0823,0.0902,0.1134,0.1747,0.2339,0.265,0.2521,0.2752,0.2898,0.0,0.0,0.0,0.0,0.0,0.0,0.0,0.0,0.0,0.0,0.0,0.0,0.0,0.0,0.0,0.0,0.0,0.0,0.0,0.0,0.0,0.0,0.0,0.0,0.0,0.0,0.0,0.0,0.0,0.0,0.0,0.0,0.0,0.0,0.0,0.0,0.0,0.0,0.0,0.0,0.0,0.0,0.0,0.0,0.0,0.0,0.0,0.0,0.0,0.0,0.0,0.0,0.0,0.0,0.0,0.0,0.0,0.0,0.0,0.0,0.0,0.0,0.0,0.0,0.0,0.0,0.0,0.0,0.0,0.0,0.0,0.0,0.0,0.0,0.0,0.0,0.0,0.0,0.0,0.0,0.0,0.0,0.0,0.0,0.0,0.0,0.0,0.0,0.0,0.0,0.0,0.0,0.0,0.0,0.0,0.0,0.0,0.0,0.0,0.0,0.0,0.0,0.0,0.0,0.0902,0.1296,0.2319,0.2583,0.277,0.291,0.2991,0.2962,0.2778,0.0,0.0,0.0,0.0,0.0,0.0,0.0,0.0,0.0,0.0,0.0,0.0,0.0,0.0,0.0,0.0,0.0,0.0,0.0,0.0,0.0,0.0,0.0,0.0,0.0,0.0,0.0,0.0,0.0,0.0,0.0,0.0,0.0,0.0,0.0,0.0,0.0,0.0,0.0,0.0,0.0,0.0,0.0,0.0,0.0,0.0,0.0,0.0,0.0,0.0,0.0,0.0,0.0,0.0,0.0,0.0,0.0,0.0,0.0,0.0,0.0,0.0,0.0,0.0,0.0,0.0,0.0,0.0,0.0,0.0,0.0,0.0,0.0,0.0,0.0,0.0,0.0,0.0,0.0,0.0,0.0,0.0,0.0,0.0,0.0,0.0,0.0,0.0,0.0,0.0,0.0,0.0,0.0,0.0,0.0,0.0,0.0,0.0,0.0,0.0,0.0,0.0,0.1174,0.1416,0.1923,0.2942,0.3056,0.308,0.3108,0.3101,0.2937,0.2531,0.0,0.0,0.0,0.0,0.0,0.0,0.0,0.0,0.0,0.0,0.0,0.0,0.0,0.0,0.0,0.0,0.0,0.0,0.0,0.0,0.0,0.0,0.0,0.0,0.0,0.0,0.0,0.0,0.0,0.0,0.0,0.0,0.0,0.0,0.0,0.0,0.0,0.0,0.0,0.0,0.0,0.0,0.0,0.0,0.0,0.0,0.0,0.0,0.0,0.0,0.0,0.0,0.0,0.0,0.0,0.0,0.0,0.0,0.0,0.0,0.0,0.0,0.0,0.0,0.0,0.0,0.0,0.0,0.0,0.0,0.0,0.0,0.0,0.0,0.0,0.0,0.0,0.0,0.0,0.0,0.0,0.0,0.0,0.0,0.0,0.0,0.0,0.0,0.0,0.0,0.0,0.0,0.0,0.0,0.0,0.0,0.0,0.0,0.0,0.0,0.0,0.0,0.1758,0.2226,0.2777,0.3526,0.3604,0.3456,0.3128,0.3101,0.2855,0.2268,0.0,0.0,0.0,0.0,0.0,0.0,0.0,0.0,0.0,0.0,0.0,0.0,0.0,0.0,0.0,0.0,0.0,0.0,0.0,0.0,0.0,0.0,0.0,0.0,0.0,0.0,0.0,0.0,0.0,0.0,0.0,0.0,0.0,0.0,0.0,0.0,0.0,0.0,0.0,0.0,0.0,0.0,0.0,0.0,0.0,0.0,0.0,0.0,0.0,0.0,0.0,0.0,0.0,0.0,0.0,0.0,0.0,0.0,0.0,0.0,0.7973,0.0,0.0,0.0,0.0,0.0,0.0,0.0,0.0,0.0,0.0,0.0,0.0,0.0,0.0,0.0,0.0,0.0,0.0,0.0,0.0,0.0,0.0,0.0,0.0,0.0,0.0,0.0,0.0,0.0,0.0,0.0,0.0,0.0,0.0,0.0,0.0,0.0,0.0,0.0,0.0,0.0,0.2025,0.2333,0.2777,0.3526,0.3604,0.3456,0.3128,0.3101,0.2917,0.2469,0.0,0.0,0.0,0.0,0.0,0.0,0.0,0.0,0.0,0.0,0.0,0.0,0.0,0.0,0.0,0.0,0.0,0.0,0.0,0.0,0.0,0.0,0.0,0.0,0.0,0.0,0.0,0.0,0.0,0.0,0.0,0.0,0.0,0.0,0.0,0.0,0.0,0.0,0.0,0.0,0.0,0.0,0.0,0.0,0.0,0.0,0.0,0.0,0.0,0.0,0.0,0.0,0.0,0.0,0.0,0.0,0.0,0.0,0.0,0.0,0.0,0.8636,0.0,0.0,0.0,0.0,0.0,0.0,0.0,0.0,0.0,0.0,0.0,0.0,0.0,0.0,0.0,0.0,0.0,0.0,0.0,0.0,0.0,0.0,0.0,0.0,0.0,0.0,0.0,0.0,0.0,0.0,0.0,0.0,0.0,0.0,0.0,0.0,0.0,0.0,0.0,0.0,0.2281,0.2684,0.3094,0.3554,0.3604,0.3483,0.3209,0.3141,0.2961,0.2616,0.2283,0.0,0.0,0.0,0.0,0.0,0.0,0.0,0.0,0.0,0.0,0.0,0.0,0.0,0.0,0.0,0.0,0.0,0.0,0.0,0.0,0.0,0.0,0.0,0.0,0.0,0.0,0.0,0.0,0.0,0.0,0.0,0.0,0.0,0.0,0.0,0.0,0.0,0.0,0.0,0.0,0.0,0.0,0.0,0.0,0.0,0.0,0.0,0.0,0.0,0.0,0.0,0.0,0.0,1.072,1.0734,1.0883,1.1003,1.1101,1.1179,1.0555,1.0314,1.0261,0.0,0.0,0.0,0.0,0.0,0.0,0.0,0.0,0.0,0.0,0.0,0.0,0.0,0.0,0.0,0.0,0.0,0.0,0.0,0.0,0.0,0.0,0.0,0.0,0.0,0.3744,0.3619,0.0,0.0,0.0,0.0,0.0,0.0,0.0,0.0,0.0,0.0,0.0,0.0,0.2549,0.3047,0.343,0.3587,0.3604,0.3507,0.3283,0.3172,0.2995,0.2716,0.241,0.2147,0.0,0.0,0.0,0.0,0.0,0.0,0.0,0.0,0.0,0.0,0.0,0.0,0.0,0.0,0.0,0.0,0.0,0.0,0.0,0.0,0.0,0.0,0.0,0.0,0.0,0.0,0.0,0.0,0.0,0.0,0.0,0.0,0.7646,0.841,0.0,0.0,0.0,0.0,0.0,0.0,0.0,0.0,0.0,0.0,0.0,0.0,0.0,1.0681,1.1156,1.1744,1.2031,1.2078,1.2571,1.2817,1.2817,1.2857,1.2876,1.2863,1.2787,0.0,1.1169,1.0573,0.0,0.0,0.0,0.0,0.0,0.0,0.0,0.0,0.0,0.0,0.0,0.0,0.0,0.0,0.0,0.0,0.0,0.0,0.0,0.0,0.0,0.0,0.405,0.3964,0.395,0.3921,0.0,0.3324,0.2983,0.2801,0.0,0.0,0.0,0.0,0.0,0.0,0.0,0.0,0.2829,0.3125,0.3387,0.3587,0.3604,0.3463,0.3155,0.3114,0.2995,0.2716,0.2551,0.2449,0.2411,0.2019,0.0,0.0,0.0,0.0,0.0,0.0,0.0,0.0,0.0,0.0,0.0,0.0,0.0,0.0,0.0,0.0,0.0,0.0,0.0,0.0,0.0,0.0,0.0,0.0,0.0,0.0,0.0,0.0,0.0,0.8077,0.8611,0.8978,0.9085,0.8938,0.0,0.0,0.0,0.0,0.0,0.0,0.0,0.0,0.0,1.1799,1.1993,1.2331,1.2919,1.334,1.3547,1.3554,1.3988,1.4195,1.4188,1.4021,1.3948,1.3935,1.3774,1.3313,1.2561,1.1677,1.0875,1.0137,0.0,0.0,0.0,0.0,0.7483,0.7136,0.672,0.7198,0.0,0.0,0.0,0.0,0.0,0.0,0.0,0.0,0.0,0.0,0.0,0.0,0.0,0.4392,0.4331,0.4229,0.4055,0.3869,0.3586,0.0,0.294,0.2774,0.2433,0.0,0.0,0.0,0.0,0.0,0.3118,0.3323,0.3507,0.3593,0.3604,0.3546,0.3392,0.3199,0.3047,0.2937,0.2727,0.2575,0.2501,0.2304,0.2064,0.0,0.0,0.0,0.0,0.0,0.0,0.0,0.0,0.0,0.0,0.0,0.0,0.0,0.0,0.0,0.0,0.0,0.0,0.0,0.0,0.0,0.0,0.0,0.0,0.0,0.0,0.0,0.0,0.9,0.9491,0.9644,1.002,1.0067,0.0,0.0,0.0,0.0,0.0,0.0,1.1263,1.1966,1.2592,1.3219,1.3427,1.3788,1.4352,1.4529,1.4636,1.4636,1.4901,1.5008,1.5001,1.4736,1.4636,1.4616,1.4329,1.4075,1.374,1.2672,1.1946,1.1424,1.0875,1.0454,1.0069,0.9592,0.9154,0.8753,0.8379,0.8707,0.919,0.8623,0.0,0.8645,0.7899,0.0,0.0,0.0,0.0,0.4689,0.4738,0.4663,0.4638,0.4721,0.4662,0.4518,0.4358,0.4304,0.4089,0.0,0.3433,0.3351,0.286,0.0,0.0,0.0,0.0,0.3182,0.3293,0.3483,0.3604,0.3604,0.3604,0.3587,0.3524,0.3253,0.3084,0.305,0.2822,0.2661,0.2563,0.2518,0.2339,0.1985,0.0,0.0,0.0,0.0,0.0,0.0,0.0,0.0,0.0,0.0,0.0,0.0,0.0,0.0,0.0,0.0,0.0,0.0,0.0,0.0,0.0,0.0,0.0,0.0,0.0,0.0,0.0,0.0,0.0,1.0842,1.1444,0.0,0.0,0.0,0.0,1.1282,1.1877,1.2465,1.3046,1.334,1.378,1.4409,1.4449,1.4603,1.4961,1.4981,1.4988,1.4988,1.5001,1.5008,1.5008,1.4995,1.4988,1.4968,1.4629,1.4489,1.4409,1.3514,1.2953,1.2663,1.2318,1.1844,1.1233,1.0709,0.9539,0.816,0.7587,0.7932,0.8623,0.8603,0.8914,0.9205,0.8844,0.7918,0.0,0.0,0.5925,0.5752,0.507,0.487,0.4867,0.4874,0.4792,0.4677,0.467,0.4583,0.4385,0.0,0.3863,0.374,0.3573,0.0,0.3226,0.3101,0.3196,0.3299,0.3306,0.3483,0.3604,0.3604,0.3604,0.352,0.3333,0.3172,0.3044,0.2909,0.2785,0.2692,0.2686,0.2561,0.2487,0.2463,0.2022,0.0,0.0,0.0,0.0,0.0,0.0,0.0,0.0,0.0,0.0,0.0,0.0,0.0,0.0,0.0,0.0,0.0,0.0,0.0,0.0,0.0,0.0,0.0,0.0,0.0,0.0,0.0,0.0,1.2107,1.2645,0.0,0.0,1.2587,1.2814,1.2814,1.336,1.3828,1.4041,1.4335,1.4676,1.507,1.5084,1.5224,1.5518,1.5518,1.5518,1.5518,1.5518,1.5518,1.5518,1.5331,1.5244,1.5224,1.493,1.4696,1.4496,1.4182,1.3761,1.3293,1.2999,1.2759,1.2521,1.2159,1.1657,1.1101,1.0688,1.0623,1.0673,1.0467,1.0528,1.0562,1.01,0.9408,0.8626,0.7985,0.7547,0.7219,0.6953,0.6379,0.586,0.586,0.5338,0.4809,0.4711,0.465,0.4576,0.4371,0.4185,0.3984,0.3758,0.3751,0.3674,0.3453,0.3541,0.3602,0.351,0.3548,0.3604,0.3604,0.3604,0.358,0.35,0.3246,0.3081,0.303,0.2815,0.2696,0.2696,0.2661,0.2525,0.2305,0.2144,0.1899,0.0,0.0,0.0,0.0,0.0,0.0,0.0,0.0,0.0,0.0,0.0,0.0,0.0,0.0,0.0,0.0,0.0,0.0,0.0,0.0,0.0,0.0,0.0,0.0,0.0,0.0,1.2719,1.3013,1.3661,1.3935,1.354,1.3861,1.4088,1.4088,1.4543,1.4816,1.4816,1.5097,1.5344,1.5538,1.5538,1.5631,1.5778,1.5784,1.5784,1.5784,1.5784,1.5784,1.5771,1.5631,1.5538,1.5524,1.5237,1.4997,1.4803,1.4603,1.4246,1.3866,1.3621,1.344,1.3327,1.3126,1.2725,1.2241,1.1908,1.1689,1.152,1.1565,1.1577,1.1483,1.1002,1.0522,1.0009,0.9285,0.8772,0.8382,0.8091,0.7466,0.6953,0.6953,0.6368,0.5807,0.5717,0.5602,0.54,0.5085,0.4634,0.4213,0.3988,0.4004,0.3987,0.3765,0.3951,0.4079,0.398,0.3917,0.388,0.388,0.3711,0.3604,0.3604,0.3297,0.3101,0.3101,0.2846,0.2696,0.2696,0.2696,0.258,0.2302,0.2184,0.2002,0.1737,0.0,0.0,0.0,0.0,0.0,0.0,0.0,0.0,0.0,0.0,0.0,0.0,0.0,0.0,0.0,0.0,0.0,0.0,0.0,0.0,0.0,0.0,0.0,1.1946,1.2692,1.3373,1.362,1.4462,1.4814,1.4195,1.47,1.5035,1.5035,1.5251,1.5411,1.5411,1.5678,1.5784,1.5784,1.5784,1.5784,1.5784,1.5784,1.5784,1.5784,1.5784,1.5784,1.5784,1.5784,1.5784,1.5764,1.5531,1.5404,1.5351,1.477,1.4529,1.4489,1.4202,1.3908,1.3613,1.3606,1.2616,1.1192,1.0964,1.087,1.0971,1.1677,1.1919,1.1866,1.153,1.1243,1.085,0.9995,0.9539,0.9151,0.8285,0.8059,0.8027,0.8027,0.7885,0.7716,0.7711,0.7373,0.6896,0.6164,0.523,0.4498,0.4254,0.4204,0.4176,0.405,0.4422,0.0,0.4722,0.4553,0.443,0.443,0.3943,0.3622,0.3622,0.3297,0.3101,0.3101,0.2846,0.2696,0.2696,0.2696,0.264,0.2501,0.2181,0.2002,0.1999,0.0,0.0,0.0,0.0,0.0,0.0,0.0,0.0,0.0,0.0,0.0,0.0,0.0,0.0,0.0,0.0,0.0,0.0,0.0,0.0,0.0,0.0,1.2839,1.2839,1.3788,1.4589,1.4877,1.5311,1.5531,1.5364,1.5498,1.5591,1.5591,1.5665,1.5712,1.5712,1.5738,1.5784,1.5784,1.5784,1.5784,1.5784,1.5784,1.5784,1.5784,1.5784,1.5784,1.5784,1.5784,1.5784,1.5778,1.5698,1.5591,1.5364,1.4997,1.4716,1.4489,1.4202,1.4035,1.3941,1.3686,1.3061,1.2343,1.2259,1.2097,1.1909,1.2131,1.2184,1.2131,1.1837,1.169,1.1502,1.0842,1.06,1.0425,0.9995,0.9428,0.8941,0.8941,0.8431,0.7884,0.7747,0.7456,0.7158,0.6859,0.6373,0.5674,0.46,0.4429,0.454,0.4894,0.4894,0.0,0.538,0.5217,0.5065,0.5065,0.4522,0.4176,0.4176,0.3513,0.3101,0.0,0.2846,0.2696,0.2696,0.2696,0.264,0.2501,0.2269,0.2093,0.0,0.0,0.0,0.0,0.0,0.0,0.0,0.0,0.0,0.0,0.0,0.0,0.0,0.0,0.0,0.0,0.0,0.0,0.0,0.0,0.0,0.0,1.3173,1.3988,1.4108,1.4716,1.5251,1.5545,1.5838,1.6012,1.6012,1.6126,1.6199,1.6199,1.6199,1.6199,1.6199,1.6079,1.6012,1.6012,1.5844,1.5784,1.5784,1.5784,1.5784,1.5784,1.5784,1.5784,1.5784,1.5784,1.5784,0.0,1.5784,1.5732,1.5545,1.5182,1.4908,0.0,0.0,0.0,0.0,0.0,1.338,1.3086,1.2871,1.267,1.2509,1.2345,1.2305,1.2271,1.2098,1.2,1.1832,1.1491,1.1182,1.0955,1.0814,1.0296,0.9849,0.9849,0.9454,0.9055,0.8931,0.8669,0.8326,0.7826,0.0,0.0,0.5595,0.5391,0.549,0.581,0.5875,0.5962,0.6128,0.5966,0.581,0.5685,0.513,0.4674,0.4413,0.3881,0.0,0.0,0.0,0.2764,0.2699,0.2651,0.0,0.0,0.0,0.0,0.0,0.0,0.0,0.0,0.1809,0.1494,0.0,0.0,0.0,0.0,0.0,0.0,0.0,0.0,0.0,0.0,0.0,0.0,0.0,0.0,0.0,0.0,1.4289,1.5162,1.5404,1.5444,1.5551,1.5798,1.6112,1.6286,1.6319,1.6553,1.6707,1.6707,1.6707,1.6707,1.6707,0.0,0.0,0.0,0.0,1.5784,1.5784,1.5784,1.5784,1.5784,1.5784,1.5784,1.5784,1.5784,1.5784,1.5784,1.5784,1.5784,1.5738,1.5204,1.4968,1.4861,1.4289,1.4088,1.4055,1.3753,1.3633,1.352,1.3032,0.0,0.0,1.2398,1.2305,1.2305,1.2305,1.2124,1.1946,1.1913,1.1504,1.1035,1.1002,1.0807,1.0593,1.0593,1.0593,1.0593,1.0593,1.0327,0.9816,0.8899,0.8487,0.8001,0.7009,0.6723,0.6642,0.6723,0.7058,0.7228,0.7007,0.6824,0.6606,0.6379,0.0,0.0,0.4648,0.4358,0.3963,0.343,0.3105,0.2866,0.273,0.2606,0.2592,0.2696,0.2579,0.2579,0.2696,0.2696,0.2644,0.2518,0.1969,0.159,0.0,0.0,0.0,0.0,0.0,0.0,0.0,0.0,0.0,0.0,0.0,0.0,0.0,0.0,0.0,1.4122,1.4856,1.5418,1.5705,1.5698,1.5858,1.6152,1.6239,1.6359,1.66,1.6673,1.6707,1.6707,1.6707,1.6707,1.6707,1.6433,0.0,1.6321,1.5985,1.5784,1.5784,1.5784,1.5784,1.5784,0.0,0.0,1.5784,1.5784,1.5784,1.5784,1.5784,1.5784,1.5738,1.5204,1.4727,1.4242,1.4135,1.4088,1.4082,1.4021,1.3848,1.3553,1.324,1.2998,1.2737,1.2398,1.2305,1.2305,1.2305,1.2265,0.0,1.1973,1.1617,1.1255,1.1056,1.0807,1.0593,1.0593,1.0593,1.0593,1.0593,1.0327,0.9967,0.9558,0.9241,0.8864,0.8446,0.7402,0.6804,0.7396,0.7376,0.7501,0.8035,0.7638,0.7308,0.7255,0.652,0.5986,0.5852,0.484,0.4148,0.4024,0.3414,0.2996,0.2869,0.2839,0.2778,0.2699,0.2669,0.2669,0.2696,0.2696,0.2682,0.2652,0.2546,0.2202,0.0,0.0,0.0,0.0,0.0,0.0,0.0,0.0,0.0,0.0,0.0,1.2181,0.0,0.0,1.4282,1.4863,1.5324,1.5665,1.5758,1.5784,1.5838,1.6032,1.6313,1.6547,1.6693,1.6974,1.7141,1.7141,1.7141,1.7141,1.7141,1.6918,1.6697,1.6493,1.6206,1.5979,1.5784,1.5784,1.5784,1.5784,1.5784,1.5784,1.5784,1.5784,1.5784,1.5784,1.5784,1.5698,1.5565,1.4983,1.4482,1.4088,1.4088,1.4088,1.4088,1.4088,1.3995,1.3801,1.336,1.3106,1.2906,1.2445,1.2305,1.2305,1.2305,1.2305,1.2271,1.2124,1.1764,1.1362,1.1243,1.0882,1.0593,1.0593,1.0593,1.0593,1.0593,1.0472,1.0207,0.9796,0.9566,0.9325,0.8884,0.8182,0.783,0.8182,0.8149,0.8146,0.8365,0.7983,0.7635,0.7504,0.6963,0.6498,0.6221,0.5318,0.4601,0.4218,0.3858,0.3458,0.3022,0.2996,0.2963,0.2903,0.29,0.29,0.29,0.29,0.29,0.29,0.29,0.2661,0.0,0.0,0.0,0.0,0.0,0.0,0.0,0.0,1.2096,1.336,1.3434,1.3454,1.4195,1.473,1.5189,1.5431,1.5678,1.5784,1.5784,1.5784,1.5784,1.5784,1.6299,1.6647,1.67,1.7134,1.7435,1.7495,1.7502,1.7522,1.7582,1.7306,1.7005,1.6714,1.6366,1.6072,1.5784,1.5784,1.5784,1.5784,1.5784,1.5784,1.5784,1.5784,1.5784,1.5778,1.5718,1.5578,1.5271,1.4736,1.4349,1.4088,1.4088,1.4088,1.4088,1.4088,1.4088,1.4001,1.3414,1.3213,1.3106,1.2498,1.2305,1.2305,1.2305,1.2305,1.2305,1.2305,1.1877,1.1389,1.1389,1.0995,1.0593,1.0593,1.0593,1.0593,1.0593,1.0593,1.0432,0.9873,0.9726,0.9512,0.8985,0.8844,0.8804,0.8804,0.8804,0.8724,0.8516,0.815,0.7812,0.7605,0.7235,0.6789,0.6243,0.5766,0.5168,0.446,0.4302,0.3955,0.3344,0.3321,0.3248,0.3101,0.3217,0.3217,0.3101,0.3101,0.3101,0.3101,0.3101,0.2976,1.2833,1.2035,1.1493,1.1951,1.1742,1.1923,0.0,0.0,1.3319,1.4552,1.4777,1.4867,1.5184,1.5304,1.5444,1.5732,1.5758,1.5784,1.5784,1.5784,1.5784,1.5784,1.6119,1.642,1.668,1.6767,1.6914,1.7226,1.7246,1.7367,1.7569,1.7054,1.674,1.6707,1.6166,1.5865,1.5784,1.5784,1.5784,1.5784,1.5784,1.5784,1.5784,1.5784,1.5784,1.5764,1.5558,1.5284,1.5028,1.4656,1.4349,1.4088,1.4088,1.4088,1.4088,1.4088,1.4088,1.4001,1.3414,1.3213,1.3106,1.2498,1.2305,1.2305,1.2305,1.2305,1.2305,1.2305,1.1877,1.1389,1.1389,1.0995,1.0593,1.0593,1.0593,1.0593,1.0593,1.0593,1.0492,1.0134,0.986,0.9579,0.9217,0.8951,0.8804,0.8804,0.8804,0.8798,0.8764,0.8252,0.7892,0.7859,0.7339,0.6789,0.6243,0.6136,0.584,0.5208,0.4686,0.4282,0.4086,0.4077,0.3778,0.3124,0.3617,0.3636,0.3101,0.3101,0.3101,0.3101,0.3101,0.3084,1.3178,1.2752,0.0,0.0,1.2762,1.3201,1.4057,1.4115,1.4208,1.5044,1.5217,1.5304,1.5591,1.5651,1.5691,0.0,1.5784,1.5784,1.5784,1.5784,1.5718,1.5598,1.5838,1.6132,1.6426,1.6607,1.676,1.6881,1.6894,1.6947,1.7068,1.684,1.6627,1.646,1.6213,1.6005,1.5784,1.5784,1.5784,1.5784,1.5784,1.5784,1.5784,1.5784,1.5784,1.5758,1.5344,1.5122,1.4975,1.4462,1.4195,1.4088,1.4088,1.4088,1.4088,1.4088,1.4088,1.4001,1.3414,1.3213,1.3106,1.2498,1.2305,1.2305,1.2305,1.2305,1.2305,1.2305,1.1877,1.1389,1.1389,1.0995,1.0593,1.0593,1.0593,1.0593,1.0593,1.0593,1.0506,1.0174,0.988,0.9586,0.9264,0.8971,0.8804,0.8804,0.8804,0.8804,0.8804,0.8444,0.8049,0.7702,0.7259,0.6915,0.6689,0.6668,0.6428,0.5852,0.5588,0.5267,0.4855,0.4834,0.4686,0.4392,0.4619,0.445,0.3854,0.3854,0.3691,0.3388,0.3388,0.3388,1.2895,0.0,0.0,1.3065,1.3547,1.4148,1.4396,1.4609,1.4883,1.5311,1.5398,1.5438,1.5565,1.5658,0.0,1.5712,1.5731,1.5784,1.5784,1.5758,1.5665,1.5531,1.5631,1.5825,1.6119,1.6339,1.65,1.658,1.6587,1.662,1.67,1.6627,1.6486,1.6328,1.6192,1.6046,1.5784,1.5784,1.5784,1.5784,1.5784,1.5784,1.5784,1.5784,1.5784,1.5751,1.5217,1.5008,1.4961,1.4329,1.4088,1.4088,1.4088,1.4088,1.4088,1.4088,1.4088,1.4001,1.3414,1.3213,1.3106,1.2498,1.2305,1.2305,1.2305,1.2305,1.2305,1.2305,1.1937,1.153,1.1415,1.1056,1.0693,1.0613,1.0593,1.0593,1.0593,1.0593,1.0526,1.0281,1.0,0.9713,0.9384,0.9091,0.8871,0.8818,0.8804,0.8804,0.8804,0.8484,0.8074,0.7544,0.7201,0.7,0.7,0.7,0.6831,0.6435,0.6285,0.6007,0.5567,0.5545,0.548,0.5303,0.5459,0.526,0.4648,0.4474,0.4198,0.3818,0.3667,0.3604,0.0,0.0,1.2549,1.3353,1.3854,1.4309,1.5164,1.5364,1.5378,1.5391,1.5398,1.5311,1.5082,1.5217,1.5411,1.5411,1.5645,1.5784,1.5784,1.5585,1.5511,1.5785,1.5578,1.5524,0.0,1.5804,1.5979,1.6315,1.6286,1.6413,1.6693,1.644,1.6335,1.6321,1.5992,1.5791,1.5784,1.5784,1.5784,1.5784,1.5784,1.5784,1.5784,1.5784,1.5784,1.5751,1.5217,1.5008,1.4961,1.4329,1.4088,1.4088,1.4088,1.4088,1.4088,1.4088,1.4088,1.4001,1.3414,1.3213,1.3106,1.2498,1.2305,1.2305,1.2305,1.2305,1.2305,1.2305,1.2084,1.1826,1.1462,1.1202,1.0909,1.066,1.0593,1.0593,1.0593,1.0593,1.0586,1.0579,1.0307,1.0013,0.9719,0.9397,0.9104,0.8851,0.8804,0.8804,0.8804,0.8278,0.7822,0.7524,0.7201,0.7,0.7,0.7,0.7,0.6979,0.6498,0.62,0.6184,0.6184,0.5894,0.5308,0.5873,0.5873,0.5265,0.4696,0.4387,0.4369,0.3836,0.3604,0.0,0.0,1.332,1.4013,1.4596,1.503,1.5324,1.5398,1.5344,1.515,1.495,1.4783,1.4683,1.475,1.4877,1.5077,1.5351,1.5611,1.5751,1.5698,1.5651,1.5558,1.5625,0.0,0.0,0.0,0.0,1.5972,1.5979,1.6019,1.6119,1.6032,1.5979,1.5979,1.5879,1.5784,1.5784,1.5784,1.5784,1.5784,1.5784,1.5784,1.5784,1.5784,1.5784,1.5751,1.5217,1.5008,1.4961,1.4329,1.4088,1.4088,1.4088,1.4088,1.4088,1.4088,1.4088,1.4001,1.3414,1.3213,1.3106,1.2498,1.2305,1.2305,1.2305,1.2305,1.2305,1.2305,1.2091,1.1879,1.175,1.1356,1.0969,1.0901,1.0734,1.0593,1.0593,1.0593,1.0593,1.0593,1.0321,1.002,0.9733,0.9439,0.9118,0.8851,0.8804,0.8804,0.8804,0.8464,0.811,0.7809,0.7502,0.7235,0.702,0.7,0.7,0.7,0.6831,0.6725,0.6725,0.6725,0.6641,0.6422,0.6619,0.645,0.5894,0.5696,0.5173,0.4387,0.422,0.3943,1.271,1.3193,1.3613,1.4349,1.4803,1.5201,1.5697,1.568,1.5569,1.554,1.524,1.4823,1.4393,1.4386,1.4542,1.4767,1.505,1.5378,1.5724,1.5738,1.5645,1.5565,1.5625,0.0,0.0,0.0,0.0,1.5832,1.5784,1.5784,1.5784,1.5784,1.5784,1.5784,1.5784,1.5784,1.5784,1.5784,1.5784,1.5784,1.5784,1.5784,1.5784,1.5784,1.5784,1.5751,1.5217,1.5008,1.4961,1.4329,1.4088,1.4088,1.4088,1.4088,1.4088,1.4088,1.4088,1.4001,1.3414,1.3213,1.3106,1.2498,1.2305,1.2305,1.2305,1.2305,1.2305,1.2305,1.2171,1.2033,1.1933,1.1625,1.129,1.1042,1.0888,1.072,1.0613,1.0593,1.0593,1.0593,1.0439,1.0147,0.9753,0.9352,0.8998,0.8838,0.8804,0.8804,0.8804,0.8557,0.8328,0.811,0.7739,0.741,0.7194,0.7066,0.7,0.7,0.7,0.7,0.7,0.7,0.7,0.7,0.7,0.6831,0.6477,0.6285,0.5809,0.5043,0.4609,0.4329,1.2993,1.3253,1.3474,1.4266,1.4529,1.4858,1.6221,1.6203,1.5943,1.6333,1.6039,1.5344,0.0,0.0,1.4367,1.4473,1.478,1.5209,1.5698,1.5591,1.5524,0.0,0.0,0.0,0.0,0.0,0.0,1.5899,0.0,1.5872,1.5784,1.5784,1.5784,1.5784,1.5784,1.5784,1.5784,1.5784,1.5784,1.5784,1.5784,1.5784,1.5784,1.5784,1.5771,1.5724,1.5211,1.5001,1.503,1.4365,1.4124,1.4166,1.413,1.4088,1.4088,1.4088,1.4088,1.4001,1.3414,1.3213,1.3106,1.2498,1.2305,1.2305,1.2305,1.2305,1.2305,1.2305,1.2305,1.2238,1.2,1.1913,1.1759,1.1149,1.1002,1.0915,1.0653,1.0593,1.0593,1.0593,1.0579,1.0385,0.9809,0.9212,0.8824,0.8811,0.8804,0.8804,0.8804,0.8564,0.8415,0.8402,0.7879,0.7547,0.7491,0.7208,0.7013,0.7,0.7,0.7,0.7,0.7,0.7,0.7,0.7,0.7,0.7,0.6498,0.6221,0.6184,0.5022,0.4761,1.3347,1.3813,1.4242,1.4419,1.4689,1.5008,1.5631,1.5455,1.517,1.5226,1.4683,1.4016,0.0,0.0,0.0,1.4207,1.4672,0.0,1.5698,1.5718,0.0,0.0,0.0,1.6166,1.6453,1.6572,0.0,0.0,1.6795,1.6803,1.5825,1.5784,1.5784,1.5784,1.5784,1.5784,1.5784,1.5784,1.5784,1.5784,1.5784,1.5784,1.5784,1.5784,1.5712,1.5484,1.5169,1.5304,1.5734,1.4562,1.4573,1.5213,1.4412,1.4088,1.4088,1.4088,1.4088,1.4001,1.3414,1.3213,1.3106,1.2498,1.2305,1.2305,1.2305,1.2305,1.2305,1.2305,1.2305,1.2285,1.2211,1.2067,1.1812,1.1403,1.1149,1.0915,1.0653,1.0593,1.0593,1.0593,1.0412,1.0114,0.9775,0.9372,0.9031,0.8838,0.8804,0.8804,0.8804,0.8744,0.8611,0.8422,0.8261,0.7986,0.7531,0.7417,0.7261,0.7013,0.7,0.7,0.7,0.7,0.7,0.7,0.7,0.7,0.7,0.6852,0.6598,0.62,0.5873,0.5351,1.3674,1.4082,1.4329,1.4329,1.4355,1.4555,1.5283,1.5034,1.4655,1.4769,1.4486,0.0,0.0,0.0,0.0,0.0,0.0,0.0,1.5538,1.5752,1.5939,0.0,1.6321,0.0,1.6673,1.7442,1.7635,0.0,1.7454,1.7412,1.6662,1.7117,1.7163,1.6669,1.6622,1.6386,1.5832,1.5784,1.5784,1.5784,1.5784,1.5784,1.5784,1.5784,1.5671,1.5384,0.0,1.5432,1.6032,1.5141,1.5421,1.6355,1.5752,1.5228,1.4852,1.5352,1.4901,1.4085,1.3954,1.3588,1.3106,1.2498,1.2305,1.2305,1.2305,1.2305,1.2305,1.2305,1.2305,1.2305,1.2305,1.2184,1.1984,1.169,1.1396,1.1102,1.0847,1.068,1.0593,1.0593,1.0616,1.0467,0.9959,0.9825,0.9583,0.9045,0.8865,0.8804,0.8804,0.8804,0.8744,0.8577,0.8476,0.8261,0.7919,0.7765,0.7542,0.7235,0.7214,0.7161,0.7006,0.7,0.7,0.7,0.7,0.7,0.7,0.7,0.6852,0.6541,0.6307,0.5953,1.3941,1.4088,1.4075,1.4041,1.3884,1.3961,1.503,1.4711,1.4302,1.4573,0.0,0.0,1.2401,0.0,1.3056,1.3207,0.0,1.4349,1.5271,1.5611,1.5912,1.6286,1.6333,1.646,1.6787,1.8577,1.9257,1.823,1.8168,1.8095,1.7963,1.8948,1.8993,1.7956,1.7777,1.7264,1.6285,1.615,1.615,1.6285,1.6285,1.6285,1.6285,1.6285,1.6099,1.5769,0.0,0.0,1.6473,1.6065,1.656,1.7496,1.7374,1.6723,1.6026,1.6968,1.6124,1.458,1.481,1.423,1.3296,1.2536,1.2305,1.2305,1.2305,1.2305,1.2305,1.2305,1.2305,1.2305,1.2305,1.2305,1.2231,1.1973,1.1643,1.1349,1.1056,1.0801,1.0618,1.0744,1.1097,1.1182,1.0537,1.0623,1.0466,0.9515,0.9187,0.9003,0.8943,0.8857,0.8804,0.8804,0.8584,0.8442,0.8402,0.8136,0.7856,0.7571,0.7511,0.739,0.7133,0.708,0.706,0.706,0.706,0.706,0.706,0.706,0.706,0.706,0.6634,0.6588,1.3995,1.4088,1.4028,1.374,1.3964,1.4306,1.4447,1.4179,0.0,0.0,0.0,1.2555,1.2234,1.2152,0.0,1.3573,0.0,0.0,0.0,0.0,1.5758,0.0,0.0,0.0,0.0,0.0,0.0,0.0,0.0,0.0,1.9222,1.9405,1.9405,1.9177,1.8234,1.8048,1.8856,1.7863,1.7863,1.8848,1.8848,1.8848,1.8848,1.8848,1.8505,1.7898,1.7842,0.0,1.8437,1.744,1.7698,1.859,1.7666,1.7172,1.705,1.7212,1.705,1.6594,1.5583,1.4917,1.4272,1.2784,1.2305,1.2305,1.2305,1.2305,1.2305,1.2305,1.2305,1.2305,1.2305,1.2305,1.2231,1.1973,1.1643,1.1349,1.1056,1.0801,1.0807,1.1469,1.1665,1.1814,1.211,1.2191,1.1801,1.0471,1.0235,1.0074,0.9677,0.9133,0.8804,0.8804,0.8764,0.8637,0.8422,0.8348,0.817,0.7846,0.7631,0.7578,0.7739,0.7522,0.741,0.741,0.741,0.741,0.741,0.741,0.741,0.7417,0.7541,0.7147,1.4008,1.4088,1.4015,1.3673,1.3882,1.4052,1.3459,0.0,0.0,0.0,0.0,1.1748,1.1299,0.0,0.0,0.0,0.0,0.0,0.0,0.0,0.0,0.0,0.0,0.0,0.0,0.0,0.0,0.0,0.0,0.0,2.0494,2.044,2.044,2.044,1.9268,1.891,1.9488,1.891,1.891,1.9497,1.9497,1.9497,1.9497,1.9497,1.91,1.8415,1.8415,0.0,1.8957,1.839,1.8838,1.9766,1.9234,1.8669,1.827,1.8829,1.8301,1.7284,1.7032,1.6006,1.4642,1.3708,1.2901,1.2305,1.2305,1.2305,1.2305,1.2305,1.2305,1.2305,1.2305,1.2305,1.2265,1.2131,1.175,1.1303,1.0894,1.0687,1.0832,1.1648,1.2143,1.2525,1.2748,1.3036,1.2694,1.1138,1.0985,1.0777,1.0143,0.9918,0.984,0.984,0.9211,0.8901,0.9103,0.8822,0.8477,0.8183,0.8047,0.7936,0.7905,0.7789,0.7709,0.7709,0.7709,0.7709,0.7709,0.7709,0.7709,0.7715,0.7839,0.7612,1.3928,1.4041,1.4001,1.36,1.3867,1.3852,1.2586,1.2523,0.0,0.0,0.0,1.1145,1.0547,0.0,0.0,0.0,0.0,0.0,0.0,0.0,0.0,0.0,0.0,0.0,0.0,0.0,0.0,0.0,0.0,0.0,2.1774,2.1712,2.1712,2.1712,2.0531,1.9988,2.0268,1.9988,2.0034,2.0268,2.0268,2.0268,2.026,2.0183,1.9779,1.9144,1.9025,0.0,0.0,1.9362,1.9844,2.0605,2.0605,2.0079,1.9441,2.0284,1.9511,1.8057,1.8479,1.7235,1.5365,1.4683,1.3479,1.2305,1.2305,1.2305,1.2335,1.2556,1.2592,1.2592,1.2592,1.2769,1.288,1.2711,1.2032,1.1364,1.1153,1.0989,1.1139,1.2104,1.281,1.3304,1.3485,1.3873,1.3631,1.2076,1.1839,1.1591,1.0855,1.0793,1.0922,1.1225,1.0046,0.9387,0.9762,0.9309,0.886,0.8509,0.8435,0.8297,0.8099,0.8032,0.8005,0.8005,0.8005,0.8005,0.8005,0.8005,0.8005,0.8005,0.8065,0.8025,1.3633,1.3881,1.3955,1.3387,1.3989,1.4258,1.2356,0.0,0.0,0.0,1.0635,1.0518,1.0791,1.0649,0.0,0.0,0.0,0.0,0.0,0.0,0.0,0.0,0.0,0.0,0.0,0.0,0.0,0.0,0.0,0.0,0.0,2.295,2.295,2.295,2.1756,2.1667,2.2775,2.1667,2.1667,2.2775,2.2775,2.2775,2.2765,2.238,2.2009,2.1556,2.113,0.0,0.0,2.044,2.0518,2.0605,2.0605,2.0527,2.044,2.0566,2.0479,2.0157,1.9277,1.8368,1.7318,1.5372,1.3658,1.2305,1.2305,1.2305,1.2482,1.331,1.3564,1.3564,1.3564,1.4243,1.4752,1.4102,1.2635,1.166,1.2578,1.2205,1.2135,1.3687,1.4025,1.4332,1.505,1.5226,1.4869,1.3738,1.3229,1.2797,1.236,1.1413,1.1275,1.2569,1.1459,1.0389,0.984,0.9736,0.9451,0.8797,0.8543,0.8502,0.8717,0.8477,0.8362,0.8362,0.8362,0.8362,0.8362,0.8362,0.8362,0.8368,0.8604,0.8418,1.3407,1.356,1.35,1.3267,1.3829,1.3992,1.2,0.0,1.2455,1.088,1.042,1.0352,1.0518,1.031,1.039,1.1226,1.0864,1.1063,0.0,0.0,0.0,0.0,0.0,0.0,0.0,0.0,0.0,0.0,0.0,0.0,0.0,2.3091,2.3091,2.3091,2.2633,2.2633,2.3091,2.2633,2.2633,2.3091,2.3091,2.3091,2.3081,2.2662,2.2285,2.1865,2.1385,0.0,0.0,2.0605,2.0605,2.0605,2.0605,2.0605,2.0605,2.0605,2.0605,2.0527,2.0118,1.9068,1.7775,1.6934,1.5499,1.3911,1.3346,1.3557,1.4127,1.4486,1.4593,1.4593,1.4593,1.4914,1.5066,1.4595,1.3737,1.3088,1.3312,1.2911,1.2848,1.3995,1.4213,1.4451,1.5264,1.541,1.509,1.4182,1.3839,1.3474,1.2824,1.235,1.2289,1.2832,1.1642,1.0864,1.099,1.0636,1.0115,0.9439,0.9299,0.9111,0.8804,0.8697,0.8637,0.8637,0.8637,0.8637,0.8637,0.8637,0.8637,0.8637,0.8751,0.8684,1.2934,1.316,1.3053,1.2966,1.3521,1.3597,0.0,0.0,1.2227,1.0635,1.0303,1.0303,1.0303,1.0158,1.0225,1.0898,1.0422,1.0558,1.2274,0.0,0.0,0.0,0.0,0.0,0.0,0.0,0.0,0.0,0.0,0.0,0.0,2.3091,2.3091,2.3091,2.3091,2.3091,2.3091,2.3091,2.3091,2.3091,2.3091,2.3033,2.2896,2.2519,2.209,2.167,0.0,0.0,0.0,2.0605,2.0605,2.0605,2.0605,2.0605,2.0605,2.0605,2.0605,2.0605,2.0605,1.9611,1.8276,1.8008,1.7054,1.5834,1.4879,1.4879,1.5269,1.5552,1.5614,1.5693,1.5948,1.5623,1.5248,1.5462,1.4781,1.4146,1.4316,1.3812,1.3575,1.4392,1.454,1.4717,1.5294,1.541,1.5206,1.4628,1.4411,1.4061,1.335,1.3138,1.3042,1.2915,1.1999,1.1525,1.1789,1.1366,1.0813,1.0141,1.009,0.9891,0.9413,0.9387,0.9283,0.9113,0.908,0.9008,0.8804,0.8804,0.8804,0.8804,0.8804,0.8804,1.2158,1.2563,1.2717,1.2385,1.3007,1.3204,0.0,1.1584,1.1843,1.0547,1.0303,1.0303,1.0303,1.0303,1.045,1.0932,1.0938,1.1275,1.2358,0.0,0.0,0.0,0.0,0.0,0.0,0.0,0.0,0.0,0.0,0.0,0.0,2.3091,2.3091,2.3091,2.3091,2.3091,2.3091,2.3091,2.3091,2.3091,2.3091,2.2877,2.251,2.209,2.165,0.0,0.0,0.0,0.0,2.0605,2.0605,2.0605,2.0605,2.0605,2.0605,2.0605,2.0605,2.0605,2.0605,2.0,1.9131,1.8193,1.7936,1.7794,1.6853,1.5939,1.5411,1.6315,1.6602,1.6819,1.7725,1.6585,1.5573,1.703,1.5701,1.4471,1.5775,1.5076,1.4421,1.5225,1.5381,1.5381,1.541,1.541,1.541,1.5381,1.5049,1.4619,1.4163,1.3734,1.334,1.2954,1.2881,1.2593,1.1864,1.1789,1.1491,1.0838,1.0788,1.0788,1.0788,1.0788,1.0466,0.9814,0.9788,0.9465,0.8804,0.8804,0.8804,0.8804,0.8804,0.8804,1.1026,1.1319,1.1488,1.1357,1.2197,1.2629,1.1184,1.1531,1.1833,1.0547,1.0303,1.0303,1.0303,1.0303,1.0739,1.2087,1.1859,0.0,0.0,0.0,0.0,0.0,0.0,0.0,0.0,0.0,0.0,0.0,0.0,0.0,0.0,2.3091,2.3091,2.3091,2.3091,2.3091,2.3091,2.3091,2.3091,2.3091,2.2808,2.2604,2.249,2.1768,0.0,0.0,0.0,0.0,0.0,2.0605,2.0605,2.0605,2.0605,2.0605,2.0605,2.0605,2.0605,2.0605,2.0605,2.0233,1.9631,1.9045,1.8646,1.8309,1.7734,1.7364,1.7192,1.7467,1.7579,1.7647,1.794,1.7545,1.7223,1.7697,1.6811,1.5995,1.6418,1.5717,1.5108,1.5352,1.541,1.541,1.541,1.541,1.541,1.541,1.5049,1.4736,1.46,1.3955,1.3457,1.332,1.3047,1.2798,1.2559,1.2559,1.2246,1.1541,1.1491,1.1291,1.0813,1.0788,1.0686,1.0491,1.0491,1.0141,0.9491,0.9491,0.9237,0.8804,0.8804,0.8804,0.0,1.0674,1.0661,1.0855,1.155,1.1939,1.09,1.1186,1.1433,1.0478,1.0303,1.0303,1.0303,1.0303,1.0762,1.2181,1.2007,0.0,0.0,0.0,0.0,0.0,0.0,0.0,0.0,0.0,0.0,0.0,0.0,0.0,0.0,0.0,2.3091,2.3091,2.3091,2.3091,2.3091,2.3091,2.3013,2.2857,2.2637,2.2344,2.197,2.1434,0.0,0.0,0.0,0.0,0.0,2.0605,2.0605,2.0605,2.0605,2.0605,2.0605,2.0605,2.0605,2.0605,2.0605,2.0283,1.9844,1.9424,1.8887,1.8315,1.8086,1.8008,1.8008,1.8008,1.8008,1.8008,1.8008,1.8008,1.8008,1.8008,1.748,1.6934,1.6736,1.6132,1.5605,1.5439,1.541,1.541,1.541,1.541,1.541,1.541,1.5186,1.4961,1.4805,1.4316,1.3867,1.3545,1.3271,1.3047,1.2915,1.2905,1.2691,1.2236,1.2212,1.2039,1.1609,1.1584,1.1459,1.1191,1.1191,1.0838,1.0192,1.0192,0.984,0.9185,0.9185,0.9035,0.0,1.0489,1.0192,1.0685,1.1082,1.12,1.0538,1.0652,0.0,1.0391,1.0303,1.0322,1.0381,1.0371,1.0665,1.1675,1.1768,0.0,0.0,0.0,0.0,0.0,0.0,0.0,0.0,0.0,0.0,0.0,0.0,0.0,0.0,0.0,2.3091,2.3091,2.3091,2.3091,2.3091,2.3062,2.2857,2.251,2.2451,2.196,2.119,2.1161,0.0,0.0,0.0,0.0,0.0,2.0605,2.0605,2.0605,2.0605,2.0605,2.0605,2.0605,2.0605,2.0605,2.0605,2.0303,1.9883,1.9434,1.873,1.8047,1.8018,1.8008,1.8008,1.8008,1.8008,1.8008,1.8008,1.8008,1.8008,1.8008,1.7686,1.7266,1.6794,1.6377,1.5958,1.5498,1.541,1.541,1.541,1.541,1.541,1.541,1.541,1.5273,1.4883,1.4833,1.4482,1.3682,1.3574,1.3379,1.2983,1.2925,1.2905,1.2905,1.2905,1.2905,1.2905,1.2905,1.2584,1.1898,1.1839,1.1491,1.0864,1.0813,1.0491,0.9865,0.9865,0.9536,1.0284,0.0,0.9942,0.9848,1.0425,1.0892,0.0,1.063,1.0791,1.0391,1.0303,1.0498,1.1175,1.1007,1.1475,1.3698,1.345,0.0,0.0,0.0,0.0,0.0,0.0,0.0,0.0,0.0,0.0,0.0,0.0,0.0,0.0,0.0,2.3091,2.3091,2.3091,2.3091,2.3091,2.2779,2.2607,2.251,2.1804,2.1395,2.1181,2.0879,0.0,0.0,0.0,0.0,2.0605,2.0605,2.0605,2.0605,2.0605,2.0605,2.0605,2.0605,2.0605,2.0605,2.0605,2.0537,2.0331,1.9531,1.8926,1.8393,1.8105,1.8008,1.8008,1.8008,1.8008,1.8008,1.8008,1.8008,1.8008,1.8008,1.7686,1.7266,1.6794,1.6377,1.5958,1.5498,1.541,1.541,1.541,1.541,1.541,1.541,1.541,1.5381,1.5273,1.498,1.4707,1.4512,1.4163,1.3792,1.3389,1.3091,1.2905,1.2905,1.2905,1.2905,1.2905,1.2905,1.2822,1.2632,1.208,1.1715,1.1566,1.104,1.0712,1.0568,1.0568,1.0491,1.0225,1.0315,1.0346,1.044,1.0847,1.1164,1.0939,1.0762,1.0557,0.0,0.0,1.0508,1.1164,1.1252,1.1888,1.3877,0.0,0.0,0.0,0.0,0.0,0.0,0.0,0.0,0.0,0.0,0.0,0.0,0.0,0.0,0.0,0.0,2.3003,2.2818,2.2808,2.2896,2.3091,2.2682,2.2412,2.2217,2.1512,2.1083,2.0918,2.0713,2.0605,0.0,0.0,0.0,2.0605,2.0605,2.0605,2.0605,2.0605,2.0605,2.0605,2.0605,2.0605,2.0605,2.0605,2.0478,2.0156,1.9502,1.8994,1.852,1.8135,1.8008,1.8008,1.8008,1.8008,1.8008,1.8008,1.8008,1.8008,1.8008,1.7842,1.7549,1.7119,1.6836,1.6506,1.584,1.5703,1.5644,1.5449,1.541,1.541,1.541,1.541,1.541,1.541,1.5215,1.5,1.4805,1.457,1.4258,1.3802,1.3408,1.3111,1.2915,1.2905,1.2905,1.2905,1.2905,1.2905,1.2905,1.2501,1.2295,1.2295,1.194,1.1584,1.1266,1.1481,1.1413,1.0361,1.0751,1.1165,1.1308,1.1443,1.1521,1.1463,0.0,0.0,0.0,0.0,0.0,0.0,1.1633,0.0,0.0,0.0,0.0,0.0,0.0,0.0,0.0,0.0,0.0,0.0,0.0,0.0,0.0,0.0,0.0,0.0,0.0,0.0,2.2519,2.251,2.2613,2.2896,2.2529,2.2139,2.1777,2.1338,2.0937,2.0605,2.0605,2.0605,0.0,0.0,0.0,2.0605,2.0605,2.0605,2.0605,2.0605,2.0605,2.0605,2.0605,2.0605,2.0605,2.0605,2.0322,1.9932,1.9443,1.9043,1.8607,1.812,1.8008,1.8008,1.8008,1.8008,1.8008,1.8008,1.8008,1.8008,1.8008,1.8008,1.79,1.7471,1.7383,1.7151,1.6261,1.6095,1.5958,1.5488,1.541,1.541,1.541,1.541,1.541,1.541,1.541,1.5273,1.4922,1.4883,1.4707,1.4241,1.388,1.3496,1.3032,1.2935,1.2905,1.2905,1.2905,1.2905,1.2905,1.2905,1.2905,1.2905,1.2905,1.2612,1.2072,1.2472,1.2368,1.0713,1.1684,1.2191,1.056,1.0718,1.1172,1.0822,1.0649,0.0,0.0,0.0,0.0,0.0,0.0,0.0,0.0,0.0,0.0,0.0,0.0,0.0,0.0,0.0,0.0,0.0,0.0,0.0,0.0,0.0,0.0,0.0,0.0,0.0,2.2519,2.251,2.2373,2.208,2.165,2.1356,2.1288,2.0879,2.0674,2.0605,2.0605,2.0605,0.0,0.0,2.0605,2.0605,2.0605,2.0605,2.0605,2.0605,2.0605,2.0605,2.0605,2.0605,2.0605,2.0605,2.0556,2.037,1.9541,1.9238,1.9043,1.8252,1.8008,1.8008,1.8008,1.8008,1.8008,1.8008,1.8008,1.8008,1.8008,1.8008,1.79,1.7471,1.7383,1.7151,1.6261,1.6095,1.5958,1.5488,1.541,1.541,1.541,1.541,1.541,1.541,1.541,1.5391,1.5322,1.5312,1.5146,1.4717,1.4629,1.4248,1.3467,1.3076,1.2905,1.2905,1.2905,1.2905,1.2905,1.2905,1.2905,1.2905,1.2905,1.3007,1.3246,1.3314,1.3484,1.0147,1.0975,1.1621,1.0822,1.1357,1.1953,1.1328,1.1174,0.0,0.0,0.0,0.0,0.0,0.0,0.0,0.0,0.0,0.0,0.0,0.0,0.0,0.0,0.0,0.0,0.0,0.0,0.0,0.0,0.0,0.0,0.0,0.0,0.0,0.0,2.1785,2.1611,2.1212,2.0977,2.0996,2.119,2.0781,2.0605,2.0605,2.0605,2.0605,2.0605,0.0,2.0605,2.0605,2.0605,2.0605,2.0605,2.0605,2.0605,2.0605,2.0605,2.0605,2.0605,2.0605,2.0605,2.0498,1.9834,1.9473,1.917,1.85,1.8159,1.8008,1.8008,1.8008,1.8008,1.8008,1.8008,1.8008,1.8008,1.8008,1.7959,1.7764,1.7715,1.7471,1.6592,1.6426,1.6211,1.5527,1.541,1.541,1.541,1.541,1.541,1.541,1.541,1.541,1.541,1.541,1.5332,1.5137,1.4912,1.4512,1.386,1.3447,1.332,1.3545,1.3555,1.3555,1.3555,1.3555,1.3555,1.3555,1.3555,1.3627,1.3821,1.4082,1.4297,0.9854,1.039,1.0941,1.117,1.1824,1.2302,1.1949,1.1868,1.193,0.0,0.0,0.0,0.0,0.0,0.0,0.0,0.0,0.0,0.0,0.0,0.0,0.0,0.0,0.0,0.0,0.0,0.0,0.0,0.0,0.0,0.0,0.0,0.0,0.0,2.119,2.1016,2.0605,2.0605,2.0732,2.1074,2.0772,2.0605,2.0605,2.0605,2.0605,2.0605,2.0605,2.0605,2.0605,2.0605,2.0605,2.0605,2.0605,2.0605,2.0605,2.0605,2.0605,2.0605,2.0605,2.0605,2.0537,2.0059,1.9629,1.9209,1.8734,1.8305,1.8008,1.8008,1.8008,1.8008,1.8008,1.8008,1.8008,1.8008,1.8008,1.8008,1.8008,1.8008,1.7783,1.6999,1.6775,1.6453,1.5703,1.5478,1.541,1.541,1.541,1.541,1.541,1.541,1.541,1.541,1.541,1.541,1.541,1.5029,1.4687,1.4416,1.3919,1.3773,1.4094,1.4104,1.4104,1.4104,1.4104,1.4104,1.4104,1.4104,1.4163,1.427,1.4629,1.4834,1.0585,1.0839,1.0946,1.1243,1.1111,1.1194,1.2143,1.2543,0.0,1.3667,0.0,0.0,0.0,0.0,0.0,0.0,0.0,0.0,0.0,0.0,0.0,0.0,0.0,0.0,0.0,0.0,0.0,0.0,0.0,0.0,0.0,0.0,0.0,0.0,0.0,2.1016,2.0605,2.0605,2.0615,2.0654,2.0615,2.0605,2.0605,2.0605,2.0605,2.0605,2.0605,2.0605,2.0605,2.0605,2.0605,2.0605,2.0605,2.0605,2.0605,2.0605,2.0605,2.0605,2.0605,2.0605,2.0537,2.0059,1.9629,1.9209,1.8734,1.8305,1.8008,1.8008,1.8008,1.8008,1.8008,1.8008,1.8008,1.8008,1.8008,1.8008,1.8008,1.8008,1.7881,1.7422,1.7012,1.6551,1.6124,1.5684,1.541,1.541,1.541,1.541,1.541,1.541,1.541,1.541,1.541,1.541,1.541,1.5029,1.4941,1.5264,1.4523,1.4075,1.4104,1.4104,1.4104,1.4104,1.4104,1.4104,1.4104,1.4104,1.4309,1.4736,1.4775,1.5,0.962,1.0303,1.0927,1.1072,1.1904,0.0,0.0,1.2657,1.3931,1.462,1.6107,0.0,0.0,0.0,0.0,0.0,0.0,0.0,0.0,0.0,0.0,0.0,0.0,0.0,0.0,0.0,0.0,0.0,0.0,0.0,0.0,0.0,0.0,0.0,2.082,2.0732,2.0605,2.0605,2.0605,2.0605,2.0605,2.0605,2.0605,2.0605,2.0605,2.0605,2.0605,2.0605,2.0605,2.0605,2.0605,2.0605,2.0605,2.0605,2.0605,2.0605,2.0605,2.0605,2.0605,2.0605,2.0576,2.041,1.9891,1.9258,1.9092,1.8555,1.8008,1.8008,1.8008,1.8008,1.8008,1.8008,1.8008,1.8008,1.8008,1.8008,1.8008,1.8008,1.7881,1.7461,1.7246,1.6992,1.6553,1.6113,1.585,1.585,1.5586,1.541,1.541,1.541,1.541,1.541,1.541,1.541,1.541,1.5264,1.5244,1.54,1.4863,1.4658,1.4894,1.4903,1.4903,1.4903,1.4903,1.4903,1.4903,1.4903,1.501,1.5176,1.5176,1.5254,0.9404,1.0146,1.0981,1.1387,0.0,0.0,1.2035,1.3543,1.5316,1.5934,1.7182,0.0,0.0,0.0,0.0,0.0,0.0,0.0,0.0,0.0,0.0,0.0,0.0,0.0,0.0,0.0,0.0,0.0,0.0,0.0,0.0,0.0,0.0,0.0,2.0605,2.0605,2.0605,2.0605,2.0605,2.0605,2.0605,2.0605,2.0605,2.0895,2.0895,2.0605,2.0895,2.0857,2.0605,2.0605,2.0605,2.0605,2.0605,2.0605,2.0605,2.0605,2.0605,2.0605,2.0605,2.0605,2.0605,2.0605,2.0018,1.9287,1.9287,1.8691,1.8008,1.8008,1.8008,1.8008,1.8008,1.8008,1.8008,1.8008,1.8008,1.8008,1.8008,1.8008,1.793,1.7637,1.7471,1.7285,1.6992,1.6572,1.6261,1.6114,1.584,1.5566,1.543,1.541,1.541,1.541,1.541,1.541,1.541,1.541,1.541,1.541,1.5146,1.5107,1.54,1.541,1.541,1.541,1.541,1.541,1.541,1.541,1.541,1.541,1.541,1.541,1.0293,1.0596,1.1166,1.2234,0.0,0.0,1.3402,1.5428,1.7154,1.7816,0.0,1.8744,0.0,0.0,0.0,0.0,0.0,0.0,0.0,0.0,0.0,0.0,0.0,0.0,0.0,0.0,0.0,0.0,0.0,0.0,0.0,0.0,0.0,0.0,2.0605,2.0605,2.0605,2.0605,2.0605,2.0605,2.0644,2.0605,2.0644,2.1555,2.1479,2.0673,2.1593,2.1479,2.0605,2.0605,2.0605,2.0605,2.0605,2.0605,2.0605,2.0605,2.0605,2.0605,2.0605,2.0605,2.0605,2.0605,2.0018,1.9287,1.9287,1.8691,1.8008,1.8008,1.8008,1.8008,1.8008,1.8008,1.8008,1.8008,1.8008,1.8008,1.8008,1.8008,1.8008,1.8008,1.7676,1.7425,1.7425,1.7031,1.656,1.6173,1.6105,1.5938,1.5469,1.541,1.541,1.541,1.541,1.541,1.541,1.541,1.541,1.541,1.541,1.541,1.541,1.541,1.541,1.541,1.541,1.541,1.541,1.541,1.541,1.541,1.541,1.541,0.9893,1.1035,0.0,1.2342,0.0,0.0,0.0,1.6311,0.0,0.0,0.0,0.0,0.0,0.0,0.0,0.0,0.0,0.0,0.0,0.0,0.0,0.0,0.0,0.0,0.0,0.0,0.0,0.0,0.0,0.0,0.0,0.0,0.0,0.0,2.0605,2.0605,2.0605,2.126,2.1593,2.1593,2.2301,2.1935,2.0644,2.1555,2.1849,2.1593,2.1886,2.1849,2.1593,2.1593,2.1193,2.076,2.2124,2.1783,2.0673,2.1336,2.1155,2.0605,2.0605,2.0605,2.0605,2.0605,2.0018,1.9287,1.9287,1.8691,1.8008,1.8008,1.8008,1.8134,1.8754,1.8911,1.8754,1.8144,1.8008,1.8008,1.8008,1.8008,1.8008,1.8008,1.791,1.7822,1.7822,1.7471,1.7148,1.7044,1.6486,1.5938,1.5469,1.541,1.541,1.541,1.541,1.541,1.541,1.541,1.5613,1.6151,1.57,1.541,1.541,1.541,1.541,1.541,1.541,1.541,1.541,1.541,1.541,1.541,1.541,1.541,1.0624,1.1969,0.0,1.3932,1.5601,1.7285,1.7743,0.0,0.0,0.0,0.0,0.0,0.0,0.0,0.0,0.0,0.0,0.0,0.0,0.0,0.0,0.0,0.0,0.0,0.0,0.0,0.0,0.0,0.0,0.0,0.0,0.0,0.0,0.0,2.0605,2.0605,2.0605,2.1517,2.1989,2.2027,2.3036,2.2888,2.1783,2.2739,2.2962,2.259,2.2178,2.2215,2.2553,2.2178,2.1886,2.1859,2.3036,2.2526,2.1221,2.1773,2.1413,2.0605,2.0605,2.0605,2.0605,2.0605,2.0234,1.9811,1.9811,1.9457,1.9044,1.9044,1.9044,1.9144,1.9694,1.9814,1.9595,1.8721,1.8529,1.8529,1.8529,1.8236,1.811,1.8462,1.8236,1.8008,1.8008,1.7803,1.7578,1.7402,1.6777,1.6172,1.5732,1.5674,1.5605,1.543,1.541,1.541,1.541,1.5671,1.6036,1.6464,1.6368,1.6273,1.6273,1.5719,1.541,1.541,1.541,1.541,1.541,1.541,1.541,1.541,1.541,1.541,1.1921,0.0,0.0,1.6268,1.6478,0.0,1.8309,0.0,0.0,0.0,0.0,0.0,0.0,0.0,0.0,0.0,0.0,0.0,0.0,0.0,0.0,0.0,0.0,0.0,0.0,0.0,0.0,0.0,0.0,0.0,0.0,0.0,0.0,0.0,2.0605,2.0605,2.0605,2.1631,2.214,0.0,2.3257,2.377,2.3806,2.4636,2.448,2.3588,2.2664,2.2739,2.3441,2.2627,2.2776,2.3514,2.3697,2.311,2.214,2.214,2.1555,2.0712,2.0644,2.0644,2.0712,2.0712,2.0768,2.0797,2.0755,2.0691,2.0646,2.0602,2.059,2.0623,2.0687,2.0719,2.0526,1.9726,1.9464,1.9431,1.9431,1.8787,1.8462,1.9266,1.8787,1.8236,1.8236,1.8236,1.8097,1.7694,1.7192,1.6715,1.6324,1.6214,1.5987,1.5518,1.5469,1.5459,1.5391,1.6093,1.6521,1.6595,1.7219,1.7633,1.7715,1.6358,1.5584,1.5497,1.5584,1.5584,1.5497,1.5497,1.5497,1.5497,1.5439,1.541,1.1584,1.2891,0.0,0.0,1.7876,1.9235,0.0,0.0,0.0,0.0,0.0,0.0,0.0,0.0,0.0,0.0,0.0,0.0,0.0,0.0,0.0,0.0,0.0,0.0,0.0,0.0,0.0,0.0,0.0,0.0,0.0,0.0,0.0,2.0605,2.0605,2.0605,2.0605,2.2301,2.3184,0.0,2.4981,2.5861,2.5838,2.5252,2.4898,2.4671,2.4456,2.4036,2.3551,2.412,2.4011,2.3661,2.524,2.4767,2.3184,2.3184,2.2553,2.1593,2.0867,2.1078,2.1707,2.1707,2.2029,2.2315,2.1847,2.1463,2.1149,2.0735,2.059,2.0751,2.1428,2.1616,2.1553,2.1396,2.0814,2.0333,2.0333,2.0171,2.0107,2.0268,2.0171,2.0042,2.0042,2.0042,1.9878,1.943,1.868,1.805,1.7626,1.7009,1.6416,1.5997,1.5948,1.5811,1.5439,1.6093,1.6765,1.733,1.7523,1.7841,1.8447,1.7594,1.6856,1.6255,1.6838,1.6828,1.6265,1.6265,1.6265,1.6265,1.5671,1.541,1.1868,0.0,0.0,1.7373,0.0,0.0,0.0,0.0,0.0,0.0,0.0,0.0,0.0,0.0,0.0,0.0,0.0,0.0,0.0,0.0,0.0,0.0,0.0,0.0,0.0,0.0,0.0,0.0,0.0,0.0,0.0,2.0605,2.0605,2.0605,2.0605,2.0605,2.0605,2.2526,2.3514,2.3514,2.5534,2.6499,2.6487,2.5955,2.5734,2.5699,2.5194,2.4969,2.4945,2.4969,2.4957,2.5052,2.6094,2.5581,2.4228,2.4228,2.3599,2.2664,2.2151,2.2301,2.2739,2.2739,2.3081,2.3421,2.2822,2.2614,2.2511,2.1945,2.1803,2.1956,2.2712,2.2683,2.2549,2.2849,2.2024,2.1239,2.1239,2.0878,2.0719,2.1144,2.0878,2.059,2.059,2.059,2.0533,2.0275,1.9851,1.9402,1.8986,1.8499,1.8071,1.7669,1.7617,1.7427,1.6935,1.7787,1.8318,1.8147,1.8736,1.9123,1.9214,1.8859,1.8151,1.7062,1.7413,1.7413,1.7034,1.7034,1.7034,1.7006,1.6283,1.5921,1.1904,0.0,1.5596,1.8369,1.9492,0.0,0.0,0.0,0.0,0.0,0.0,0.0,0.0,0.0,0.0,0.0,0.0,0.0,0.0,0.0,0.0,0.0,0.0,0.0,0.0,0.0,0.0,0.0,0.0,0.0,2.0605,2.0605,2.0605,2.0605,2.0605,2.0605,2.0605,2.2526,2.3514,2.3514,2.5534,2.6449,2.6348,2.6449,2.6499,2.6452,2.5629,2.5734,2.643,2.5594,2.5734,2.6499,2.6499,2.599,2.5229,2.504,2.448,2.3734,2.3551,2.3624,2.3745,2.3745,2.413,2.4474,2.3888,2.3969,2.4142,2.3446,2.3258,2.3346,2.3753,2.3459,2.3233,2.374,2.2942,2.2094,2.2094,2.1553,2.1227,2.197,2.1522,2.1037,2.1037,2.1037,2.1037,2.1037,2.091,2.0687,2.031,2.0099,1.9845,1.9452,1.9396,1.9204,1.8678,1.9714,1.9996,1.9048,2.0138,2.0578,1.9974,1.9949,1.9326,1.8015,1.7977,1.7934,1.7797,1.7797,1.7797,1.7759,1.7034,1.668,1.0371,0.0,1.5791,0.0,1.9053,0.0,0.0,0.0,0.0,0.0,0.0,0.0,0.0,0.0,0.0,0.0,0.0,0.0,0.0,0.0,0.0,0.0,0.0,0.0,0.0,0.0,0.0,0.0,0.0,0.0,2.0605,2.0605,2.0605,2.0605,2.0605,2.0605,2.0605,2.2526,2.3514,2.3514,2.5534,2.6235,2.5724,2.6273,2.6499,2.6499,2.6349,2.6383,2.6499,2.6349,2.6383,2.6499,2.6499,2.6418,2.6198,2.5335,2.4933,2.4671,2.3818,2.4072,2.4791,2.4791,2.5428,2.609,2.5482,2.5336,2.5172,2.4167,2.3891,2.3791,2.3333,2.3158,2.312,2.3195,2.3067,2.2944,2.2944,2.2854,2.2793,2.2914,2.2854,2.275,2.275,2.275,2.275,2.275,2.2156,2.1686,2.1658,2.0966,2.0331,1.9868,1.9812,1.9651,1.9226,1.9913,2.0335,2.0191,2.0955,2.1157,2.0591,2.0578,2.0234,1.9514,1.9501,1.9202,1.8555,1.8555,1.8555,1.8528,1.7797,1.744,1.1235,1.3184,1.5206,0.0,0.0,0.0,0.0,0.0,0.0,0.0,0.0,0.0,0.0,0.0,0.0,0.0,0.0,0.0,0.0,0.0,0.0,0.0,0.0,0.0,0.0,0.0,0.0,0.0,0.0,2.0605,2.0605,2.0605,2.0605,2.0605,2.0605,2.0488,2.0205,2.2092,2.344,2.4227,2.5441,2.5686,2.5172,2.5423,2.5908,2.6499,2.6499,2.6499,2.6499,2.6499,2.6499,2.6499,2.6499,2.6499,2.6465,2.5978,2.5838,2.5769,2.5311,2.5464,2.5838,2.5838,2.6129,2.6386,2.5774,2.5598,2.5435,2.4669,2.4456,2.4469,2.4506,2.4036,2.3672,2.3973,2.3559,2.3108,2.3108,2.3108,2.3108,2.3108,2.3108,2.3108,2.3108,2.3108,2.3108,2.3108,2.2793,2.2567,2.2567,2.2249,2.1937,2.1728,2.1704,2.1488,2.1031,2.1555,2.1657,2.1055,2.1599,2.1707,2.1182,2.0855,2.0578,2.0314,1.9962,1.9643,1.9307,1.9307,1.9307,1.9307,1.8555,1.8232,1.1593,1.2832,1.4046,1.6572,0.0,0.0,0.0,0.0,0.0,0.0,0.0,0.0,0.0,0.0,0.0,0.0,0.0,0.0,0.0,0.0,0.0,0.0,0.0,0.0,0.0,0.0,0.0,0.0,0.0,2.0605,2.0605,2.0605,2.0556,2.0449,2.0439,2.03,2.0081,2.1922,2.3439,2.4587,2.5285,2.5247,2.4619,2.4895,2.5385,2.6084,2.6084,2.6147,2.626,2.6135,2.6248,2.6474,2.6336,2.6361,2.6499,2.6499,2.6499,2.6499,2.6499,2.6499,2.6499,2.6499,2.6499,2.6411,2.5984,2.5812,2.5699,2.5172,2.4988,2.5039,2.5335,2.4808,2.4305,2.4687,2.4048,2.3283,2.3133,2.3108,2.3108,2.3108,2.3108,2.3108,2.3108,2.3108,2.3108,2.3108,2.3108,2.3108,2.3108,2.3108,2.3108,2.3108,2.3108,2.2945,2.2531,2.2869,2.2757,2.1958,2.2297,2.2272,2.1719,2.1333,2.1043,2.0905,2.0451,2.0087,1.9798,1.9798,1.9798,1.9798,1.9228,1.8992,1.0044,1.1066,0.0,1.4431,0.0,0.0,0.0,0.0,0.0,0.0,0.0,0.0,0.0,0.0,0.0,0.0,0.0,0.0,0.0,0.0,0.0,0.0,0.0,0.0,0.0,0.0,0.0,0.0,0.0,2.0605,2.0605,2.0605,2.0419,1.9961,1.9951,2.0135,2.0573,2.2355,2.355,2.4054,2.5096,2.5046,2.4079,2.5084,2.5322,2.4876,2.4876,2.5184,2.5598,2.5109,2.5523,2.6436,2.585,2.6009,2.6499,2.6499,2.6499,2.6499,2.6499,2.6499,2.6499,2.6499,2.6499,2.6487,2.6461,2.6449,2.6336,2.5724,2.5548,2.5448,2.4983,2.4788,2.4763,2.4775,2.4381,2.3803,2.3221,2.3108,2.3108,2.3108,2.3108,2.3108,2.3108,2.3108,2.3108,2.3108,2.3108,2.3108,2.3108,2.3108,2.3108,2.3108,2.3108,2.3095,2.3058,2.3083,2.3083,2.302,2.3045,2.2819,2.2297,2.2234,2.1983,2.1455,2.1446,2.0878,1.9798,1.9798,1.9798,1.9798,1.9747,1.9747,1.0291,1.1316,0.0,0.0,0.0,0.0,0.0,0.0,0.0,0.0,0.0,0.0,0.0,0.0,0.0,0.0,0.0,0.0,0.0,0.0,0.0,0.0,0.0,0.0,0.0,0.0,0.0,0.0,0.0,0.0,2.0605,2.0303,2.0333,2.0703,2.0502,2.0825,2.1811,2.2552,2.3103,2.3421,2.4537,2.4519,2.3446,2.423,2.4469,2.4293,2.4293,2.4594,2.5109,2.5259,2.5548,2.5925,2.6122,2.6311,2.6499,2.6499,2.6499,2.6499,2.6499,2.6499,2.6499,2.6499,2.6499,2.6499,2.6499,2.6499,2.6449,2.6248,2.6185,2.6135,2.5925,2.5598,2.5146,2.4456,2.4142,2.3841,2.3233,2.3108,2.3108,2.3108,2.3108,2.3108,2.3108,2.3108,2.3108,2.3108,2.3108,2.3108,2.3108,2.3108,2.3108,2.3108,2.3108,2.3108,2.3108,2.3108,2.3108,2.3108,2.3108,2.3007,2.2819,2.2468,2.2221,2.202,2.1669,2.1144,2.0377,2.0377,2.0189,1.9811,2.0214,2.0377,1.0211,1.1078,0.0,0.0,0.0,0.0,0.0,0.0,0.0,0.0,0.0,0.0,0.0,0.0,0.0,0.0,0.0,0.0,0.0,0.0,0.0,0.0,0.0,0.0,0.0,0.0,0.0,0.0,0.0,0.0,2.0352,2.0361,2.0598,2.1169,2.1092,2.143,2.2281,2.2654,2.2923,2.3108,2.4061,2.4023,2.312,2.3728,2.4004,2.4004,2.4004,2.4418,2.5096,2.5272,2.5548,2.59,2.6135,2.6323,2.6499,2.6499,2.6499,2.6499,2.6499,2.6499,2.6499,2.6499,2.6499,2.6499,2.6499,2.6499,2.6499,2.6499,2.6499,2.6499,2.6499,2.621,2.5661,2.4745,2.4406,2.4117,2.3521,2.3246,2.3108,2.3108,2.3108,2.3108,2.3108,2.3108,2.3108,2.3108,2.3108,2.3108,2.3108,2.3108,2.3108,2.3108,2.3108,2.3108,2.3108,2.3108,2.3108,2.3108,2.3108,2.3108,2.3108,2.2757,2.2556,2.2556,2.2234,2.1769,2.1245,2.1069,2.0767,2.0376,2.0792,2.0968,0.0,0.0,0.0,0.0,0.0,0.0,0.0,0.0,0.0,0.0,0.0,0.0,0.0,0.0,0.0,0.0,0.0,0.0,0.0,0.0,0.0,0.0,0.0,0.0,0.0,0.0,0.0,0.0,0.0,2.0467,1.9987,2.0774,2.124,2.1219,2.1684,2.1939,2.1939,2.2689,2.3108,2.3108,2.3715,2.369,2.312,2.3728,2.4004,2.4017,2.4017,2.4632,2.5573,2.5059,2.5473,2.6411,2.5837,2.5963,2.6499,2.6499,2.6499,2.6499,2.6499,2.6499,2.6499,2.6499,2.6499,2.6499,2.6499,2.6499,2.6499,2.6499,2.6499,2.6499,2.6499,2.6499,2.6348,2.5711,2.5197,2.4637,2.4092,2.3496,2.3108,2.3108,2.3108,2.3108,2.3108,2.3108,2.3108,2.3108,2.3108,2.3108,2.3108,2.3108,2.3108,2.3108,2.3108,2.3108,2.3108,2.3108,2.3108,2.3108,2.3108,2.3108,2.3108,2.3108,2.3108,2.3108,2.3108,2.2844,2.2305,2.1782,2.1506,2.1493,2.1506,2.1518,1.0522,0.0,0.0,0.0,0.0,0.0,0.0,0.0,0.0,0.0,0.0,0.0,0.0,0.0,0.0,0.0,0.0,0.0,0.0,0.0,0.0,0.0,0.0,0.0,0.0,0.0,0.0,0.0,2.2121,2.188,2.1371,2.1833,2.1994,2.1724,2.2395,2.2763,2.2763,2.2975,2.3108,2.3108,2.3715,2.369,2.312,2.3728,2.4217,2.4594,2.4594,2.5209,2.621,2.5611,2.5561,2.5862,2.616,2.6348,2.6499,2.6499,2.6499,2.6499,2.6499,2.6499,2.6499,2.6499,2.6499,2.6499,2.6499,2.6499,2.6499,2.6499,2.6499,2.6499,2.6499,2.6499,2.6248,2.5259,2.4888,2.4525,2.3559,2.3221,2.3108,2.3108,2.3108,2.3108,2.3108,2.3108,2.3108,2.3108,2.3108,2.3108,2.3108,2.3108,2.3108,2.3108,2.3108,2.3108,2.3108,2.3108,2.3108,2.3108,2.3108,2.3108,2.3108,2.3108,2.3108,2.3108,2.3108,2.3032,2.2882,2.2347,2.1882,2.1493,2.1895,2.2297,1.1623,0.0,0.0,0.0,0.0,0.0,0.0,0.0,0.0,0.0,0.0,0.0,0.0,0.0,0.0,0.0,0.0,0.0,0.0,0.0,0.0,0.0,0.0,0.0,0.0,0.0,0.0,2.239,2.2378,2.2294,2.215,2.2203,2.2312,2.2396,2.2854,2.3108,2.3108,2.3108,2.3108,2.3108,2.3446,2.3434,2.312,2.3728,2.4167,2.4506,2.4946,2.5511,2.6122,2.6034,2.5996,2.6021,2.6361,2.6499,2.6499,2.6499,2.6499,2.6499,2.6499,2.6499,2.6499,2.6499,2.6499,2.6499,2.6499,2.6499,2.6499,2.6499,2.6499,2.6499,2.6499,2.6499,2.6273,2.536,2.4938,2.455,2.3659,2.3283,2.3108,2.3108,2.3108,2.3108,2.3108,2.3108,2.3108,2.3108,2.3108,2.3108,2.3108,2.3108,2.3108,2.3108,2.3108,2.3108,2.3108,2.3108,2.3108,2.3108,2.3108,2.3108,2.3108,2.3108,2.3108,2.3108,2.3108,2.3108,2.3108,2.2782,2.2456,2.2184,2.2481,2.2794,1.2881,1.2977,0.0,0.0,0.0,0.0,0.0,1.5091,0.0,0.0,0.0,0.0,0.0,0.0,0.0,0.0,0.0,0.0,0.0,0.0,0.0,0.0,0.0,0.0,0.0,0.0,2.2207,2.215,2.206,2.2204,2.2547,2.2221,2.2353,2.3078,2.3108,2.3108,2.3108,2.3108,2.3108,2.3108,2.3108,2.3108,2.312,2.3665,2.3941,2.4054,2.5071,2.5536,2.5636,2.6185,2.6436,2.6499,2.6499,2.6499,2.6499,2.6499,2.6499,2.6499,2.6499,2.6499,2.6499,2.6499,2.6499,2.6499,2.6499,2.6499,2.6499,2.6499,2.6499,2.6499,2.6499,2.6499,2.6348,2.5737,2.5247,2.4725,2.4205,2.364,2.3221,2.3283,2.3195,2.3108,2.3108,2.3108,2.3108,2.3108,2.3108,2.3108,2.3108,2.3108,2.3108,2.3108,2.3108,2.3108,2.3108,2.3108,2.3108,2.3108,2.3108,2.3108,2.3108,2.3108,2.3108,2.3108,2.3108,2.3108,2.3108,2.3108,2.3108,2.3108,2.3108,2.3108,1.3946,1.4155,1.4406,0.0,0.0,0.0,0.0,1.3686,0.0,0.0,0.0,0.0,0.0,0.0,0.0,0.0,0.0,0.0,0.0,0.0,0.0,0.0,0.0,0.0,0.0,0.0,2.4059,2.3617,2.3131,2.2899,2.2984,2.2903,2.2944,2.3108,2.3108,2.3108,2.3108,2.3108,2.3108,2.3108,2.3108,2.3108,2.3108,2.3221,2.3521,2.4029,2.4695,2.5209,2.5598,2.5724,2.6072,2.6499,2.6499,2.6499,2.6499,2.6499,2.6499,2.6499,2.6499,2.6499,2.6499,2.6499,2.6499,2.6499,2.6499,2.6499,2.6499,2.6499,2.6499,2.6499,2.6499,2.6499,2.6348,2.5737,2.5523,2.531,2.477,2.4217,2.3954,2.4374,2.3735,2.3108,2.3108,2.3108,2.3108,2.3108,2.3108,2.3108,2.3108,2.3108,2.3108,2.3108,2.3108,2.3108,2.3108,2.3108,2.3108,2.3108,2.3108,2.3108,2.3108,2.3108,2.3108,2.3108,2.3108,2.3108,2.3108,2.3108,2.3108,2.3108,2.3108,2.3108,1.5198,1.5085,1.5236,1.492,0.0,0.0,0.0,0.0,0.0,0.0,0.0,0.0,0.0,0.0,0.0,0.0,0.0,0.0,0.0,0.0,0.0,0.0,0.0,0.0,0.0,0.0,2.3835,2.3559,2.3271,2.3108,2.3108,2.3108,2.3108,2.3108,2.3108,2.3108,2.3108,2.3108,2.3108,2.3108,2.3108,2.3108,2.3108,2.3409,2.3534,2.3584,2.4424,2.4808,2.482,2.5096,2.5385,2.5636,2.5636,2.5636,2.5674,2.5971,2.6059,2.6097,2.6399,2.6499,2.6499,2.6499,2.6499,2.6499,2.6499,2.6499,2.6499,2.6499,2.6499,2.6499,2.6499,2.6499,2.6348,2.5737,2.5598,2.5448,2.4933,2.4575,2.4494,2.4738,2.4111,2.3534,2.3534,2.3296,2.3108,2.3108,2.3108,2.3108,2.3108,2.3108,2.3108,2.3108,2.3108,2.3108,2.3108,2.3108,2.3108,2.3108,2.3108,2.3108,2.3108,2.3108,2.3108,2.3108,2.3108,2.3108,2.3108,2.3108,2.3108,2.3108,2.3108,2.3108,0.0,0.0,0.0,0.0,0.0,1.4481,0.0,0.0,0.0,1.5693,0.0,0.0,0.0,0.0,0.0,0.0,0.0,0.0,0.0,0.0,0.0,0.0,0.0,0.0,0.0,0.0,2.2594,2.292,2.2744,2.2769,2.3083,2.3108,2.3108,2.3108,2.3108,2.3108,2.3108,2.3108,2.3108,2.3108,2.3108,2.3108,2.312,2.3584,2.3547,2.3158,2.4186,2.4406,2.4029,2.4481,2.4637,2.4669,2.475,2.4788,2.485,2.541,2.5598,2.5686,2.6298,2.6499,2.6499,2.6499,2.6499,2.6499,2.6499,2.6499,2.6499,2.6499,2.6499,2.6499,2.6499,2.6499,2.6373,2.5908,2.5762,2.5649,2.5222,2.5046,2.5008,2.5109,2.4607,2.4117,2.4017,2.3484,2.3108,2.3108,2.3108,2.3108,2.3108,2.3108,2.3108,2.3108,2.3108,2.3108,2.3108,2.3108,2.3108,2.3108,2.3108,2.3108,2.3108,2.3108,2.3108,2.3108,2.3108,2.3108,2.3108,2.3108,2.3108,2.3108,2.3108,2.3108,0.0,0.0,0.0,0.0,1.7064,0.0,0.0,0.0,1.4632,1.4412,0.0,0.0,0.0,0.0,0.0,0.0,0.0,0.0,0.0,0.0,0.0,0.0,0.0,0.0,0.0,0.0,2.0803,2.2297,2.1493,2.1594,2.302,2.3108,2.3108,2.3108,2.3108,2.3108,2.3108,2.3108,2.3108,2.3108,2.3108,2.3108,2.3108,2.317,2.3158,2.3145,2.3816,2.4054,2.4004,2.4067,2.4092,2.4142,2.46,2.4788,2.485,2.541,2.5598,2.5686,2.6298,2.6499,2.6499,2.6499,2.6499,2.6499,2.6499,2.6499,2.6499,2.6499,2.6499,2.6499,2.6499,2.6499,2.6474,2.6411,2.6399,2.6386,2.6323,2.5908,2.5661,2.621,2.5435,2.4569,2.4079,2.3484,2.3108,2.3108,2.3108,2.3108,2.3108,2.3108,2.3108,2.3108,2.3108,2.3108,2.3108,2.3108,2.3108,2.3108,2.3108,2.3108,2.3108,2.3108,2.3108,2.3108,2.3108,2.3108,2.3108,2.3108,2.3108,2.3108,2.3108,2.3108,0.0,0.0,0.0,0.0,0.0,0.0,0.0,0.0,1.4551,0.0,0.0,0.0,0.0,0.0,0.0,0.0,0.0,0.0,0.0,0.0,0.0,0.0,0.0,0.0,0.0,0.0,0.0,0.0,0.0,2.0891,2.2543,2.2631,2.2782,2.3095,2.3108,2.3108,2.3108,2.3108,2.3108,2.3108,2.3108,2.3108,2.3108,2.3108,2.3108,2.312,2.3358,2.3471,2.3471,2.3471,2.3471,2.3521,2.4117,2.4343,2.4406,2.4946,2.5335,2.5686,2.6298,2.6499,2.6499,2.6499,2.6499,2.6499,2.6499,2.6499,2.6499,2.6499,2.6499,2.6499,2.6499,2.6499,2.6499,2.6499,2.6499,2.6499,2.6499,2.6298,2.6197,2.6449,2.5812,2.5197,2.4971,2.4205,2.3496,2.3158,2.3108,2.3108,2.3108,2.3108,2.3108,2.3108,2.3108,2.3108,2.3108,2.3108,2.3108,2.3108,2.3108,2.3108,2.3108,2.3108,2.3108,2.3108,2.3108,2.3108,2.3108,2.3108,2.3108,2.3108,2.3108,2.3108,1.9171,0.0,0.0,0.0,0.0,0.0,0.0,0.0,0.0,0.0,0.0,0.0,0.0,0.0,0.0,0.0,0.0,0.0,0.0,0.0,0.0,0.0,0.0,0.0,0.0,0.0,0.0,0.0,0.0,0.0,2.1983,2.2234,2.2498,2.2869,2.302,2.3108,2.3108,2.3108,2.3108,2.3108,2.3108,2.3108,2.3108,2.3108,2.3108,2.3108,2.3108,2.3108,2.3108,2.3108,2.3108,2.3158,2.3766,2.4092,2.4293,2.4833,2.5272,2.5686,2.6298,2.6499,2.6499,2.6499,2.6499,2.6499,2.6499,2.6499,2.6499,2.6499,2.6499,2.6499,2.6499,2.6499,2.6499,2.6499,2.6499,2.6499,2.6499,2.6499,2.6499,2.6499,2.616,2.5787,2.5624,2.4833,2.4029,2.3434,2.3346,2.3283,2.312,2.3305,2.3424,2.3424,2.3619,2.3649,2.3454,2.3424,2.3335,2.3108,2.3305,2.3424,2.3424,2.3424,2.3424,2.3424,2.3424,2.3424,2.3424,2.3619,2.3619,2.3424,2.3198,2.3108,0.0,0.0,0.0,1.734,0.0,0.0,0.0,0.0,1.5655,0.0,0.0,0.0,0.0,0.0,0.0,0.0,0.0,0.0,0.0,0.0,0.0,0.0,0.0,0.0,0.0,0.0,0.0,0.0,0.0,0.0,2.1368,2.202,2.2322,2.2334,2.2832,2.3108,2.3108,2.3108,2.3108,2.3108,2.3108,2.3108,2.3108,2.3108,2.3108,2.3108,2.3108,2.3108,2.3108,2.3108,2.3108,2.3158,2.3766,2.433,2.4825,2.5385,2.5586,2.5686,2.6298,2.6499,2.6499,2.6499,2.6499,2.6499,2.6499,2.6499,2.6499,2.6499,2.6499,2.6499,2.6499,2.6499,2.6499,2.6499,2.6499,2.6499,2.6499,2.6499,2.6499,2.6499,2.6474,2.6285,2.5686,2.5146,2.4575,2.4054,2.3966,2.3766,2.3183,2.3767,2.4263,2.4263,2.4908,2.5035,2.4308,2.4263,2.3943,2.3155,2.3826,2.4263,2.4263,2.4263,2.4263,2.4263,2.4263,2.4263,2.4263,2.4979,2.4951,2.4234,2.3454,2.3108,0.0,0.0,2.1493,1.9246,0.0,0.0,0.0,0.0,0.0,0.0,0.0,0.0,0.0,0.0,0.0,0.0,0.0,0.0,0.0,0.0,0.0,0.0,0.0,0.0,0.0,0.0,0.0,0.0,0.0,0.0,0.0,2.1255,2.1933,2.2297,2.2819,2.3108,2.3108,2.3108,2.3108,2.3108,2.3108,2.3108,2.3108,2.3108,2.3108,2.3108,2.3108,2.3321,2.3647,2.3258,2.3547,2.4199,2.4067,2.4544,2.536,2.5523,2.5837,2.6223,2.6424,2.6499,2.6499,2.6499,2.6499,2.6499,2.6499,2.6499,2.6499,2.6499,2.6499,2.6499,2.6499,2.6499,2.6499,2.6499,2.6499,2.6499,2.6499,2.6905,2.7284,2.7284,2.7769,2.7919,2.711,2.7307,2.7067,2.5597,2.5392,2.5354,2.5282,2.5505,2.5513,2.509,2.5259,2.5287,2.5035,2.4567,2.4394,2.461,2.4423,2.4509,2.5007,2.5035,2.5035,2.5035,2.5035,2.5035,2.5035,2.5287,2.5259,2.5007,2.4753,2.4366,2.1832,2.2046,0.0,2.0225,1.9547,0.0,1.72,0.0,0.0,0.0,0.0,0.0,0.0,0.0,0.0,0.0,0.0,0.0,0.0,0.0,0.0,0.0,0.0,0.0,0.0,0.0,1.5228,1.7225,0.0,0.0,0.0,0.0,2.1443,2.1995,2.2719,2.3108,2.3108,2.3108,2.3108,2.3108,2.3108,2.3108,2.3108,2.3108,2.3108,2.3108,2.3108,2.3321,2.3678,2.3484,2.3835,2.4531,2.4556,2.4983,2.5598,2.5598,2.5996,2.6499,2.6499,2.6499,2.6499,2.6499,2.6499,2.6499,2.6499,2.6499,2.6499,2.6499,2.6499,2.6499,2.6499,2.6499,2.6499,2.6499,2.6714,2.6939,2.6939,2.7571,2.8149,2.8149,2.862,2.8812,2.8279,2.862,2.8406,2.6645,2.6654,2.6823,2.674,2.6777,2.6638,2.6175,2.6154,2.6081,2.581,2.5119,2.4908,2.537,2.5203,2.5287,2.5755,2.5783,2.5783,2.5783,2.5783,2.5783,2.5783,2.6054,2.6054,2.5783,2.5783,2.5536]}]]